<?xml version="1.0" encoding="UTF-8" standalone="no" ?>
<gpx xmlns="http://www.topografix.com/GPX/1/1" creator="www.cicloide.com" version="1.1" xmlns:xsi="http://www.w3.org/2001/XMLSchema-instance" xsi:schemaLocation="http://www.topografix.com/GPX/1/1 http://www.topografix.com/GPX/1/1/gpx.xsd">
  <trk>
    <name>www.cicloide.com 20013</name>
    <desc>www.cicloide.com 20013</desc>
    <trkseg>
      <trkpt lat="42.474463840" lon="-2.462739690">
        <ele>364.96</ele>
        <time>2014-11-08T06:40:35Z</time>
      </trkpt>
      <trkpt lat="42.474450010" lon="-2.462729630">
        <ele>364.96</ele>
        <time>2014-11-08T06:40:36Z</time>
      </trkpt>
      <trkpt lat="42.474316740" lon="-2.462731480">
        <ele>364.96</ele>
        <time>2014-11-08T06:40:56Z</time>
      </trkpt>
      <trkpt lat="42.474317160" lon="-2.462749000">
        <ele>364.96</ele>
        <time>2014-11-08T06:40:57Z</time>
      </trkpt>
      <trkpt lat="42.474281450" lon="-2.462960140">
        <ele>364.96</ele>
        <time>2014-11-08T06:41:10Z</time>
      </trkpt>
      <trkpt lat="42.474307270" lon="-2.463068180">
        <ele>364.96</ele>
        <time>2014-11-08T06:41:18Z</time>
      </trkpt>
      <trkpt lat="42.474249520" lon="-2.463118220">
        <ele>364.96</ele>
        <time>2014-11-08T06:41:21Z</time>
      </trkpt>
      <trkpt lat="42.474210540" lon="-2.463150570">
        <ele>364.96</ele>
        <time>2014-11-08T06:41:23Z</time>
      </trkpt>
      <trkpt lat="42.474185230" lon="-2.463177140">
        <ele>364.96</ele>
        <time>2014-11-08T06:41:24Z</time>
      </trkpt>
      <trkpt lat="42.474063860" lon="-2.463378480">
        <ele>364.96</ele>
        <time>2014-11-08T06:41:33Z</time>
      </trkpt>
      <trkpt lat="42.474025550" lon="-2.463414020">
        <ele>366.40</ele>
        <time>2014-11-08T06:41:35Z</time>
      </trkpt>
      <trkpt lat="42.473768230" lon="-2.463714680">
        <ele>366.88</ele>
        <time>2014-11-08T06:41:48Z</time>
      </trkpt>
      <trkpt lat="42.473382490" lon="-2.463908300">
        <ele>367.36</ele>
        <time>2014-11-08T06:42:04Z</time>
      </trkpt>
      <trkpt lat="42.473132040" lon="-2.463612330">
        <ele>368.80</ele>
        <time>2014-11-08T06:42:16Z</time>
      </trkpt>
      <trkpt lat="42.472863990" lon="-2.463293650">
        <ele>370.24</ele>
        <time>2014-11-08T06:42:31Z</time>
      </trkpt>
      <trkpt lat="42.472635830" lon="-2.462984780">
        <ele>371.69</ele>
        <time>2014-11-08T06:42:44Z</time>
      </trkpt>
      <trkpt lat="42.472311710" lon="-2.462689990">
        <ele>373.61</ele>
        <time>2014-11-08T06:43:00Z</time>
      </trkpt>
      <trkpt lat="42.472087740" lon="-2.462653530">
        <ele>374.09</ele>
        <time>2014-11-08T06:43:11Z</time>
      </trkpt>
      <trkpt lat="42.472029990" lon="-2.462673140">
        <ele>374.09</ele>
        <time>2014-11-08T06:43:14Z</time>
      </trkpt>
      <trkpt lat="42.471728910" lon="-2.462404500">
        <ele>374.09</ele>
        <time>2014-11-08T06:43:25Z</time>
      </trkpt>
      <trkpt lat="42.471201690" lon="-2.461902090">
        <ele>374.09</ele>
        <time>2014-11-08T06:43:41Z</time>
      </trkpt>
      <trkpt lat="42.470912260" lon="-2.461853810">
        <ele>374.09</ele>
        <time>2014-11-08T06:43:46Z</time>
      </trkpt>
      <trkpt lat="42.470730290" lon="-2.461939890">
        <ele>374.09</ele>
        <time>2014-11-08T06:43:51Z</time>
      </trkpt>
      <trkpt lat="42.470507420" lon="-2.462166540">
        <ele>374.57</ele>
        <time>2014-11-08T06:44:03Z</time>
      </trkpt>
      <trkpt lat="42.470306250" lon="-2.462338950">
        <ele>374.57</ele>
        <time>2014-11-08T06:44:09Z</time>
      </trkpt>
      <trkpt lat="42.470095950" lon="-2.462601220">
        <ele>375.05</ele>
        <time>2014-11-08T06:44:17Z</time>
      </trkpt>
      <trkpt lat="42.470050020" lon="-2.462617230">
        <ele>375.05</ele>
        <time>2014-11-08T06:44:18Z</time>
      </trkpt>
      <trkpt lat="42.469382230" lon="-2.462348430">
        <ele>375.53</ele>
        <time>2014-11-08T06:44:32Z</time>
      </trkpt>
      <trkpt lat="42.468917450" lon="-2.462067630">
        <ele>374.57</ele>
        <time>2014-11-08T06:44:39Z</time>
      </trkpt>
      <trkpt lat="42.468872110" lon="-2.462065200">
        <ele>374.57</ele>
        <time>2014-11-08T06:44:40Z</time>
      </trkpt>
      <trkpt lat="42.468789210" lon="-2.462098810">
        <ele>374.57</ele>
        <time>2014-11-08T06:44:42Z</time>
      </trkpt>
      <trkpt lat="42.468713350" lon="-2.462137960">
        <ele>374.57</ele>
        <time>2014-11-08T06:44:44Z</time>
      </trkpt>
      <trkpt lat="42.468640520" lon="-2.462124710">
        <ele>374.57</ele>
        <time>2014-11-08T06:44:46Z</time>
      </trkpt>
      <trkpt lat="42.468136340" lon="-2.462087410">
        <ele>374.57</ele>
        <time>2014-11-08T06:44:55Z</time>
      </trkpt>
      <trkpt lat="42.468064260" lon="-2.462138540">
        <ele>374.57</ele>
        <time>2014-11-08T06:44:56Z</time>
      </trkpt>
      <trkpt lat="42.467944570" lon="-2.462160250">
        <ele>375.53</ele>
        <time>2014-11-08T06:44:58Z</time>
      </trkpt>
      <trkpt lat="42.467444420" lon="-2.462122200">
        <ele>376.01</ele>
        <time>2014-11-08T06:45:09Z</time>
      </trkpt>
      <trkpt lat="42.467272670" lon="-2.462392350">
        <ele>376.97</ele>
        <time>2014-11-08T06:45:18Z</time>
      </trkpt>
      <trkpt lat="42.467204610" lon="-2.462381950">
        <ele>376.97</ele>
        <time>2014-11-08T06:45:20Z</time>
      </trkpt>
      <trkpt lat="42.466913930" lon="-2.462398720">
        <ele>376.97</ele>
        <time>2014-11-08T06:45:28Z</time>
      </trkpt>
      <trkpt lat="42.466349740" lon="-2.462682110">
        <ele>376.97</ele>
        <time>2014-11-08T06:45:43Z</time>
      </trkpt>
      <trkpt lat="42.466165340" lon="-2.462726700">
        <ele>376.97</ele>
        <time>2014-11-08T06:45:49Z</time>
      </trkpt>
      <trkpt lat="42.465961490" lon="-2.462685630">
        <ele>377.45</ele>
        <time>2014-11-08T06:46:03Z</time>
      </trkpt>
      <trkpt lat="42.465379790" lon="-2.462623860">
        <ele>377.45</ele>
        <time>2014-11-08T06:46:18Z</time>
      </trkpt>
      <trkpt lat="42.464890790" lon="-2.462542890">
        <ele>377.94</ele>
        <time>2014-11-08T06:46:31Z</time>
      </trkpt>
      <trkpt lat="42.464608150" lon="-2.462399140">
        <ele>377.94</ele>
        <time>2014-11-08T06:46:41Z</time>
      </trkpt>
      <trkpt lat="42.464577140" lon="-2.462380190">
        <ele>377.94</ele>
        <time>2014-11-08T06:46:42Z</time>
      </trkpt>
      <trkpt lat="42.464211770" lon="-2.462238960">
        <ele>378.90</ele>
        <time>2014-11-08T06:46:54Z</time>
      </trkpt>
      <trkpt lat="42.463930390" lon="-2.462064870">
        <ele>380.82</ele>
        <time>2014-11-08T06:47:06Z</time>
      </trkpt>
      <trkpt lat="42.463695030" lon="-2.462577840">
        <ele>382.26</ele>
        <time>2014-11-08T06:47:21Z</time>
      </trkpt>
      <trkpt lat="42.463716900" lon="-2.463067260">
        <ele>382.74</ele>
        <time>2014-11-08T06:47:28Z</time>
      </trkpt>
      <trkpt lat="42.463309460" lon="-2.463937470">
        <ele>383.22</ele>
        <time>2014-11-08T06:47:44Z</time>
      </trkpt>
      <trkpt lat="42.463184230" lon="-2.464170060">
        <ele>383.22</ele>
        <time>2014-11-08T06:47:51Z</time>
      </trkpt>
      <trkpt lat="42.463151790" lon="-2.464189260">
        <ele>383.22</ele>
        <time>2014-11-08T06:47:52Z</time>
      </trkpt>
      <trkpt lat="42.463017430" lon="-2.464193790">
        <ele>383.22</ele>
        <time>2014-11-08T06:47:56Z</time>
      </trkpt>
      <trkpt lat="42.462983650" lon="-2.464227150">
        <ele>383.22</ele>
        <time>2014-11-08T06:47:58Z</time>
      </trkpt>
      <trkpt lat="42.462970490" lon="-2.464250450">
        <ele>383.22</ele>
        <time>2014-11-08T06:47:59Z</time>
      </trkpt>
      <trkpt lat="42.462965050" lon="-2.464275430">
        <ele>383.22</ele>
        <time>2014-11-08T06:48:00Z</time>
      </trkpt>
      <trkpt lat="42.462921120" lon="-2.464321190">
        <ele>383.22</ele>
        <time>2014-11-08T06:48:02Z</time>
      </trkpt>
      <trkpt lat="42.462895310" lon="-2.464353210">
        <ele>383.22</ele>
        <time>2014-11-08T06:48:04Z</time>
      </trkpt>
      <trkpt lat="42.462600100" lon="-2.464287660">
        <ele>383.22</ele>
        <time>2014-11-08T06:48:15Z</time>
      </trkpt>
      <trkpt lat="42.462318130" lon="-2.464183390">
        <ele>383.22</ele>
        <time>2014-11-08T06:48:25Z</time>
      </trkpt>
      <trkpt lat="42.461856960" lon="-2.464036960">
        <ele>383.22</ele>
        <time>2014-11-08T06:48:39Z</time>
      </trkpt>
      <trkpt lat="42.461494360" lon="-2.463891200">
        <ele>383.22</ele>
        <time>2014-11-08T06:48:51Z</time>
      </trkpt>
      <trkpt lat="42.461180370" lon="-2.463759770">
        <ele>383.22</ele>
        <time>2014-11-08T06:49:04Z</time>
      </trkpt>
      <trkpt lat="42.460914240" lon="-2.463641920">
        <ele>383.22</ele>
        <time>2014-11-08T06:49:15Z</time>
      </trkpt>
      <trkpt lat="42.460613500" lon="-2.463651730">
        <ele>383.70</ele>
        <time>2014-11-08T06:49:29Z</time>
      </trkpt>
      <trkpt lat="42.460562120" lon="-2.463676120">
        <ele>384.66</ele>
        <time>2014-11-08T06:49:32Z</time>
      </trkpt>
      <trkpt lat="42.460541590" lon="-2.463696910">
        <ele>385.15</ele>
        <time>2014-11-08T06:49:33Z</time>
      </trkpt>
      <trkpt lat="42.460360120" lon="-2.463822130">
        <ele>387.55</ele>
        <time>2014-11-08T06:49:44Z</time>
      </trkpt>
      <trkpt lat="42.460135060" lon="-2.463950460">
        <ele>388.99</ele>
        <time>2014-11-08T06:49:55Z</time>
      </trkpt>
      <trkpt lat="42.459911940" lon="-2.464062440">
        <ele>389.95</ele>
        <time>2014-11-08T06:50:04Z</time>
      </trkpt>
      <trkpt lat="42.459681850" lon="-2.464039560">
        <ele>393.80</ele>
        <time>2014-11-08T06:50:11Z</time>
      </trkpt>
      <trkpt lat="42.459410780" lon="-2.463944840">
        <ele>396.68</ele>
        <time>2014-11-08T06:50:22Z</time>
      </trkpt>
      <trkpt lat="42.459335090" lon="-2.463916090">
        <ele>397.64</ele>
        <time>2014-11-08T06:50:25Z</time>
      </trkpt>
      <trkpt lat="42.459250350" lon="-2.464025900">
        <ele>398.60</ele>
        <time>2014-11-08T06:50:31Z</time>
      </trkpt>
      <trkpt lat="42.459235770" lon="-2.464088170">
        <ele>399.08</ele>
        <time>2014-11-08T06:50:33Z</time>
      </trkpt>
      <trkpt lat="42.459160580" lon="-2.464488330">
        <ele>399.08</ele>
        <time>2014-11-08T06:50:46Z</time>
      </trkpt>
      <trkpt lat="42.459067380" lon="-2.464905330">
        <ele>399.08</ele>
        <time>2014-11-08T06:50:59Z</time>
      </trkpt>
      <trkpt lat="42.459007530" lon="-2.465142950">
        <ele>399.08</ele>
        <time>2014-11-08T06:51:11Z</time>
      </trkpt>
      <trkpt lat="42.459016080" lon="-2.465153180">
        <ele>399.57</ele>
        <time>2014-11-08T06:51:28Z</time>
      </trkpt>
      <trkpt lat="42.459019680" lon="-2.465140440">
        <ele>400.05</ele>
        <time>2014-11-08T06:51:40Z</time>
      </trkpt>
      <trkpt lat="42.458880880" lon="-2.465143290">
        <ele>403.41</ele>
        <time>2014-11-08T06:52:07Z</time>
      </trkpt>
      <trkpt lat="42.458835950" lon="-2.465099280">
        <ele>406.29</ele>
        <time>2014-11-08T06:52:21Z</time>
      </trkpt>
      <trkpt lat="42.458833270" lon="-2.465108340">
        <ele>409.66</ele>
        <time>2014-11-08T06:52:32Z</time>
      </trkpt>
      <trkpt lat="42.458867800" lon="-2.465125770">
        <ele>412.54</ele>
        <time>2014-11-08T06:52:58Z</time>
      </trkpt>
      <trkpt lat="42.458859920" lon="-2.465206150">
        <ele>412.54</ele>
        <time>2014-11-08T06:53:33Z</time>
      </trkpt>
      <trkpt lat="42.458806450" lon="-2.465197430">
        <ele>412.54</ele>
        <time>2014-11-08T06:54:13Z</time>
      </trkpt>
      <trkpt lat="42.458838130" lon="-2.465173970">
        <ele>413.02</ele>
        <time>2014-11-08T06:54:45Z</time>
      </trkpt>
      <trkpt lat="42.458839300" lon="-2.465186200">
        <ele>413.50</ele>
        <time>2014-11-08T06:55:12Z</time>
      </trkpt>
      <trkpt lat="42.458795890" lon="-2.465222920">
        <ele>413.50</ele>
        <time>2014-11-08T06:55:36Z</time>
      </trkpt>
      <trkpt lat="42.458824390" lon="-2.465231300">
        <ele>413.50</ele>
        <time>2014-11-08T06:56:13Z</time>
      </trkpt>
      <trkpt lat="42.458858330" lon="-2.465218810">
        <ele>413.50</ele>
        <time>2014-11-08T06:56:56Z</time>
      </trkpt>
      <trkpt lat="42.459024540" lon="-2.465176730">
        <ele>413.50</ele>
        <time>2014-11-08T06:57:27Z</time>
      </trkpt>
      <trkpt lat="42.459006520" lon="-2.465185360">
        <ele>413.50</ele>
        <time>2014-11-08T06:57:54Z</time>
      </trkpt>
      <trkpt lat="42.458895630" lon="-2.465146890">
        <ele>413.50</ele>
        <time>2014-11-08T06:58:20Z</time>
      </trkpt>
      <trkpt lat="42.458886750" lon="-2.465106070">
        <ele>413.50</ele>
        <time>2014-11-08T06:58:45Z</time>
      </trkpt>
      <trkpt lat="42.458931670" lon="-2.465155020">
        <ele>413.50</ele>
        <time>2014-11-08T06:59:07Z</time>
      </trkpt>
      <trkpt lat="42.458860760" lon="-2.465153600">
        <ele>413.50</ele>
        <time>2014-11-08T06:59:23Z</time>
      </trkpt>
      <trkpt lat="42.458879120" lon="-2.465170700">
        <ele>413.98</ele>
        <time>2014-11-08T06:59:52Z</time>
      </trkpt>
      <trkpt lat="42.458866550" lon="-2.465155360">
        <ele>413.98</ele>
        <time>2014-11-08T07:00:24Z</time>
      </trkpt>
      <trkpt lat="42.458960930" lon="-2.465196260">
        <ele>413.98</ele>
        <time>2014-11-08T07:00:50Z</time>
      </trkpt>
      <trkpt lat="42.458878360" lon="-2.465138340">
        <ele>413.98</ele>
        <time>2014-11-08T07:01:19Z</time>
      </trkpt>
      <trkpt lat="42.458891860" lon="-2.465104060">
        <ele>413.98</ele>
        <time>2014-11-08T07:01:53Z</time>
      </trkpt>
      <trkpt lat="42.458887580" lon="-2.465134740">
        <ele>413.98</ele>
        <time>2014-11-08T07:02:21Z</time>
      </trkpt>
      <trkpt lat="42.458896300" lon="-2.465126440">
        <ele>413.98</ele>
        <time>2014-11-08T07:02:43Z</time>
      </trkpt>
      <trkpt lat="42.458904850" lon="-2.465119480">
        <ele>413.98</ele>
        <time>2014-11-08T07:03:11Z</time>
      </trkpt>
      <trkpt lat="42.458951120" lon="-2.465149490">
        <ele>413.98</ele>
        <time>2014-11-08T07:03:34Z</time>
      </trkpt>
      <trkpt lat="42.458953300" lon="-2.465157960">
        <ele>413.98</ele>
        <time>2014-11-08T07:03:59Z</time>
      </trkpt>
      <trkpt lat="42.458940980" lon="-2.465173550">
        <ele>413.98</ele>
        <time>2014-11-08T07:04:21Z</time>
      </trkpt>
      <trkpt lat="42.458980880" lon="-2.465170440">
        <ele>413.98</ele>
        <time>2014-11-08T07:04:51Z</time>
      </trkpt>
      <trkpt lat="42.459062100" lon="-2.465191400">
        <ele>413.98</ele>
        <time>2014-11-08T07:05:30Z</time>
      </trkpt>
      <trkpt lat="42.459025800" lon="-2.465138430">
        <ele>413.98</ele>
        <time>2014-11-08T07:06:02Z</time>
      </trkpt>
      <trkpt lat="42.459090680" lon="-2.465177490">
        <ele>413.98</ele>
        <time>2014-11-08T07:06:27Z</time>
      </trkpt>
      <trkpt lat="42.459093110" lon="-2.465180670">
        <ele>413.98</ele>
        <time>2014-11-08T07:06:30Z</time>
      </trkpt>
      <trkpt lat="42.459049940" lon="-2.465315620">
        <ele>413.98</ele>
        <time>2014-11-08T07:06:41Z</time>
      </trkpt>
      <trkpt lat="42.459155470" lon="-2.465399770">
        <ele>413.98</ele>
        <time>2014-11-08T07:06:49Z</time>
      </trkpt>
      <trkpt lat="42.459143650" lon="-2.465549390">
        <ele>413.98</ele>
        <time>2014-11-08T07:06:57Z</time>
      </trkpt>
      <trkpt lat="42.459172900" lon="-2.465667410">
        <ele>413.98</ele>
        <time>2014-11-08T07:07:02Z</time>
      </trkpt>
      <trkpt lat="42.459238280" lon="-2.465796070">
        <ele>413.98</ele>
        <time>2014-11-08T07:07:10Z</time>
      </trkpt>
      <trkpt lat="42.459428720" lon="-2.465863380">
        <ele>412.54</ele>
        <time>2014-11-08T07:07:24Z</time>
      </trkpt>
      <trkpt lat="42.459622340" lon="-2.465921380">
        <ele>411.58</ele>
        <time>2014-11-08T07:07:39Z</time>
      </trkpt>
      <trkpt lat="42.459869610" lon="-2.466008470">
        <ele>410.62</ele>
        <time>2014-11-08T07:07:53Z</time>
      </trkpt>
      <trkpt lat="42.460123240" lon="-2.466105190">
        <ele>410.14</ele>
        <time>2014-11-08T07:08:08Z</time>
      </trkpt>
      <trkpt lat="42.460405710" lon="-2.466227820">
        <ele>409.18</ele>
        <time>2014-11-08T07:08:23Z</time>
      </trkpt>
      <trkpt lat="42.460728170" lon="-2.466376770">
        <ele>408.22</ele>
        <time>2014-11-08T07:08:36Z</time>
      </trkpt>
      <trkpt lat="42.460936880" lon="-2.466519600">
        <ele>407.26</ele>
        <time>2014-11-08T07:08:48Z</time>
      </trkpt>
      <trkpt lat="42.461067550" lon="-2.466556060">
        <ele>407.26</ele>
        <time>2014-11-08T07:09:07Z</time>
      </trkpt>
      <trkpt lat="42.461402910" lon="-2.466644400">
        <ele>406.29</ele>
        <time>2014-11-08T07:09:17Z</time>
      </trkpt>
      <trkpt lat="42.461904570" lon="-2.466853360">
        <ele>405.81</ele>
        <time>2014-11-08T07:09:33Z</time>
      </trkpt>
      <trkpt lat="42.462314270" lon="-2.466904070">
        <ele>405.81</ele>
        <time>2014-11-08T07:09:45Z</time>
      </trkpt>
      <trkpt lat="42.462603700" lon="-2.467167010">
        <ele>405.81</ele>
        <time>2014-11-08T07:09:55Z</time>
      </trkpt>
      <trkpt lat="42.462739990" lon="-2.467229880">
        <ele>407.26</ele>
        <time>2014-11-08T07:10:00Z</time>
      </trkpt>
      <trkpt lat="42.463068140" lon="-2.467333310">
        <ele>407.74</ele>
        <time>2014-11-08T07:10:13Z</time>
      </trkpt>
      <trkpt lat="42.463404420" lon="-2.467303300">
        <ele>408.70</ele>
        <time>2014-11-08T07:10:24Z</time>
      </trkpt>
      <trkpt lat="42.463675330" lon="-2.467436910">
        <ele>409.66</ele>
        <time>2014-11-08T07:10:34Z</time>
      </trkpt>
      <trkpt lat="42.463711200" lon="-2.467434820">
        <ele>410.62</ele>
        <time>2014-11-08T07:10:35Z</time>
      </trkpt>
      <trkpt lat="42.464163740" lon="-2.467410010">
        <ele>411.10</ele>
        <time>2014-11-08T07:10:46Z</time>
      </trkpt>
      <trkpt lat="42.464702950" lon="-2.467422330">
        <ele>412.54</ele>
        <time>2014-11-08T07:10:56Z</time>
      </trkpt>
      <trkpt lat="42.464726750" lon="-2.467428360">
        <ele>412.06</ele>
        <time>2014-11-08T07:11:04Z</time>
      </trkpt>
      <trkpt lat="42.464769670" lon="-2.467444200">
        <ele>412.54</ele>
        <time>2014-11-08T07:11:16Z</time>
      </trkpt>
      <trkpt lat="42.464938730" lon="-2.467415620">
        <ele>412.54</ele>
        <time>2014-11-08T07:11:24Z</time>
      </trkpt>
      <trkpt lat="42.464915090" lon="-2.467428950">
        <ele>412.54</ele>
        <time>2014-11-08T07:11:33Z</time>
      </trkpt>
      <trkpt lat="42.464933200" lon="-2.467427440">
        <ele>412.54</ele>
        <time>2014-11-08T07:11:34Z</time>
      </trkpt>
      <trkpt lat="42.465156660" lon="-2.467407070">
        <ele>412.54</ele>
        <time>2014-11-08T07:11:48Z</time>
      </trkpt>
      <trkpt lat="42.465163950" lon="-2.467396340">
        <ele>412.54</ele>
        <time>2014-11-08T07:11:50Z</time>
      </trkpt>
      <trkpt lat="42.465142240" lon="-2.467367930">
        <ele>412.54</ele>
        <time>2014-11-08T07:12:00Z</time>
      </trkpt>
      <trkpt lat="42.465227400" lon="-2.467267760">
        <ele>412.54</ele>
        <time>2014-11-08T07:12:08Z</time>
      </trkpt>
      <trkpt lat="42.465334360" lon="-2.467246980">
        <ele>413.02</ele>
        <time>2014-11-08T07:12:13Z</time>
      </trkpt>
      <trkpt lat="42.465642810" lon="-2.467165920">
        <ele>413.02</ele>
        <time>2014-11-08T07:12:27Z</time>
      </trkpt>
      <trkpt lat="42.466076740" lon="-2.467003480">
        <ele>413.50</ele>
        <time>2014-11-08T07:12:40Z</time>
      </trkpt>
      <trkpt lat="42.466574710" lon="-2.466700390">
        <ele>413.98</ele>
        <time>2014-11-08T07:12:54Z</time>
      </trkpt>
      <trkpt lat="42.466962040" lon="-2.466469890">
        <ele>414.95</ele>
        <time>2014-11-08T07:13:07Z</time>
      </trkpt>
      <trkpt lat="42.467434610" lon="-2.466338970">
        <ele>413.50</ele>
        <time>2014-11-08T07:13:20Z</time>
      </trkpt>
      <trkpt lat="42.467783970" lon="-2.466391440">
        <ele>412.06</ele>
        <time>2014-11-08T07:13:30Z</time>
      </trkpt>
      <trkpt lat="42.467752120" lon="-2.466819080">
        <ele>414.47</ele>
        <time>2014-11-08T07:13:41Z</time>
      </trkpt>
      <trkpt lat="42.467802740" lon="-2.467412440">
        <ele>416.87</ele>
        <time>2014-11-08T07:13:55Z</time>
      </trkpt>
      <trkpt lat="42.467850190" lon="-2.467930100">
        <ele>420.23</ele>
        <time>2014-11-08T07:14:07Z</time>
      </trkpt>
      <trkpt lat="42.467821770" lon="-2.468331680">
        <ele>421.68</ele>
        <time>2014-11-08T07:14:18Z</time>
      </trkpt>
      <trkpt lat="42.467849850" lon="-2.468893520">
        <ele>423.60</ele>
        <time>2014-11-08T07:14:34Z</time>
      </trkpt>
      <trkpt lat="42.467881280" lon="-2.469447650">
        <ele>425.52</ele>
        <time>2014-11-08T07:14:48Z</time>
      </trkpt>
      <trkpt lat="42.467905510" lon="-2.469972770">
        <ele>426.96</ele>
        <time>2014-11-08T07:15:01Z</time>
      </trkpt>
      <trkpt lat="42.467942300" lon="-2.470450460">
        <ele>428.40</ele>
        <time>2014-11-08T07:15:14Z</time>
      </trkpt>
      <trkpt lat="42.467967530" lon="-2.471051690">
        <ele>428.89</ele>
        <time>2014-11-08T07:15:30Z</time>
      </trkpt>
      <trkpt lat="42.467973060" lon="-2.471756270">
        <ele>429.37</ele>
        <time>2014-11-08T07:15:46Z</time>
      </trkpt>
      <trkpt lat="42.467978680" lon="-2.471959120">
        <ele>429.37</ele>
        <time>2014-11-08T07:15:52Z</time>
      </trkpt>
      <trkpt lat="42.467992680" lon="-2.471984180">
        <ele>429.37</ele>
        <time>2014-11-08T07:15:53Z</time>
      </trkpt>
      <trkpt lat="42.468012040" lon="-2.472002280">
        <ele>429.37</ele>
        <time>2014-11-08T07:15:54Z</time>
      </trkpt>
      <trkpt lat="42.468032410" lon="-2.472018120">
        <ele>429.37</ele>
        <time>2014-11-08T07:15:55Z</time>
      </trkpt>
      <trkpt lat="42.468047240" lon="-2.472039580">
        <ele>429.37</ele>
        <time>2014-11-08T07:15:56Z</time>
      </trkpt>
      <trkpt lat="42.468056460" lon="-2.472068580">
        <ele>429.37</ele>
        <time>2014-11-08T07:15:57Z</time>
      </trkpt>
      <trkpt lat="42.468062000" lon="-2.472102530">
        <ele>429.37</ele>
        <time>2014-11-08T07:15:58Z</time>
      </trkpt>
      <trkpt lat="42.468064180" lon="-2.472138150">
        <ele>429.37</ele>
        <time>2014-11-08T07:15:59Z</time>
      </trkpt>
      <trkpt lat="42.468092000" lon="-2.472286010">
        <ele>429.37</ele>
        <time>2014-11-08T07:16:04Z</time>
      </trkpt>
      <trkpt lat="42.468096030" lon="-2.472309310">
        <ele>429.85</ele>
        <time>2014-11-08T07:16:05Z</time>
      </trkpt>
      <trkpt lat="42.468198620" lon="-2.472701250">
        <ele>430.81</ele>
        <time>2014-11-08T07:16:19Z</time>
      </trkpt>
      <trkpt lat="42.468289150" lon="-2.472945410">
        <ele>430.81</ele>
        <time>2014-11-08T07:16:28Z</time>
      </trkpt>
      <trkpt lat="42.468316390" lon="-2.472960590">
        <ele>430.81</ele>
        <time>2014-11-08T07:16:29Z</time>
      </trkpt>
      <trkpt lat="42.468348660" lon="-2.472964940">
        <ele>430.81</ele>
        <time>2014-11-08T07:16:30Z</time>
      </trkpt>
      <trkpt lat="42.468875960" lon="-2.472967960">
        <ele>430.81</ele>
        <time>2014-11-08T07:16:46Z</time>
      </trkpt>
      <trkpt lat="42.469460100" lon="-2.472977770">
        <ele>431.29</ele>
        <time>2014-11-08T07:17:02Z</time>
      </trkpt>
      <trkpt lat="42.469991260" lon="-2.473090840">
        <ele>431.29</ele>
        <time>2014-11-08T07:17:18Z</time>
      </trkpt>
      <trkpt lat="42.470003500" lon="-2.473344060">
        <ele>431.29</ele>
        <time>2014-11-08T07:17:23Z</time>
      </trkpt>
      <trkpt lat="42.470011290" lon="-2.473400640">
        <ele>431.29</ele>
        <time>2014-11-08T07:17:24Z</time>
      </trkpt>
      <trkpt lat="42.470016240" lon="-2.473456040">
        <ele>431.29</ele>
        <time>2014-11-08T07:17:25Z</time>
      </trkpt>
      <trkpt lat="42.470018250" lon="-2.474354080">
        <ele>431.29</ele>
        <time>2014-11-08T07:17:41Z</time>
      </trkpt>
      <trkpt lat="42.470041050" lon="-2.475459900">
        <ele>429.85</ele>
        <time>2014-11-08T07:18:00Z</time>
      </trkpt>
      <trkpt lat="42.470055800" lon="-2.475512460">
        <ele>429.85</ele>
        <time>2014-11-08T07:18:01Z</time>
      </trkpt>
      <trkpt lat="42.470073230" lon="-2.475562830">
        <ele>429.85</ele>
        <time>2014-11-08T07:18:02Z</time>
      </trkpt>
      <trkpt lat="42.470421920" lon="-2.476478640">
        <ele>427.92</ele>
        <time>2014-11-08T07:18:19Z</time>
      </trkpt>
      <trkpt lat="42.470635070" lon="-2.477214570">
        <ele>424.56</ele>
        <time>2014-11-08T07:18:30Z</time>
      </trkpt>
      <trkpt lat="42.470834230" lon="-2.478595070">
        <ele>422.16</ele>
        <time>2014-11-08T07:18:46Z</time>
      </trkpt>
      <trkpt lat="42.471150730" lon="-2.479248190">
        <ele>423.12</ele>
        <time>2014-11-08T07:18:57Z</time>
      </trkpt>
      <trkpt lat="42.471313420" lon="-2.479788320">
        <ele>426.48</ele>
        <time>2014-11-08T07:19:08Z</time>
      </trkpt>
      <trkpt lat="42.471365640" lon="-2.480390300">
        <ele>428.89</ele>
        <time>2014-11-08T07:19:22Z</time>
      </trkpt>
      <trkpt lat="42.471617180" lon="-2.481064880">
        <ele>430.81</ele>
        <time>2014-11-08T07:19:40Z</time>
      </trkpt>
      <trkpt lat="42.471914490" lon="-2.481478190">
        <ele>432.25</ele>
        <time>2014-11-08T07:19:55Z</time>
      </trkpt>
      <trkpt lat="42.472282280" lon="-2.482168270">
        <ele>433.69</ele>
        <time>2014-11-08T07:20:15Z</time>
      </trkpt>
      <trkpt lat="42.472630220" lon="-2.482855840">
        <ele>435.13</ele>
        <time>2014-11-08T07:20:34Z</time>
      </trkpt>
      <trkpt lat="42.472940850" lon="-2.483574670">
        <ele>437.06</ele>
        <time>2014-11-08T07:20:53Z</time>
      </trkpt>
      <trkpt lat="42.473231120" lon="-2.484478080">
        <ele>438.50</ele>
        <time>2014-11-08T07:21:15Z</time>
      </trkpt>
      <trkpt lat="42.473420720" lon="-2.485388270">
        <ele>440.42</ele>
        <time>2014-11-08T07:21:36Z</time>
      </trkpt>
      <trkpt lat="42.473567900" lon="-2.486146580">
        <ele>441.38</ele>
        <time>2014-11-08T07:21:53Z</time>
      </trkpt>
      <trkpt lat="42.473735540" lon="-2.486998510">
        <ele>443.31</ele>
        <time>2014-11-08T07:22:12Z</time>
      </trkpt>
      <trkpt lat="42.473964780" lon="-2.487793700">
        <ele>445.23</ele>
        <time>2014-11-08T07:22:31Z</time>
      </trkpt>
      <trkpt lat="42.474275000" lon="-2.488357300">
        <ele>448.11</ele>
        <time>2014-11-08T07:22:48Z</time>
      </trkpt>
      <trkpt lat="42.474475490" lon="-2.488734910">
        <ele>450.52</ele>
        <time>2014-11-08T07:23:02Z</time>
      </trkpt>
      <trkpt lat="42.474539280" lon="-2.488990810">
        <ele>449.07</ele>
        <time>2014-11-08T07:23:08Z</time>
      </trkpt>
      <trkpt lat="42.474586970" lon="-2.489456590">
        <ele>449.07</ele>
        <time>2014-11-08T07:23:20Z</time>
      </trkpt>
      <trkpt lat="42.474616900" lon="-2.490194780">
        <ele>449.07</ele>
        <time>2014-11-08T07:23:37Z</time>
      </trkpt>
      <trkpt lat="42.474722930" lon="-2.490995510">
        <ele>451.96</ele>
        <time>2014-11-08T07:23:57Z</time>
      </trkpt>
      <trkpt lat="42.474815460" lon="-2.491810400">
        <ele>454.36</ele>
        <time>2014-11-08T07:24:17Z</time>
      </trkpt>
      <trkpt lat="42.474856700" lon="-2.492569880">
        <ele>455.80</ele>
        <time>2014-11-08T07:24:35Z</time>
      </trkpt>
      <trkpt lat="42.474737930" lon="-2.493185700">
        <ele>457.24</ele>
        <time>2014-11-08T07:24:52Z</time>
      </trkpt>
      <trkpt lat="42.474479350" lon="-2.493764640">
        <ele>457.72</ele>
        <time>2014-11-08T07:25:08Z</time>
      </trkpt>
      <trkpt lat="42.474224040" lon="-2.494338460">
        <ele>458.69</ele>
        <time>2014-11-08T07:25:24Z</time>
      </trkpt>
      <trkpt lat="42.474053380" lon="-2.495165590">
        <ele>460.13</ele>
        <time>2014-11-08T07:25:44Z</time>
      </trkpt>
      <trkpt lat="42.473968050" lon="-2.495752660">
        <ele>460.61</ele>
        <time>2014-11-08T07:25:58Z</time>
      </trkpt>
      <trkpt lat="42.474019180" lon="-2.496410470">
        <ele>461.57</ele>
        <time>2014-11-08T07:26:14Z</time>
      </trkpt>
      <trkpt lat="42.474206270" lon="-2.497003150">
        <ele>463.01</ele>
        <time>2014-11-08T07:26:30Z</time>
      </trkpt>
      <trkpt lat="42.474550090" lon="-2.497548560">
        <ele>463.97</ele>
        <time>2014-11-08T07:26:48Z</time>
      </trkpt>
      <trkpt lat="42.474893670" lon="-2.497867490">
        <ele>465.42</ele>
        <time>2014-11-08T07:27:03Z</time>
      </trkpt>
      <trkpt lat="42.475349060" lon="-2.498285840">
        <ele>467.82</ele>
        <time>2014-11-08T07:27:22Z</time>
      </trkpt>
      <trkpt lat="42.475841490" lon="-2.498526650">
        <ele>470.22</ele>
        <time>2014-11-08T07:27:41Z</time>
      </trkpt>
      <trkpt lat="42.476189260" lon="-2.498702670">
        <ele>471.66</ele>
        <time>2014-11-08T07:27:54Z</time>
      </trkpt>
      <trkpt lat="42.476687650" lon="-2.498901820">
        <ele>473.59</ele>
        <time>2014-11-08T07:28:14Z</time>
      </trkpt>
      <trkpt lat="42.477126940" lon="-2.499113800">
        <ele>475.03</ele>
        <time>2014-11-08T07:28:31Z</time>
      </trkpt>
      <trkpt lat="42.477507730" lon="-2.499524260">
        <ele>476.95</ele>
        <time>2014-11-08T07:28:49Z</time>
      </trkpt>
      <trkpt lat="42.477885750" lon="-2.499927930">
        <ele>478.39</ele>
        <time>2014-11-08T07:29:07Z</time>
      </trkpt>
      <trkpt lat="42.478348180" lon="-2.500143350">
        <ele>479.84</ele>
        <time>2014-11-08T07:29:25Z</time>
      </trkpt>
      <trkpt lat="42.478775410" lon="-2.500152570">
        <ele>481.28</ele>
        <time>2014-11-08T07:29:41Z</time>
      </trkpt>
      <trkpt lat="42.479232730" lon="-2.500192300">
        <ele>484.64</ele>
        <time>2014-11-08T07:29:59Z</time>
      </trkpt>
      <trkpt lat="42.479595080" lon="-2.500264130">
        <ele>487.05</ele>
        <time>2014-11-08T07:30:15Z</time>
      </trkpt>
      <trkpt lat="42.479828930" lon="-2.500599410">
        <ele>489.93</ele>
        <time>2014-11-08T07:30:32Z</time>
      </trkpt>
      <trkpt lat="42.480059270" lon="-2.500983720">
        <ele>493.29</ele>
        <time>2014-11-08T07:30:48Z</time>
      </trkpt>
      <trkpt lat="42.480399320" lon="-2.501121600">
        <ele>493.77</ele>
        <time>2014-11-08T07:31:04Z</time>
      </trkpt>
      <trkpt lat="42.480807430" lon="-2.501008280">
        <ele>495.22</ele>
        <time>2014-11-08T07:31:21Z</time>
      </trkpt>
      <trkpt lat="42.481060900" lon="-2.500884060">
        <ele>498.58</ele>
        <time>2014-11-08T07:31:34Z</time>
      </trkpt>
      <trkpt lat="42.481082610" lon="-2.500898060">
        <ele>498.58</ele>
        <time>2014-11-08T07:31:35Z</time>
      </trkpt>
      <trkpt lat="42.481101890" lon="-2.500919850">
        <ele>499.06</ele>
        <time>2014-11-08T07:31:36Z</time>
      </trkpt>
      <trkpt lat="42.481120160" lon="-2.500946670">
        <ele>499.06</ele>
        <time>2014-11-08T07:31:37Z</time>
      </trkpt>
      <trkpt lat="42.481136420" lon="-2.500976760">
        <ele>499.06</ele>
        <time>2014-11-08T07:31:38Z</time>
      </trkpt>
      <trkpt lat="42.481149420" lon="-2.501007100">
        <ele>499.54</ele>
        <time>2014-11-08T07:31:39Z</time>
      </trkpt>
      <trkpt lat="42.481159560" lon="-2.501036780">
        <ele>499.54</ele>
        <time>2014-11-08T07:31:40Z</time>
      </trkpt>
      <trkpt lat="42.481172380" lon="-2.501063430">
        <ele>500.02</ele>
        <time>2014-11-08T07:31:41Z</time>
      </trkpt>
      <trkpt lat="42.481186550" lon="-2.501087150">
        <ele>500.02</ele>
        <time>2014-11-08T07:31:42Z</time>
      </trkpt>
      <trkpt lat="42.481200290" lon="-2.501110200">
        <ele>500.98</ele>
        <time>2014-11-08T07:31:43Z</time>
      </trkpt>
      <trkpt lat="42.481429040" lon="-2.501361160">
        <ele>503.87</ele>
        <time>2014-11-08T07:31:56Z</time>
      </trkpt>
      <trkpt lat="42.481803370" lon="-2.501534070">
        <ele>505.31</ele>
        <time>2014-11-08T07:32:12Z</time>
      </trkpt>
      <trkpt lat="42.482257590" lon="-2.501773880">
        <ele>507.23</ele>
        <time>2014-11-08T07:32:31Z</time>
      </trkpt>
      <trkpt lat="42.482724710" lon="-2.501713030">
        <ele>509.16</ele>
        <time>2014-11-08T07:32:49Z</time>
      </trkpt>
      <trkpt lat="42.483089660" lon="-2.501772620">
        <ele>509.64</ele>
        <time>2014-11-08T07:33:04Z</time>
      </trkpt>
      <trkpt lat="42.483437420" lon="-2.501986110">
        <ele>510.60</ele>
        <time>2014-11-08T07:33:20Z</time>
      </trkpt>
      <trkpt lat="42.483734480" lon="-2.502154500">
        <ele>512.52</ele>
        <time>2014-11-08T07:33:34Z</time>
      </trkpt>
      <trkpt lat="42.484087860" lon="-2.502414430">
        <ele>513.48</ele>
        <time>2014-11-08T07:33:50Z</time>
      </trkpt>
      <trkpt lat="42.484437300" lon="-2.502772580">
        <ele>512.04</ele>
        <time>2014-11-08T07:34:06Z</time>
      </trkpt>
      <trkpt lat="42.484580380" lon="-2.502936280">
        <ele>510.60</ele>
        <time>2014-11-08T07:34:16Z</time>
      </trkpt>
      <trkpt lat="42.484583400" lon="-2.502956570">
        <ele>510.12</ele>
        <time>2014-11-08T07:34:29Z</time>
      </trkpt>
      <trkpt lat="42.484565710" lon="-2.502973830">
        <ele>510.12</ele>
        <time>2014-11-08T07:34:49Z</time>
      </trkpt>
      <trkpt lat="42.484565290" lon="-2.502986570">
        <ele>510.12</ele>
        <time>2014-11-08T07:35:10Z</time>
      </trkpt>
      <trkpt lat="42.484568140" lon="-2.502968130">
        <ele>510.12</ele>
        <time>2014-11-08T07:35:34Z</time>
      </trkpt>
      <trkpt lat="42.484567640" lon="-2.502993280">
        <ele>510.12</ele>
        <time>2014-11-08T07:35:36Z</time>
      </trkpt>
      <trkpt lat="42.484572000" lon="-2.503021610">
        <ele>510.12</ele>
        <time>2014-11-08T07:35:37Z</time>
      </trkpt>
      <trkpt lat="42.484578370" lon="-2.503057230">
        <ele>509.64</ele>
        <time>2014-11-08T07:35:38Z</time>
      </trkpt>
      <trkpt lat="42.484587510" lon="-2.503138870">
        <ele>509.16</ele>
        <time>2014-11-08T07:35:40Z</time>
      </trkpt>
      <trkpt lat="42.484586580" lon="-2.503169720">
        <ele>509.16</ele>
        <time>2014-11-08T07:35:41Z</time>
      </trkpt>
      <trkpt lat="42.484580880" lon="-2.503172490">
        <ele>508.67</ele>
        <time>2014-11-08T07:35:55Z</time>
      </trkpt>
      <trkpt lat="42.484586160" lon="-2.503186320">
        <ele>508.67</ele>
        <time>2014-11-08T07:36:13Z</time>
      </trkpt>
      <trkpt lat="42.484585330" lon="-2.503201320">
        <ele>508.19</ele>
        <time>2014-11-08T07:36:20Z</time>
      </trkpt>
      <trkpt lat="42.484590520" lon="-2.503216150">
        <ele>508.19</ele>
        <time>2014-11-08T07:36:21Z</time>
      </trkpt>
      <trkpt lat="42.484597400" lon="-2.503235680">
        <ele>508.19</ele>
        <time>2014-11-08T07:36:22Z</time>
      </trkpt>
      <trkpt lat="42.484601920" lon="-2.503262760">
        <ele>508.19</ele>
        <time>2014-11-08T07:36:23Z</time>
      </trkpt>
      <trkpt lat="42.484601170" lon="-2.503294860">
        <ele>508.19</ele>
        <time>2014-11-08T07:36:24Z</time>
      </trkpt>
      <trkpt lat="42.484599830" lon="-2.503329560">
        <ele>508.19</ele>
        <time>2014-11-08T07:36:25Z</time>
      </trkpt>
      <trkpt lat="42.484600920" lon="-2.503371640">
        <ele>508.19</ele>
        <time>2014-11-08T07:36:26Z</time>
      </trkpt>
      <trkpt lat="42.484600670" lon="-2.503423270">
        <ele>508.19</ele>
        <time>2014-11-08T07:36:27Z</time>
      </trkpt>
      <trkpt lat="42.484594290" lon="-2.503484210">
        <ele>508.19</ele>
        <time>2014-11-08T07:36:28Z</time>
      </trkpt>
      <trkpt lat="42.484584910" lon="-2.503549750">
        <ele>508.19</ele>
        <time>2014-11-08T07:36:29Z</time>
      </trkpt>
      <trkpt lat="42.484570990" lon="-2.503828120">
        <ele>508.19</ele>
        <time>2014-11-08T07:36:33Z</time>
      </trkpt>
      <trkpt lat="42.484670990" lon="-2.504402780">
        <ele>509.64</ele>
        <time>2014-11-08T07:36:40Z</time>
      </trkpt>
      <trkpt lat="42.484695130" lon="-2.504477800">
        <ele>509.64</ele>
        <time>2014-11-08T07:36:41Z</time>
      </trkpt>
      <trkpt lat="42.484725810" lon="-2.504547120">
        <ele>509.64</ele>
        <time>2014-11-08T07:36:42Z</time>
      </trkpt>
      <trkpt lat="42.484761510" lon="-2.504611410">
        <ele>509.64</ele>
        <time>2014-11-08T07:36:43Z</time>
      </trkpt>
      <trkpt lat="42.484801410" lon="-2.504670750">
        <ele>509.64</ele>
        <time>2014-11-08T07:36:44Z</time>
      </trkpt>
      <trkpt lat="42.484881460" lon="-2.504786500">
        <ele>510.12</ele>
        <time>2014-11-08T07:36:46Z</time>
      </trkpt>
      <trkpt lat="42.484920940" lon="-2.504845090">
        <ele>510.12</ele>
        <time>2014-11-08T07:36:47Z</time>
      </trkpt>
      <trkpt lat="42.484999480" lon="-2.504965790">
        <ele>510.12</ele>
        <time>2014-11-08T07:36:49Z</time>
      </trkpt>
      <trkpt lat="42.485030990" lon="-2.505039220">
        <ele>510.12</ele>
        <time>2014-11-08T07:36:50Z</time>
      </trkpt>
      <trkpt lat="42.485054630" lon="-2.505119600">
        <ele>510.12</ele>
        <time>2014-11-08T07:36:51Z</time>
      </trkpt>
      <trkpt lat="42.485072310" lon="-2.505201240">
        <ele>510.12</ele>
        <time>2014-11-08T07:36:52Z</time>
      </trkpt>
      <trkpt lat="42.485085890" lon="-2.505285900">
        <ele>510.12</ele>
        <time>2014-11-08T07:36:53Z</time>
      </trkpt>
      <trkpt lat="42.485104840" lon="-2.505466110">
        <ele>508.67</ele>
        <time>2014-11-08T07:36:55Z</time>
      </trkpt>
      <trkpt lat="42.485118420" lon="-2.505667110">
        <ele>508.19</ele>
        <time>2014-11-08T07:36:57Z</time>
      </trkpt>
      <trkpt lat="42.485125370" lon="-2.505878330">
        <ele>507.71</ele>
        <time>2014-11-08T07:36:59Z</time>
      </trkpt>
      <trkpt lat="42.485192850" lon="-2.506576710">
        <ele>504.35</ele>
        <time>2014-11-08T07:37:05Z</time>
      </trkpt>
      <trkpt lat="42.485301220" lon="-2.507436280">
        <ele>501.95</ele>
        <time>2014-11-08T07:37:13Z</time>
      </trkpt>
      <trkpt lat="42.485425780" lon="-2.507934910">
        <ele>501.46</ele>
        <time>2014-11-08T07:37:18Z</time>
      </trkpt>
      <trkpt lat="42.485503560" lon="-2.508126690">
        <ele>500.98</ele>
        <time>2014-11-08T07:37:20Z</time>
      </trkpt>
      <trkpt lat="42.485554020" lon="-2.508214620">
        <ele>500.98</ele>
        <time>2014-11-08T07:37:21Z</time>
      </trkpt>
      <trkpt lat="42.485610520" lon="-2.508294080">
        <ele>500.98</ele>
        <time>2014-11-08T07:37:22Z</time>
      </trkpt>
      <trkpt lat="42.485714870" lon="-2.508448060">
        <ele>501.46</ele>
        <time>2014-11-08T07:37:24Z</time>
      </trkpt>
      <trkpt lat="42.485751250" lon="-2.508533220">
        <ele>501.46</ele>
        <time>2014-11-08T07:37:25Z</time>
      </trkpt>
      <trkpt lat="42.485774470" lon="-2.508621900">
        <ele>501.46</ele>
        <time>2014-11-08T07:37:26Z</time>
      </trkpt>
      <trkpt lat="42.485791980" lon="-2.508709910">
        <ele>501.46</ele>
        <time>2014-11-08T07:37:27Z</time>
      </trkpt>
      <trkpt lat="42.485812600" lon="-2.508799590">
        <ele>501.46</ele>
        <time>2014-11-08T07:37:28Z</time>
      </trkpt>
      <trkpt lat="42.485838840" lon="-2.508887020">
        <ele>501.46</ele>
        <time>2014-11-08T07:37:29Z</time>
      </trkpt>
      <trkpt lat="42.485947800" lon="-2.509134950">
        <ele>501.46</ele>
        <time>2014-11-08T07:37:32Z</time>
      </trkpt>
      <trkpt lat="42.485994490" lon="-2.509207040">
        <ele>501.46</ele>
        <time>2014-11-08T07:37:33Z</time>
      </trkpt>
      <trkpt lat="42.486088120" lon="-2.509338880">
        <ele>501.46</ele>
        <time>2014-11-08T07:37:35Z</time>
      </trkpt>
      <trkpt lat="42.486123150" lon="-2.509413230">
        <ele>501.46</ele>
        <time>2014-11-08T07:37:36Z</time>
      </trkpt>
      <trkpt lat="42.486140500" lon="-2.509494700">
        <ele>501.46</ele>
        <time>2014-11-08T07:37:37Z</time>
      </trkpt>
      <trkpt lat="42.486141010" lon="-2.509580620">
        <ele>501.46</ele>
        <time>2014-11-08T07:37:38Z</time>
      </trkpt>
      <trkpt lat="42.486127600" lon="-2.509661170">
        <ele>501.46</ele>
        <time>2014-11-08T07:37:39Z</time>
      </trkpt>
      <trkpt lat="42.486105970" lon="-2.509736270">
        <ele>501.46</ele>
        <time>2014-11-08T07:37:40Z</time>
      </trkpt>
      <trkpt lat="42.486083930" lon="-2.509813720">
        <ele>501.46</ele>
        <time>2014-11-08T07:37:41Z</time>
      </trkpt>
      <trkpt lat="42.486068920" lon="-2.509892590">
        <ele>501.46</ele>
        <time>2014-11-08T07:37:42Z</time>
      </trkpt>
      <trkpt lat="42.486058450" lon="-2.509970380">
        <ele>502.43</ele>
        <time>2014-11-08T07:37:43Z</time>
      </trkpt>
      <trkpt lat="42.486043440" lon="-2.510113540">
        <ele>502.91</ele>
        <time>2014-11-08T07:37:45Z</time>
      </trkpt>
      <trkpt lat="42.486043780" lon="-2.510244050">
        <ele>503.87</ele>
        <time>2014-11-08T07:37:47Z</time>
      </trkpt>
      <trkpt lat="42.486048300" lon="-2.510305400">
        <ele>503.87</ele>
        <time>2014-11-08T07:37:48Z</time>
      </trkpt>
      <trkpt lat="42.486086190" lon="-2.510807980">
        <ele>503.87</ele>
        <time>2014-11-08T07:37:57Z</time>
      </trkpt>
      <trkpt lat="42.486105220" lon="-2.510864310">
        <ele>503.87</ele>
        <time>2014-11-08T07:37:58Z</time>
      </trkpt>
      <trkpt lat="42.486129860" lon="-2.510924400">
        <ele>503.87</ele>
        <time>2014-11-08T07:37:59Z</time>
      </trkpt>
      <trkpt lat="42.486161540" lon="-2.510987350">
        <ele>502.43</ele>
        <time>2014-11-08T07:38:00Z</time>
      </trkpt>
      <trkpt lat="42.486200270" lon="-2.511054070">
        <ele>501.95</ele>
        <time>2014-11-08T07:38:01Z</time>
      </trkpt>
      <trkpt lat="42.486437560" lon="-2.511460590">
        <ele>499.06</ele>
        <time>2014-11-08T07:38:06Z</time>
      </trkpt>
      <trkpt lat="42.486534620" lon="-2.511670230">
        <ele>497.14</ele>
        <time>2014-11-08T07:38:08Z</time>
      </trkpt>
      <trkpt lat="42.486573600" lon="-2.511791600">
        <ele>495.70</ele>
        <time>2014-11-08T07:38:09Z</time>
      </trkpt>
      <trkpt lat="42.486604530" lon="-2.511926460">
        <ele>494.74</ele>
        <time>2014-11-08T07:38:10Z</time>
      </trkpt>
      <trkpt lat="42.486622380" lon="-2.512071890">
        <ele>493.29</ele>
        <time>2014-11-08T07:38:11Z</time>
      </trkpt>
      <trkpt lat="42.486623050" lon="-2.512220160">
        <ele>492.33</ele>
        <time>2014-11-08T07:38:12Z</time>
      </trkpt>
      <trkpt lat="42.486620870" lon="-2.512368610">
        <ele>490.89</ele>
        <time>2014-11-08T07:38:13Z</time>
      </trkpt>
      <trkpt lat="42.486625650" lon="-2.512519060">
        <ele>490.41</ele>
        <time>2014-11-08T07:38:14Z</time>
      </trkpt>
      <trkpt lat="42.486643920" lon="-2.512676220">
        <ele>489.45</ele>
        <time>2014-11-08T07:38:15Z</time>
      </trkpt>
      <trkpt lat="42.486676690" lon="-2.512834220">
        <ele>487.53</ele>
        <time>2014-11-08T07:38:16Z</time>
      </trkpt>
      <trkpt lat="42.486790600" lon="-2.513250130">
        <ele>485.12</ele>
        <time>2014-11-08T07:38:19Z</time>
      </trkpt>
      <trkpt lat="42.486806030" lon="-2.513390030">
        <ele>483.20</ele>
        <time>2014-11-08T07:38:20Z</time>
      </trkpt>
      <trkpt lat="42.486809210" lon="-2.513536790">
        <ele>482.24</ele>
        <time>2014-11-08T07:38:21Z</time>
      </trkpt>
      <trkpt lat="42.486802090" lon="-2.513684980">
        <ele>481.76</ele>
        <time>2014-11-08T07:38:22Z</time>
      </trkpt>
      <trkpt lat="42.486788680" lon="-2.513836190">
        <ele>480.32</ele>
        <time>2014-11-08T07:38:23Z</time>
      </trkpt>
      <trkpt lat="42.486687590" lon="-2.514457210">
        <ele>475.99</ele>
        <time>2014-11-08T07:38:27Z</time>
      </trkpt>
      <trkpt lat="42.486657580" lon="-2.514791560">
        <ele>474.07</ele>
        <time>2014-11-08T07:38:29Z</time>
      </trkpt>
      <trkpt lat="42.486662450" lon="-2.514958870">
        <ele>472.63</ele>
        <time>2014-11-08T07:38:30Z</time>
      </trkpt>
      <trkpt lat="42.486679460" lon="-2.515127260">
        <ele>471.66</ele>
        <time>2014-11-08T07:38:31Z</time>
      </trkpt>
      <trkpt lat="42.486753220" lon="-2.515631260">
        <ele>468.30</ele>
        <time>2014-11-08T07:38:34Z</time>
      </trkpt>
      <trkpt lat="42.486861010" lon="-2.516127390">
        <ele>465.42</ele>
        <time>2014-11-08T07:38:37Z</time>
      </trkpt>
      <trkpt lat="42.487097300" lon="-2.516737250">
        <ele>462.05</ele>
        <time>2014-11-08T07:38:41Z</time>
      </trkpt>
      <trkpt lat="42.487370380" lon="-2.517289540">
        <ele>458.69</ele>
        <time>2014-11-08T07:38:45Z</time>
      </trkpt>
      <trkpt lat="42.487613790" lon="-2.517661020">
        <ele>455.80</ele>
        <time>2014-11-08T07:38:48Z</time>
      </trkpt>
      <trkpt lat="42.487709680" lon="-2.517760850">
        <ele>454.84</ele>
        <time>2014-11-08T07:38:49Z</time>
      </trkpt>
      <trkpt lat="42.488124420" lon="-2.518092360">
        <ele>451.00</ele>
        <time>2014-11-08T07:38:53Z</time>
      </trkpt>
      <trkpt lat="42.488238910" lon="-2.518139880">
        <ele>450.03</ele>
        <time>2014-11-08T07:38:54Z</time>
      </trkpt>
      <trkpt lat="42.488358360" lon="-2.518170140">
        <ele>449.07</ele>
        <time>2014-11-08T07:38:55Z</time>
      </trkpt>
      <trkpt lat="42.488962860" lon="-2.518288240">
        <ele>445.71</ele>
        <time>2014-11-08T07:39:00Z</time>
      </trkpt>
      <trkpt lat="42.489441050" lon="-2.518313140">
        <ele>442.82</ele>
        <time>2014-11-08T07:39:04Z</time>
      </trkpt>
      <trkpt lat="42.490217550" lon="-2.518405090">
        <ele>439.46</ele>
        <time>2014-11-08T07:39:11Z</time>
      </trkpt>
      <trkpt lat="42.490313100" lon="-2.518460990">
        <ele>438.50</ele>
        <time>2014-11-08T07:39:12Z</time>
      </trkpt>
      <trkpt lat="42.490401700" lon="-2.518542300">
        <ele>437.54</ele>
        <time>2014-11-08T07:39:13Z</time>
      </trkpt>
      <trkpt lat="42.490487190" lon="-2.518628710">
        <ele>436.58</ele>
        <time>2014-11-08T07:39:14Z</time>
      </trkpt>
      <trkpt lat="42.490572850" lon="-2.518703230">
        <ele>436.10</ele>
        <time>2014-11-08T07:39:15Z</time>
      </trkpt>
      <trkpt lat="42.490662630" lon="-2.518765930">
        <ele>435.61</ele>
        <time>2014-11-08T07:39:16Z</time>
      </trkpt>
      <trkpt lat="42.490756590" lon="-2.518822590">
        <ele>435.13</ele>
        <time>2014-11-08T07:39:17Z</time>
      </trkpt>
      <trkpt lat="42.490852890" lon="-2.518876060">
        <ele>435.13</ele>
        <time>2014-11-08T07:39:18Z</time>
      </trkpt>
      <trkpt lat="42.491030000" lon="-2.518964490">
        <ele>434.17</ele>
        <time>2014-11-08T07:39:20Z</time>
      </trkpt>
      <trkpt lat="42.491099240" lon="-2.519004390">
        <ele>434.17</ele>
        <time>2014-11-08T07:39:21Z</time>
      </trkpt>
      <trkpt lat="42.491160850" lon="-2.519041860">
        <ele>434.17</ele>
        <time>2014-11-08T07:39:22Z</time>
      </trkpt>
      <trkpt lat="42.491267380" lon="-2.519132220">
        <ele>434.17</ele>
        <time>2014-11-08T07:39:24Z</time>
      </trkpt>
      <trkpt lat="42.491302160" lon="-2.519177480">
        <ele>434.17</ele>
        <time>2014-11-08T07:39:25Z</time>
      </trkpt>
      <trkpt lat="42.491322780" lon="-2.519209330">
        <ele>434.17</ele>
        <time>2014-11-08T07:39:26Z</time>
      </trkpt>
      <trkpt lat="42.491337280" lon="-2.519230790">
        <ele>434.17</ele>
        <time>2014-11-08T07:39:27Z</time>
      </trkpt>
      <trkpt lat="42.491356060" lon="-2.519248560">
        <ele>434.17</ele>
        <time>2014-11-08T07:39:28Z</time>
      </trkpt>
      <trkpt lat="42.491377690" lon="-2.519268920">
        <ele>434.17</ele>
        <time>2014-11-08T07:39:29Z</time>
      </trkpt>
      <trkpt lat="42.491386490" lon="-2.519283090">
        <ele>434.65</ele>
        <time>2014-11-08T07:39:37Z</time>
      </trkpt>
      <trkpt lat="42.491367120" lon="-2.519308820">
        <ele>434.65</ele>
        <time>2014-11-08T07:39:55Z</time>
      </trkpt>
      <trkpt lat="42.491361930" lon="-2.519297170">
        <ele>434.17</ele>
        <time>2014-11-08T07:40:11Z</time>
      </trkpt>
      <trkpt lat="42.491360420" lon="-2.519284850">
        <ele>434.17</ele>
        <time>2014-11-08T07:40:12Z</time>
      </trkpt>
      <trkpt lat="42.491361260" lon="-2.519271940">
        <ele>434.17</ele>
        <time>2014-11-08T07:40:13Z</time>
      </trkpt>
      <trkpt lat="42.491366450" lon="-2.519178150">
        <ele>434.17</ele>
        <time>2014-11-08T07:40:29Z</time>
      </trkpt>
      <trkpt lat="42.491369720" lon="-2.519174630">
        <ele>434.17</ele>
        <time>2014-11-08T07:40:44Z</time>
      </trkpt>
      <trkpt lat="42.491392770" lon="-2.519197430">
        <ele>434.17</ele>
        <time>2014-11-08T07:40:57Z</time>
      </trkpt>
      <trkpt lat="42.491387410" lon="-2.519199100">
        <ele>434.17</ele>
        <time>2014-11-08T07:41:08Z</time>
      </trkpt>
      <trkpt lat="42.491363180" lon="-2.519224080">
        <ele>434.17</ele>
        <time>2014-11-08T07:41:20Z</time>
      </trkpt>
      <trkpt lat="42.491366370" lon="-2.519224920">
        <ele>434.17</ele>
        <time>2014-11-08T07:41:38Z</time>
      </trkpt>
      <trkpt lat="42.491347930" lon="-2.519217120">
        <ele>434.17</ele>
        <time>2014-11-08T07:41:48Z</time>
      </trkpt>
      <trkpt lat="42.491330330" lon="-2.519283760">
        <ele>434.17</ele>
        <time>2014-11-08T07:41:52Z</time>
      </trkpt>
      <trkpt lat="42.491337540" lon="-2.519308820">
        <ele>434.17</ele>
        <time>2014-11-08T07:41:53Z</time>
      </trkpt>
      <trkpt lat="42.491340050" lon="-2.519338830">
        <ele>434.17</ele>
        <time>2014-11-08T07:41:54Z</time>
      </trkpt>
      <trkpt lat="42.491333090" lon="-2.519371100">
        <ele>434.17</ele>
        <time>2014-11-08T07:41:55Z</time>
      </trkpt>
      <trkpt lat="42.491315910" lon="-2.519395990">
        <ele>434.17</ele>
        <time>2014-11-08T07:41:56Z</time>
      </trkpt>
      <trkpt lat="42.491289930" lon="-2.519407560">
        <ele>434.17</ele>
        <time>2014-11-08T07:41:57Z</time>
      </trkpt>
      <trkpt lat="42.491259420" lon="-2.519406810">
        <ele>434.17</ele>
        <time>2014-11-08T07:41:58Z</time>
      </trkpt>
      <trkpt lat="42.491231760" lon="-2.519399770">
        <ele>434.17</ele>
        <time>2014-11-08T07:41:59Z</time>
      </trkpt>
      <trkpt lat="42.490927580" lon="-2.519373700">
        <ele>434.17</ele>
        <time>2014-11-08T07:42:09Z</time>
      </trkpt>
      <trkpt lat="42.490798580" lon="-2.519436140">
        <ele>434.17</ele>
        <time>2014-11-08T07:42:12Z</time>
      </trkpt>
      <trkpt lat="42.490337830" lon="-2.519562120">
        <ele>437.54</ele>
        <time>2014-11-08T07:42:23Z</time>
      </trkpt>
      <trkpt lat="42.489830720" lon="-2.519666980">
        <ele>438.98</ele>
        <time>2014-11-08T07:42:39Z</time>
      </trkpt>
      <trkpt lat="42.489263350" lon="-2.519803270">
        <ele>438.98</ele>
        <time>2014-11-08T07:42:55Z</time>
      </trkpt>
      <trkpt lat="42.488411160" lon="-2.520226310">
        <ele>440.90</ele>
        <time>2014-11-08T07:43:17Z</time>
      </trkpt>
      <trkpt lat="42.487869940" lon="-2.520581360">
        <ele>443.31</ele>
        <time>2014-11-08T07:43:32Z</time>
      </trkpt>
      <trkpt lat="42.487214900" lon="-2.520947570">
        <ele>443.31</ele>
        <time>2014-11-08T07:43:47Z</time>
      </trkpt>
      <trkpt lat="42.486628250" lon="-2.521109090">
        <ele>443.79</ele>
        <time>2014-11-08T07:44:04Z</time>
      </trkpt>
      <trkpt lat="42.486616600" lon="-2.521101290">
        <ele>443.79</ele>
        <time>2014-11-08T07:44:15Z</time>
      </trkpt>
      <trkpt lat="42.486575440" lon="-2.521120910">
        <ele>443.79</ele>
        <time>2014-11-08T07:44:26Z</time>
      </trkpt>
      <trkpt lat="42.486571420" lon="-2.521123000">
        <ele>443.79</ele>
        <time>2014-11-08T07:44:45Z</time>
      </trkpt>
      <trkpt lat="42.486583740" lon="-2.521113610">
        <ele>443.79</ele>
        <time>2014-11-08T07:45:11Z</time>
      </trkpt>
      <trkpt lat="42.486576200" lon="-2.521128110">
        <ele>443.79</ele>
        <time>2014-11-08T07:45:34Z</time>
      </trkpt>
      <trkpt lat="42.486573180" lon="-2.521123590">
        <ele>443.79</ele>
        <time>2014-11-08T07:45:44Z</time>
      </trkpt>
      <trkpt lat="42.486447110" lon="-2.521123590">
        <ele>443.79</ele>
        <time>2014-11-08T07:45:50Z</time>
      </trkpt>
      <trkpt lat="42.486320970" lon="-2.521124170">
        <ele>442.34</ele>
        <time>2014-11-08T07:45:53Z</time>
      </trkpt>
      <trkpt lat="42.486094320" lon="-2.521218640">
        <ele>440.42</ele>
        <time>2014-11-08T07:45:57Z</time>
      </trkpt>
      <trkpt lat="42.485821320" lon="-2.521557270">
        <ele>437.06</ele>
        <time>2014-11-08T07:46:02Z</time>
      </trkpt>
      <trkpt lat="42.485558300" lon="-2.522067470">
        <ele>433.21</ele>
        <time>2014-11-08T07:46:07Z</time>
      </trkpt>
      <trkpt lat="42.485298790" lon="-2.522530070">
        <ele>429.85</ele>
        <time>2014-11-08T07:46:11Z</time>
      </trkpt>
      <trkpt lat="42.485023280" lon="-2.523017480">
        <ele>425.52</ele>
        <time>2014-11-08T07:46:15Z</time>
      </trkpt>
      <trkpt lat="42.484699570" lon="-2.523499440">
        <ele>422.16</ele>
        <time>2014-11-08T07:46:19Z</time>
      </trkpt>
      <trkpt lat="42.484360360" lon="-2.523997490">
        <ele>417.83</ele>
        <time>2014-11-08T07:46:23Z</time>
      </trkpt>
      <trkpt lat="42.484191540" lon="-2.524256070">
        <ele>415.43</ele>
        <time>2014-11-08T07:46:25Z</time>
      </trkpt>
      <trkpt lat="42.483995740" lon="-2.524844820">
        <ele>411.10</ele>
        <time>2014-11-08T07:46:29Z</time>
      </trkpt>
      <trkpt lat="42.484005210" lon="-2.525179670">
        <ele>408.70</ele>
        <time>2014-11-08T07:46:31Z</time>
      </trkpt>
      <trkpt lat="42.484030030" lon="-2.525524760">
        <ele>406.77</ele>
        <time>2014-11-08T07:46:33Z</time>
      </trkpt>
      <trkpt lat="42.484027850" lon="-2.525695750">
        <ele>405.81</ele>
        <time>2014-11-08T07:46:34Z</time>
      </trkpt>
      <trkpt lat="42.483981750" lon="-2.526571660">
        <ele>403.41</ele>
        <time>2014-11-08T07:46:41Z</time>
      </trkpt>
      <trkpt lat="42.483967160" lon="-2.526671910">
        <ele>402.93</ele>
        <time>2014-11-08T07:46:42Z</time>
      </trkpt>
      <trkpt lat="42.483941260" lon="-2.526867290">
        <ele>402.45</ele>
        <time>2014-11-08T07:46:44Z</time>
      </trkpt>
      <trkpt lat="42.483908070" lon="-2.526955380">
        <ele>402.45</ele>
        <time>2014-11-08T07:46:45Z</time>
      </trkpt>
      <trkpt lat="42.483816370" lon="-2.527126620">
        <ele>401.97</ele>
        <time>2014-11-08T07:46:47Z</time>
      </trkpt>
      <trkpt lat="42.483518310" lon="-2.527883340">
        <ele>398.60</ele>
        <time>2014-11-08T07:46:55Z</time>
      </trkpt>
      <trkpt lat="42.483040630" lon="-2.529075420">
        <ele>397.64</ele>
        <time>2014-11-08T07:47:09Z</time>
      </trkpt>
      <trkpt lat="42.482437550" lon="-2.530504360">
        <ele>398.60</ele>
        <time>2014-11-08T07:47:27Z</time>
      </trkpt>
      <trkpt lat="42.482208970" lon="-2.530837460">
        <ele>398.60</ele>
        <time>2014-11-08T07:47:32Z</time>
      </trkpt>
      <trkpt lat="42.482172600" lon="-2.530909120">
        <ele>397.64</ele>
        <time>2014-11-08T07:47:33Z</time>
      </trkpt>
      <trkpt lat="42.481895910" lon="-2.531718730">
        <ele>397.64</ele>
        <time>2014-11-08T07:47:44Z</time>
      </trkpt>
      <trkpt lat="42.481705390" lon="-2.532852970">
        <ele>399.57</ele>
        <time>2014-11-08T07:48:01Z</time>
      </trkpt>
      <trkpt lat="42.481618220" lon="-2.534050490">
        <ele>399.08</ele>
        <time>2014-11-08T07:48:19Z</time>
      </trkpt>
      <trkpt lat="42.481478240" lon="-2.535222370">
        <ele>399.08</ele>
        <time>2014-11-08T07:48:37Z</time>
      </trkpt>
      <trkpt lat="42.481391570" lon="-2.536562470">
        <ele>399.08</ele>
        <time>2014-11-08T07:48:56Z</time>
      </trkpt>
      <trkpt lat="42.481355700" lon="-2.537029590">
        <ele>399.08</ele>
        <time>2014-11-08T07:49:03Z</time>
      </trkpt>
      <trkpt lat="42.481348240" lon="-2.537087680">
        <ele>399.08</ele>
        <time>2014-11-08T07:49:04Z</time>
      </trkpt>
      <trkpt lat="42.481292160" lon="-2.537820000">
        <ele>399.08</ele>
        <time>2014-11-08T07:49:19Z</time>
      </trkpt>
      <trkpt lat="42.481340520" lon="-2.538504470">
        <ele>399.08</ele>
        <time>2014-11-08T07:49:34Z</time>
      </trkpt>
      <trkpt lat="42.481449400" lon="-2.539398480">
        <ele>399.08</ele>
        <time>2014-11-08T07:49:50Z</time>
      </trkpt>
      <trkpt lat="42.481472200" lon="-2.540121760">
        <ele>399.08</ele>
        <time>2014-11-08T07:50:02Z</time>
      </trkpt>
      <trkpt lat="42.481497270" lon="-2.540169030">
        <ele>399.08</ele>
        <time>2014-11-08T07:50:03Z</time>
      </trkpt>
      <trkpt lat="42.481535400" lon="-2.540199040">
        <ele>399.08</ele>
        <time>2014-11-08T07:50:04Z</time>
      </trkpt>
      <trkpt lat="42.481583850" lon="-2.540208680">
        <ele>399.08</ele>
        <time>2014-11-08T07:50:05Z</time>
      </trkpt>
      <trkpt lat="42.481632550" lon="-2.540205160">
        <ele>399.08</ele>
        <time>2014-11-08T07:50:06Z</time>
      </trkpt>
      <trkpt lat="42.481681080" lon="-2.540200880">
        <ele>399.08</ele>
        <time>2014-11-08T07:50:07Z</time>
      </trkpt>
      <trkpt lat="42.481729190" lon="-2.540198790">
        <ele>399.08</ele>
        <time>2014-11-08T07:50:08Z</time>
      </trkpt>
      <trkpt lat="42.481961620" lon="-2.540189990">
        <ele>399.08</ele>
        <time>2014-11-08T07:50:13Z</time>
      </trkpt>
      <trkpt lat="42.482006470" lon="-2.540186630">
        <ele>399.08</ele>
        <time>2014-11-08T07:50:14Z</time>
      </trkpt>
      <trkpt lat="42.482399240" lon="-2.540162910">
        <ele>399.08</ele>
        <time>2014-11-08T07:50:22Z</time>
      </trkpt>
      <trkpt lat="42.482448360" lon="-2.540180770">
        <ele>399.08</ele>
        <time>2014-11-08T07:50:23Z</time>
      </trkpt>
      <trkpt lat="42.482493960" lon="-2.540208680">
        <ele>397.64</ele>
        <time>2014-11-08T07:50:24Z</time>
      </trkpt>
      <trkpt lat="42.482540310" lon="-2.540234160">
        <ele>397.64</ele>
        <time>2014-11-08T07:50:25Z</time>
      </trkpt>
      <trkpt lat="42.482591520" lon="-2.540251510">
        <ele>397.64</ele>
        <time>2014-11-08T07:50:26Z</time>
      </trkpt>
      <trkpt lat="42.482644080" lon="-2.540264670">
        <ele>397.16</ele>
        <time>2014-11-08T07:50:27Z</time>
      </trkpt>
      <trkpt lat="42.482748940" lon="-2.540290400">
        <ele>397.16</ele>
        <time>2014-11-08T07:50:29Z</time>
      </trkpt>
      <trkpt lat="42.482798140" lon="-2.540315970">
        <ele>397.16</ele>
        <time>2014-11-08T07:50:30Z</time>
      </trkpt>
      <trkpt lat="42.482840130" lon="-2.540354690">
        <ele>397.16</ele>
        <time>2014-11-08T07:50:31Z</time>
      </trkpt>
      <trkpt lat="42.482873070" lon="-2.540403390">
        <ele>397.16</ele>
        <time>2014-11-08T07:50:32Z</time>
      </trkpt>
      <trkpt lat="42.482898300" lon="-2.540463070">
        <ele>397.16</ele>
        <time>2014-11-08T07:50:33Z</time>
      </trkpt>
      <trkpt lat="42.482914900" lon="-2.540528030">
        <ele>397.16</ele>
        <time>2014-11-08T07:50:34Z</time>
      </trkpt>
      <trkpt lat="42.482925120" lon="-2.540595250">
        <ele>397.16</ele>
        <time>2014-11-08T07:50:35Z</time>
      </trkpt>
      <trkpt lat="42.482932920" lon="-2.540659540">
        <ele>397.16</ele>
        <time>2014-11-08T07:50:36Z</time>
      </trkpt>
      <trkpt lat="42.482970640" lon="-2.541533610">
        <ele>397.16</ele>
        <time>2014-11-08T07:50:49Z</time>
      </trkpt>
      <trkpt lat="42.482967540" lon="-2.541599990">
        <ele>396.68</ele>
        <time>2014-11-08T07:50:50Z</time>
      </trkpt>
      <trkpt lat="42.482972980" lon="-2.541665790">
        <ele>396.68</ele>
        <time>2014-11-08T07:50:51Z</time>
      </trkpt>
      <trkpt lat="42.482985300" lon="-2.541731500">
        <ele>396.68</ele>
        <time>2014-11-08T07:50:52Z</time>
      </trkpt>
      <trkpt lat="42.483002400" lon="-2.541790680">
        <ele>396.68</ele>
        <time>2014-11-08T07:50:53Z</time>
      </trkpt>
      <trkpt lat="42.483019920" lon="-2.541846170">
        <ele>396.68</ele>
        <time>2014-11-08T07:50:54Z</time>
      </trkpt>
      <trkpt lat="42.483033080" lon="-2.541903920">
        <ele>396.68</ele>
        <time>2014-11-08T07:50:55Z</time>
      </trkpt>
      <trkpt lat="42.483045650" lon="-2.541962340">
        <ele>396.68</ele>
        <time>2014-11-08T07:50:56Z</time>
      </trkpt>
      <trkpt lat="42.483057980" lon="-2.542018250">
        <ele>396.68</ele>
        <time>2014-11-08T07:50:57Z</time>
      </trkpt>
      <trkpt lat="42.483209600" lon="-2.543229940">
        <ele>396.68</ele>
        <time>2014-11-08T07:51:17Z</time>
      </trkpt>
      <trkpt lat="42.483325190" lon="-2.544243560">
        <ele>396.68</ele>
        <time>2014-11-08T07:51:32Z</time>
      </trkpt>
      <trkpt lat="42.483388470" lon="-2.545155680">
        <ele>396.20</ele>
        <time>2014-11-08T07:51:45Z</time>
      </trkpt>
      <trkpt lat="42.483264340" lon="-2.546208530">
        <ele>395.72</ele>
        <time>2014-11-08T07:52:01Z</time>
      </trkpt>
      <trkpt lat="42.483187060" lon="-2.547270100">
        <ele>395.72</ele>
        <time>2014-11-08T07:52:19Z</time>
      </trkpt>
      <trkpt lat="42.483110450" lon="-2.548077860">
        <ele>395.72</ele>
        <time>2014-11-08T07:52:33Z</time>
      </trkpt>
      <trkpt lat="42.483103070" lon="-2.548134440">
        <ele>395.72</ele>
        <time>2014-11-08T07:52:34Z</time>
      </trkpt>
      <trkpt lat="42.483022020" lon="-2.549059130">
        <ele>394.76</ele>
        <time>2014-11-08T07:52:49Z</time>
      </trkpt>
      <trkpt lat="42.482910200" lon="-2.549692720">
        <ele>394.76</ele>
        <time>2014-11-08T07:52:59Z</time>
      </trkpt>
      <trkpt lat="42.482895200" lon="-2.549746530">
        <ele>394.76</ele>
        <time>2014-11-08T07:53:00Z</time>
      </trkpt>
      <trkpt lat="42.482872480" lon="-2.549852310">
        <ele>394.76</ele>
        <time>2014-11-08T07:53:02Z</time>
      </trkpt>
      <trkpt lat="42.482839210" lon="-2.550016010">
        <ele>394.76</ele>
        <time>2014-11-08T07:53:05Z</time>
      </trkpt>
      <trkpt lat="42.482824370" lon="-2.550069570">
        <ele>394.76</ele>
        <time>2014-11-08T07:53:06Z</time>
      </trkpt>
      <trkpt lat="42.482729570" lon="-2.550613220">
        <ele>395.72</ele>
        <time>2014-11-08T07:53:16Z</time>
      </trkpt>
      <trkpt lat="42.482709460" lon="-2.551598340">
        <ele>395.72</ele>
        <time>2014-11-08T07:53:33Z</time>
      </trkpt>
      <trkpt lat="42.482689090" lon="-2.552323380">
        <ele>395.72</ele>
        <time>2014-11-08T07:53:45Z</time>
      </trkpt>
      <trkpt lat="42.482887490" lon="-2.553127790">
        <ele>395.72</ele>
        <time>2014-11-08T07:53:59Z</time>
      </trkpt>
      <trkpt lat="42.482957730" lon="-2.553294420">
        <ele>395.72</ele>
        <time>2014-11-08T07:54:02Z</time>
      </trkpt>
      <trkpt lat="42.482983630" lon="-2.553342200">
        <ele>395.72</ele>
        <time>2014-11-08T07:54:03Z</time>
      </trkpt>
      <trkpt lat="42.483005920" lon="-2.553390140">
        <ele>395.72</ele>
        <time>2014-11-08T07:54:04Z</time>
      </trkpt>
      <trkpt lat="42.483032660" lon="-2.553435070">
        <ele>395.72</ele>
        <time>2014-11-08T07:54:05Z</time>
      </trkpt>
      <trkpt lat="42.483061330" lon="-2.553481250">
        <ele>395.72</ele>
        <time>2014-11-08T07:54:06Z</time>
      </trkpt>
      <trkpt lat="42.483086310" lon="-2.553531800">
        <ele>395.72</ele>
        <time>2014-11-08T07:54:07Z</time>
      </trkpt>
      <trkpt lat="42.483108850" lon="-2.553582090">
        <ele>395.72</ele>
        <time>2014-11-08T07:54:08Z</time>
      </trkpt>
      <trkpt lat="42.483375570" lon="-2.554436790">
        <ele>393.80</ele>
        <time>2014-11-08T07:54:22Z</time>
      </trkpt>
      <trkpt lat="42.483651160" lon="-2.555202730">
        <ele>392.84</ele>
        <time>2014-11-08T07:54:35Z</time>
      </trkpt>
      <trkpt lat="42.483674380" lon="-2.555262410">
        <ele>392.84</ele>
        <time>2014-11-08T07:54:36Z</time>
      </trkpt>
      <trkpt lat="42.483695590" lon="-2.555319150">
        <ele>392.84</ele>
        <time>2014-11-08T07:54:37Z</time>
      </trkpt>
      <trkpt lat="42.483719560" lon="-2.555375650">
        <ele>392.84</ele>
        <time>2014-11-08T07:54:38Z</time>
      </trkpt>
      <trkpt lat="42.483743530" lon="-2.555433740">
        <ele>392.84</ele>
        <time>2014-11-08T07:54:39Z</time>
      </trkpt>
      <trkpt lat="42.483770020" lon="-2.555489810">
        <ele>392.84</ele>
        <time>2014-11-08T07:54:40Z</time>
      </trkpt>
      <trkpt lat="42.483939080" lon="-2.555821730">
        <ele>393.80</ele>
        <time>2014-11-08T07:54:47Z</time>
      </trkpt>
      <trkpt lat="42.483999180" lon="-2.555925000">
        <ele>393.80</ele>
        <time>2014-11-08T07:54:49Z</time>
      </trkpt>
      <trkpt lat="42.484028010" lon="-2.555977300">
        <ele>393.80</ele>
        <time>2014-11-08T07:54:50Z</time>
      </trkpt>
      <trkpt lat="42.484326660" lon="-2.556549030">
        <ele>392.84</ele>
        <time>2014-11-08T07:55:01Z</time>
      </trkpt>
      <trkpt lat="42.484343340" lon="-2.556605940">
        <ele>392.84</ele>
        <time>2014-11-08T07:55:02Z</time>
      </trkpt>
      <trkpt lat="42.484357250" lon="-2.556665200">
        <ele>392.84</ele>
        <time>2014-11-08T07:55:03Z</time>
      </trkpt>
      <trkpt lat="42.484365300" lon="-2.556724130">
        <ele>392.84</ele>
        <time>2014-11-08T07:55:04Z</time>
      </trkpt>
      <trkpt lat="42.484370500" lon="-2.556781130">
        <ele>392.84</ele>
        <time>2014-11-08T07:55:05Z</time>
      </trkpt>
      <trkpt lat="42.484363290" lon="-2.557002580">
        <ele>392.84</ele>
        <time>2014-11-08T07:55:09Z</time>
      </trkpt>
      <trkpt lat="42.484346940" lon="-2.557056560">
        <ele>392.84</ele>
        <time>2014-11-08T07:55:10Z</time>
      </trkpt>
      <trkpt lat="42.484324570" lon="-2.557109860">
        <ele>392.36</ele>
        <time>2014-11-08T07:55:11Z</time>
      </trkpt>
      <trkpt lat="42.484297580" lon="-2.557156380">
        <ele>392.36</ele>
        <time>2014-11-08T07:55:12Z</time>
      </trkpt>
      <trkpt lat="42.484268910" lon="-2.557197290">
        <ele>392.36</ele>
        <time>2014-11-08T07:55:13Z</time>
      </trkpt>
      <trkpt lat="42.484070170" lon="-2.557444300">
        <ele>392.36</ele>
        <time>2014-11-08T07:55:20Z</time>
      </trkpt>
      <trkpt lat="42.483842770" lon="-2.557536840">
        <ele>393.80</ele>
        <time>2014-11-08T07:55:26Z</time>
      </trkpt>
      <trkpt lat="42.483624090" lon="-2.557490320">
        <ele>396.68</ele>
        <time>2014-11-08T07:55:33Z</time>
      </trkpt>
      <trkpt lat="42.483478750" lon="-2.557187060">
        <ele>398.60</ele>
        <time>2014-11-08T07:55:41Z</time>
      </trkpt>
      <trkpt lat="42.483476820" lon="-2.557147000">
        <ele>399.08</ele>
        <time>2014-11-08T07:55:42Z</time>
      </trkpt>
      <trkpt lat="42.483482020" lon="-2.557102660">
        <ele>399.08</ele>
        <time>2014-11-08T07:55:43Z</time>
      </trkpt>
      <trkpt lat="42.483495340" lon="-2.557058990">
        <ele>399.08</ele>
        <time>2014-11-08T07:55:44Z</time>
      </trkpt>
      <trkpt lat="42.483518480" lon="-2.557020090">
        <ele>399.08</ele>
        <time>2014-11-08T07:55:45Z</time>
      </trkpt>
      <trkpt lat="42.483549070" lon="-2.556987490">
        <ele>399.08</ele>
        <time>2014-11-08T07:55:46Z</time>
      </trkpt>
      <trkpt lat="42.483585780" lon="-2.556966280">
        <ele>399.08</ele>
        <time>2014-11-08T07:55:47Z</time>
      </trkpt>
      <trkpt lat="42.483625350" lon="-2.556964190">
        <ele>399.08</ele>
        <time>2014-11-08T07:55:48Z</time>
      </trkpt>
      <trkpt lat="42.483663230" lon="-2.556980110">
        <ele>399.08</ele>
        <time>2014-11-08T07:55:49Z</time>
      </trkpt>
      <trkpt lat="42.483697260" lon="-2.557008780">
        <ele>399.08</ele>
        <time>2014-11-08T07:55:50Z</time>
      </trkpt>
      <trkpt lat="42.483728280" lon="-2.557042730">
        <ele>399.08</ele>
        <time>2014-11-08T07:55:51Z</time>
      </trkpt>
      <trkpt lat="42.483757110" lon="-2.557080700">
        <ele>399.08</ele>
        <time>2014-11-08T07:55:52Z</time>
      </trkpt>
      <trkpt lat="42.483786870" lon="-2.557119760">
        <ele>399.08</ele>
        <time>2014-11-08T07:55:53Z</time>
      </trkpt>
      <trkpt lat="42.483988120" lon="-2.557442120">
        <ele>400.53</ele>
        <time>2014-11-08T07:56:03Z</time>
      </trkpt>
      <trkpt lat="42.484205370" lon="-2.557913190">
        <ele>401.01</ele>
        <time>2014-11-08T07:56:16Z</time>
      </trkpt>
      <trkpt lat="42.484067240" lon="-2.558250310">
        <ele>402.93</ele>
        <time>2014-11-08T07:56:26Z</time>
      </trkpt>
      <trkpt lat="42.483885600" lon="-2.558882890">
        <ele>405.81</ele>
        <time>2014-11-08T07:56:46Z</time>
      </trkpt>
      <trkpt lat="42.483774210" lon="-2.559259490">
        <ele>408.22</ele>
        <time>2014-11-08T07:56:59Z</time>
      </trkpt>
      <trkpt lat="42.483655940" lon="-2.559564170">
        <ele>411.58</ele>
        <time>2014-11-08T07:57:10Z</time>
      </trkpt>
      <trkpt lat="42.483500210" lon="-2.559949070">
        <ele>414.95</ele>
        <time>2014-11-08T07:57:25Z</time>
      </trkpt>
      <trkpt lat="42.483647480" lon="-2.560441840">
        <ele>416.87</ele>
        <time>2014-11-08T07:57:40Z</time>
      </trkpt>
      <trkpt lat="42.483741350" lon="-2.561165780">
        <ele>417.35</ele>
        <time>2014-11-08T07:57:57Z</time>
      </trkpt>
      <trkpt lat="42.483538590" lon="-2.561730810">
        <ele>418.31</ele>
        <time>2014-11-08T07:58:10Z</time>
      </trkpt>
      <trkpt lat="42.483200720" lon="-2.562208320">
        <ele>418.79</ele>
        <time>2014-11-08T07:58:26Z</time>
      </trkpt>
      <trkpt lat="42.483202980" lon="-2.562233970">
        <ele>418.79</ele>
        <time>2014-11-08T07:58:27Z</time>
      </trkpt>
      <trkpt lat="42.483213710" lon="-2.562252660">
        <ele>418.79</ele>
        <time>2014-11-08T07:58:28Z</time>
      </trkpt>
      <trkpt lat="42.483227790" lon="-2.562264570">
        <ele>418.79</ele>
        <time>2014-11-08T07:58:29Z</time>
      </trkpt>
      <trkpt lat="42.483243380" lon="-2.562269510">
        <ele>419.27</ele>
        <time>2014-11-08T07:58:30Z</time>
      </trkpt>
      <trkpt lat="42.483259640" lon="-2.562270520">
        <ele>419.27</ele>
        <time>2014-11-08T07:58:31Z</time>
      </trkpt>
      <trkpt lat="42.483275990" lon="-2.562276470">
        <ele>419.27</ele>
        <time>2014-11-08T07:58:32Z</time>
      </trkpt>
      <trkpt lat="42.483289060" lon="-2.562283260">
        <ele>419.27</ele>
        <time>2014-11-08T07:58:33Z</time>
      </trkpt>
      <trkpt lat="42.483301550" lon="-2.562301780">
        <ele>419.27</ele>
        <time>2014-11-08T07:58:46Z</time>
      </trkpt>
      <trkpt lat="42.483305490" lon="-2.562294410">
        <ele>419.27</ele>
        <time>2014-11-08T07:59:10Z</time>
      </trkpt>
      <trkpt lat="42.483289400" lon="-2.562287370">
        <ele>419.27</ele>
        <time>2014-11-08T07:59:31Z</time>
      </trkpt>
      <trkpt lat="42.483290740" lon="-2.562289630">
        <ele>419.27</ele>
        <time>2014-11-08T07:59:51Z</time>
      </trkpt>
      <trkpt lat="42.483348320" lon="-2.562316370">
        <ele>419.27</ele>
        <time>2014-11-08T08:00:05Z</time>
      </trkpt>
      <trkpt lat="42.483729280" lon="-2.562476380">
        <ele>419.75</ele>
        <time>2014-11-08T08:00:20Z</time>
      </trkpt>
      <trkpt lat="42.484115770" lon="-2.562431370">
        <ele>419.75</ele>
        <time>2014-11-08T08:00:32Z</time>
      </trkpt>
      <trkpt lat="42.484586000" lon="-2.562222410">
        <ele>419.75</ele>
        <time>2014-11-08T08:00:47Z</time>
      </trkpt>
      <trkpt lat="42.485247080" lon="-2.561991150">
        <ele>419.75</ele>
        <time>2014-11-08T08:01:06Z</time>
      </trkpt>
      <trkpt lat="42.485956860" lon="-2.562028780">
        <ele>419.75</ele>
        <time>2014-11-08T08:01:25Z</time>
      </trkpt>
      <trkpt lat="42.486431020" lon="-2.562139090">
        <ele>420.23</ele>
        <time>2014-11-08T08:01:39Z</time>
      </trkpt>
      <trkpt lat="42.487000660" lon="-2.562324330">
        <ele>418.79</ele>
        <time>2014-11-08T08:01:55Z</time>
      </trkpt>
      <trkpt lat="42.487454950" lon="-2.562584840">
        <ele>416.87</ele>
        <time>2014-11-08T08:02:09Z</time>
      </trkpt>
      <trkpt lat="42.487692410" lon="-2.562740740">
        <ele>413.98</ele>
        <time>2014-11-08T08:02:21Z</time>
      </trkpt>
      <trkpt lat="42.487757960" lon="-2.562795980">
        <ele>413.98</ele>
        <time>2014-11-08T08:02:32Z</time>
      </trkpt>
      <trkpt lat="42.487779250" lon="-2.562797150">
        <ele>413.98</ele>
        <time>2014-11-08T08:02:34Z</time>
      </trkpt>
      <trkpt lat="42.487789390" lon="-2.562800590">
        <ele>413.98</ele>
        <time>2014-11-08T08:02:35Z</time>
      </trkpt>
      <trkpt lat="42.487832390" lon="-2.562800760">
        <ele>413.98</ele>
        <time>2014-11-08T08:02:46Z</time>
      </trkpt>
      <trkpt lat="42.487870030" lon="-2.562823640">
        <ele>413.98</ele>
        <time>2014-11-08T08:03:00Z</time>
      </trkpt>
      <trkpt lat="42.487956020" lon="-2.563078870">
        <ele>411.58</ele>
        <time>2014-11-08T08:03:07Z</time>
      </trkpt>
      <trkpt lat="42.488010420" lon="-2.563357230">
        <ele>410.62</ele>
        <time>2014-11-08T08:03:13Z</time>
      </trkpt>
      <trkpt lat="42.488077310" lon="-2.564085280">
        <ele>411.10</ele>
        <time>2014-11-08T08:03:28Z</time>
      </trkpt>
      <trkpt lat="42.488116120" lon="-2.564745860">
        <ele>411.10</ele>
        <time>2014-11-08T08:03:42Z</time>
      </trkpt>
      <trkpt lat="42.488152660" lon="-2.565359250">
        <ele>411.10</ele>
        <time>2014-11-08T08:03:57Z</time>
      </trkpt>
      <trkpt lat="42.488225170" lon="-2.566012450">
        <ele>413.98</ele>
        <time>2014-11-08T08:04:12Z</time>
      </trkpt>
      <trkpt lat="42.488273700" lon="-2.566665990">
        <ele>414.47</ele>
        <time>2014-11-08T08:04:26Z</time>
      </trkpt>
      <trkpt lat="42.488300860" lon="-2.567322790">
        <ele>414.95</ele>
        <time>2014-11-08T08:04:40Z</time>
      </trkpt>
      <trkpt lat="42.488344530" lon="-2.567972730">
        <ele>414.95</ele>
        <time>2014-11-08T08:04:53Z</time>
      </trkpt>
      <trkpt lat="42.488356010" lon="-2.568663900">
        <ele>414.95</ele>
        <time>2014-11-08T08:05:06Z</time>
      </trkpt>
      <trkpt lat="42.488363970" lon="-2.568825750">
        <ele>414.95</ele>
        <time>2014-11-08T08:05:09Z</time>
      </trkpt>
      <trkpt lat="42.488372440" lon="-2.568879400">
        <ele>414.95</ele>
        <time>2014-11-08T08:05:10Z</time>
      </trkpt>
      <trkpt lat="42.488396490" lon="-2.569150220">
        <ele>414.95</ele>
        <time>2014-11-08T08:05:15Z</time>
      </trkpt>
      <trkpt lat="42.488392550" lon="-2.569206710">
        <ele>414.95</ele>
        <time>2014-11-08T08:05:16Z</time>
      </trkpt>
      <trkpt lat="42.488386020" lon="-2.569265300">
        <ele>414.95</ele>
        <time>2014-11-08T08:05:17Z</time>
      </trkpt>
      <trkpt lat="42.488357350" lon="-2.569609800">
        <ele>414.95</ele>
        <time>2014-11-08T08:05:23Z</time>
      </trkpt>
      <trkpt lat="42.488364220" lon="-2.569667720">
        <ele>414.95</ele>
        <time>2014-11-08T08:05:24Z</time>
      </trkpt>
      <trkpt lat="42.488389870" lon="-2.569720190">
        <ele>413.98</ele>
        <time>2014-11-08T08:05:25Z</time>
      </trkpt>
      <trkpt lat="42.488430610" lon="-2.569761430">
        <ele>413.02</ele>
        <time>2014-11-08T08:05:26Z</time>
      </trkpt>
      <trkpt lat="42.488477630" lon="-2.569794200">
        <ele>413.02</ele>
        <time>2014-11-08T08:05:27Z</time>
      </trkpt>
      <trkpt lat="42.488607470" lon="-2.569923450">
        <ele>411.10</ele>
        <time>2014-11-08T08:05:32Z</time>
      </trkpt>
      <trkpt lat="42.488599590" lon="-2.569956980">
        <ele>410.62</ele>
        <time>2014-11-08T08:05:33Z</time>
      </trkpt>
      <trkpt lat="42.488576290" lon="-2.569974240">
        <ele>410.62</ele>
        <time>2014-11-08T08:05:34Z</time>
      </trkpt>
      <trkpt lat="42.488546280" lon="-2.569970300">
        <ele>410.62</ele>
        <time>2014-11-08T08:05:35Z</time>
      </trkpt>
      <trkpt lat="42.488512830" lon="-2.569959740">
        <ele>410.14</ele>
        <time>2014-11-08T08:05:36Z</time>
      </trkpt>
      <trkpt lat="42.488481570" lon="-2.569960080">
        <ele>409.66</ele>
        <time>2014-11-08T08:05:37Z</time>
      </trkpt>
      <trkpt lat="42.488461960" lon="-2.569974160">
        <ele>409.18</ele>
        <time>2014-11-08T08:05:38Z</time>
      </trkpt>
      <trkpt lat="42.488453070" lon="-2.569997210">
        <ele>409.18</ele>
        <time>2014-11-08T08:05:39Z</time>
      </trkpt>
      <trkpt lat="42.488453070" lon="-2.570025790">
        <ele>409.18</ele>
        <time>2014-11-08T08:05:40Z</time>
      </trkpt>
      <trkpt lat="42.488465480" lon="-2.570051860">
        <ele>408.70</ele>
        <time>2014-11-08T08:05:41Z</time>
      </trkpt>
      <trkpt lat="42.488487520" lon="-2.570071390">
        <ele>408.70</ele>
        <time>2014-11-08T08:05:42Z</time>
      </trkpt>
      <trkpt lat="42.488515270" lon="-2.570085220">
        <ele>408.70</ele>
        <time>2014-11-08T08:05:43Z</time>
      </trkpt>
      <trkpt lat="42.488723140" lon="-2.570170550">
        <ele>408.22</ele>
        <time>2014-11-08T08:05:49Z</time>
      </trkpt>
      <trkpt lat="42.488759430" lon="-2.570199550">
        <ele>407.74</ele>
        <time>2014-11-08T08:05:50Z</time>
      </trkpt>
      <trkpt lat="42.489250940" lon="-2.570781590">
        <ele>404.85</ele>
        <time>2014-11-08T08:06:02Z</time>
      </trkpt>
      <trkpt lat="42.489412880" lon="-2.570920560">
        <ele>403.41</ele>
        <time>2014-11-08T08:06:05Z</time>
      </trkpt>
      <trkpt lat="42.489475080" lon="-2.570954920">
        <ele>403.41</ele>
        <time>2014-11-08T08:06:06Z</time>
      </trkpt>
      <trkpt lat="42.489540290" lon="-2.570981580">
        <ele>402.93</ele>
        <time>2014-11-08T08:06:07Z</time>
      </trkpt>
      <trkpt lat="42.489607010" lon="-2.571002030">
        <ele>402.93</ele>
        <time>2014-11-08T08:06:08Z</time>
      </trkpt>
      <trkpt lat="42.489675660" lon="-2.571013930">
        <ele>402.45</ele>
        <time>2014-11-08T08:06:09Z</time>
      </trkpt>
      <trkpt lat="42.489745310" lon="-2.571023910">
        <ele>402.45</ele>
        <time>2014-11-08T08:06:10Z</time>
      </trkpt>
      <trkpt lat="42.490970070" lon="-2.571123570">
        <ele>401.01</ele>
        <time>2014-11-08T08:06:28Z</time>
      </trkpt>
      <trkpt lat="42.491500730" lon="-2.571479800">
        <ele>400.53</ele>
        <time>2014-11-08T08:06:38Z</time>
      </trkpt>
      <trkpt lat="42.491544820" lon="-2.571536880">
        <ele>400.05</ele>
        <time>2014-11-08T08:06:39Z</time>
      </trkpt>
      <trkpt lat="42.492197600" lon="-2.572596940">
        <ele>399.57</ele>
        <time>2014-11-08T08:06:57Z</time>
      </trkpt>
      <trkpt lat="42.492475130" lon="-2.573104630">
        <ele>401.01</ele>
        <time>2014-11-08T08:07:06Z</time>
      </trkpt>
      <trkpt lat="42.492692550" lon="-2.573501850">
        <ele>401.01</ele>
        <time>2014-11-08T08:07:14Z</time>
      </trkpt>
      <trkpt lat="42.492707890" lon="-2.573551810">
        <ele>401.49</ele>
        <time>2014-11-08T08:07:15Z</time>
      </trkpt>
      <trkpt lat="42.492713510" lon="-2.573602940">
        <ele>401.49</ele>
        <time>2014-11-08T08:07:16Z</time>
      </trkpt>
      <trkpt lat="42.492707730" lon="-2.573653140">
        <ele>401.49</ele>
        <time>2014-11-08T08:07:17Z</time>
      </trkpt>
      <trkpt lat="42.492692220" lon="-2.573699830">
        <ele>401.97</ele>
        <time>2014-11-08T08:07:18Z</time>
      </trkpt>
      <trkpt lat="42.492672190" lon="-2.573742580">
        <ele>401.97</ele>
        <time>2014-11-08T08:07:19Z</time>
      </trkpt>
      <trkpt lat="42.492649470" lon="-2.573781720">
        <ele>402.45</ele>
        <time>2014-11-08T08:07:20Z</time>
      </trkpt>
      <trkpt lat="42.492625750" lon="-2.573816590">
        <ele>402.45</ele>
        <time>2014-11-08T08:07:21Z</time>
      </trkpt>
      <trkpt lat="42.492390810" lon="-2.574115820">
        <ele>405.81</ele>
        <time>2014-11-08T08:07:31Z</time>
      </trkpt>
      <trkpt lat="42.492097440" lon="-2.574383290">
        <ele>409.18</ele>
        <time>2014-11-08T08:07:44Z</time>
      </trkpt>
      <trkpt lat="42.491804910" lon="-2.574614380">
        <ele>412.54</ele>
        <time>2014-11-08T08:07:57Z</time>
      </trkpt>
      <trkpt lat="42.491562840" lon="-2.574863570">
        <ele>415.91</ele>
        <time>2014-11-08T08:08:10Z</time>
      </trkpt>
      <trkpt lat="42.491574160" lon="-2.575263140">
        <ele>419.27</ele>
        <time>2014-11-08T08:08:24Z</time>
      </trkpt>
      <trkpt lat="42.491839110" lon="-2.575386440">
        <ele>422.16</ele>
        <time>2014-11-08T08:08:37Z</time>
      </trkpt>
      <trkpt lat="42.492171450" lon="-2.575305300">
        <ele>424.08</ele>
        <time>2014-11-08T08:08:54Z</time>
      </trkpt>
      <trkpt lat="42.492179920" lon="-2.575292310">
        <ele>424.56</ele>
        <time>2014-11-08T08:08:55Z</time>
      </trkpt>
      <trkpt lat="42.492193500" lon="-2.575286190">
        <ele>424.56</ele>
        <time>2014-11-08T08:08:56Z</time>
      </trkpt>
      <trkpt lat="42.492209590" lon="-2.575289630">
        <ele>424.56</ele>
        <time>2014-11-08T08:08:57Z</time>
      </trkpt>
      <trkpt lat="42.492224510" lon="-2.575294820">
        <ele>424.56</ele>
        <time>2014-11-08T08:08:58Z</time>
      </trkpt>
      <trkpt lat="42.492237580" lon="-2.575295160">
        <ele>424.56</ele>
        <time>2014-11-08T08:08:59Z</time>
      </trkpt>
      <trkpt lat="42.492249650" lon="-2.575290630">
        <ele>425.04</ele>
        <time>2014-11-08T08:09:00Z</time>
      </trkpt>
      <trkpt lat="42.492261560" lon="-2.575283420">
        <ele>425.04</ele>
        <time>2014-11-08T08:09:01Z</time>
      </trkpt>
      <trkpt lat="42.492273710" lon="-2.575277720">
        <ele>425.04</ele>
        <time>2014-11-08T08:09:02Z</time>
      </trkpt>
      <trkpt lat="42.492284020" lon="-2.575270930">
        <ele>425.04</ele>
        <time>2014-11-08T08:09:03Z</time>
      </trkpt>
      <trkpt lat="42.492293910" lon="-2.575262380">
        <ele>425.04</ele>
        <time>2014-11-08T08:09:04Z</time>
      </trkpt>
      <trkpt lat="42.492305390" lon="-2.575258700">
        <ele>425.52</ele>
        <time>2014-11-08T08:09:05Z</time>
      </trkpt>
      <trkpt lat="42.492316960" lon="-2.575261970">
        <ele>425.52</ele>
        <time>2014-11-08T08:09:06Z</time>
      </trkpt>
      <trkpt lat="42.492341600" lon="-2.575282170">
        <ele>425.52</ele>
        <time>2014-11-08T08:09:09Z</time>
      </trkpt>
      <trkpt lat="42.492352580" lon="-2.575277390">
        <ele>425.52</ele>
        <time>2014-11-08T08:09:10Z</time>
      </trkpt>
      <trkpt lat="42.492366250" lon="-2.575277560">
        <ele>425.52</ele>
        <time>2014-11-08T08:09:11Z</time>
      </trkpt>
      <trkpt lat="42.492379070" lon="-2.575291640">
        <ele>425.52</ele>
        <time>2014-11-08T08:09:12Z</time>
      </trkpt>
      <trkpt lat="42.492383680" lon="-2.575312930">
        <ele>426.00</ele>
        <time>2014-11-08T08:09:13Z</time>
      </trkpt>
      <trkpt lat="42.492384520" lon="-2.575333970">
        <ele>426.00</ele>
        <time>2014-11-08T08:09:14Z</time>
      </trkpt>
      <trkpt lat="42.492390720" lon="-2.575356760">
        <ele>426.00</ele>
        <time>2014-11-08T08:09:15Z</time>
      </trkpt>
      <trkpt lat="42.492401450" lon="-2.575379560">
        <ele>426.00</ele>
        <time>2014-11-08T08:09:16Z</time>
      </trkpt>
      <trkpt lat="42.492423660" lon="-2.575446870">
        <ele>426.48</ele>
        <time>2014-11-08T08:09:19Z</time>
      </trkpt>
      <trkpt lat="42.492419470" lon="-2.575466480">
        <ele>426.48</ele>
        <time>2014-11-08T08:09:20Z</time>
      </trkpt>
      <trkpt lat="42.492410250" lon="-2.575484340">
        <ele>426.48</ele>
        <time>2014-11-08T08:09:21Z</time>
      </trkpt>
      <trkpt lat="42.492397600" lon="-2.575495490">
        <ele>426.48</ele>
        <time>2014-11-08T08:09:22Z</time>
      </trkpt>
      <trkpt lat="42.492382340" lon="-2.575484250">
        <ele>426.96</ele>
        <time>2014-11-08T08:09:24Z</time>
      </trkpt>
      <trkpt lat="42.492381000" lon="-2.575471260">
        <ele>426.96</ele>
        <time>2014-11-08T08:09:25Z</time>
      </trkpt>
      <trkpt lat="42.492416200" lon="-2.575473940">
        <ele>426.96</ele>
        <time>2014-11-08T08:09:37Z</time>
      </trkpt>
      <trkpt lat="42.492379410" lon="-2.575473780">
        <ele>426.96</ele>
        <time>2014-11-08T08:10:01Z</time>
      </trkpt>
      <trkpt lat="42.492407230" lon="-2.575462290">
        <ele>426.96</ele>
        <time>2014-11-08T08:10:18Z</time>
      </trkpt>
      <trkpt lat="42.492417460" lon="-2.575468330">
        <ele>426.96</ele>
        <time>2014-11-08T08:10:19Z</time>
      </trkpt>
      <trkpt lat="42.492424250" lon="-2.575478130">
        <ele>426.96</ele>
        <time>2014-11-08T08:10:20Z</time>
      </trkpt>
      <trkpt lat="42.492431790" lon="-2.575504030">
        <ele>426.96</ele>
        <time>2014-11-08T08:10:22Z</time>
      </trkpt>
      <trkpt lat="42.492410000" lon="-2.575571590">
        <ele>426.96</ele>
        <time>2014-11-08T08:10:26Z</time>
      </trkpt>
      <trkpt lat="42.492097770" lon="-2.576026140">
        <ele>426.96</ele>
        <time>2014-11-08T08:10:39Z</time>
      </trkpt>
      <trkpt lat="42.491568710" lon="-2.576769120">
        <ele>426.96</ele>
        <time>2014-11-08T08:10:59Z</time>
      </trkpt>
      <trkpt lat="42.491184060" lon="-2.577343860">
        <ele>425.52</ele>
        <time>2014-11-08T08:11:15Z</time>
      </trkpt>
      <trkpt lat="42.490871840" lon="-2.577803530">
        <ele>425.52</ele>
        <time>2014-11-08T08:11:29Z</time>
      </trkpt>
      <trkpt lat="42.490533710" lon="-2.578305520">
        <ele>425.52</ele>
        <time>2014-11-08T08:11:42Z</time>
      </trkpt>
      <trkpt lat="42.490171190" lon="-2.578804830">
        <ele>425.04</ele>
        <time>2014-11-08T08:11:55Z</time>
      </trkpt>
      <trkpt lat="42.489778000" lon="-2.579418550">
        <ele>424.56</ele>
        <time>2014-11-08T08:12:10Z</time>
      </trkpt>
      <trkpt lat="42.489226050" lon="-2.580217770">
        <ele>423.60</ele>
        <time>2014-11-08T08:12:28Z</time>
      </trkpt>
      <trkpt lat="42.489132170" lon="-2.580349030">
        <ele>423.60</ele>
        <time>2014-11-08T08:12:31Z</time>
      </trkpt>
      <trkpt lat="42.488771750" lon="-2.580850600">
        <ele>423.60</ele>
        <time>2014-11-08T08:12:44Z</time>
      </trkpt>
      <trkpt lat="42.488506380" lon="-2.581410340">
        <ele>423.60</ele>
        <time>2014-11-08T08:12:57Z</time>
      </trkpt>
      <trkpt lat="42.488204550" lon="-2.582021380">
        <ele>423.60</ele>
        <time>2014-11-08T08:13:12Z</time>
      </trkpt>
      <trkpt lat="42.488189880" lon="-2.582062040">
        <ele>423.60</ele>
        <time>2014-11-08T08:13:13Z</time>
      </trkpt>
      <trkpt lat="42.488073620" lon="-2.582287340">
        <ele>423.60</ele>
        <time>2014-11-08T08:13:18Z</time>
      </trkpt>
      <trkpt lat="42.488046050" lon="-2.582327490">
        <ele>423.60</ele>
        <time>2014-11-08T08:13:19Z</time>
      </trkpt>
      <trkpt lat="42.488016120" lon="-2.582364870">
        <ele>423.60</ele>
        <time>2014-11-08T08:13:20Z</time>
      </trkpt>
      <trkpt lat="42.487980580" lon="-2.582396050">
        <ele>423.60</ele>
        <time>2014-11-08T08:13:21Z</time>
      </trkpt>
      <trkpt lat="42.487942280" lon="-2.582421450">
        <ele>423.60</ele>
        <time>2014-11-08T08:13:22Z</time>
      </trkpt>
      <trkpt lat="42.487902720" lon="-2.582437630">
        <ele>423.60</ele>
        <time>2014-11-08T08:13:23Z</time>
      </trkpt>
      <trkpt lat="42.487862820" lon="-2.582447020">
        <ele>423.60</ele>
        <time>2014-11-08T08:13:24Z</time>
      </trkpt>
      <trkpt lat="42.487822750" lon="-2.582449280">
        <ele>423.60</ele>
        <time>2014-11-08T08:13:25Z</time>
      </trkpt>
      <trkpt lat="42.487781930" lon="-2.582446430">
        <ele>423.60</ele>
        <time>2014-11-08T08:13:26Z</time>
      </trkpt>
      <trkpt lat="42.487143060" lon="-2.582458580">
        <ele>423.60</ele>
        <time>2014-11-08T08:13:42Z</time>
      </trkpt>
      <trkpt lat="42.486567560" lon="-2.582788830">
        <ele>424.56</ele>
        <time>2014-11-08T08:13:55Z</time>
      </trkpt>
      <trkpt lat="42.486530680" lon="-2.582836020">
        <ele>424.56</ele>
        <time>2014-11-08T08:13:56Z</time>
      </trkpt>
      <trkpt lat="42.486227170" lon="-2.583179850">
        <ele>425.04</ele>
        <time>2014-11-08T08:14:06Z</time>
      </trkpt>
      <trkpt lat="42.485888380" lon="-2.583541270">
        <ele>423.60</ele>
        <time>2014-11-08T08:14:16Z</time>
      </trkpt>
      <trkpt lat="42.485375990" lon="-2.584191540">
        <ele>420.71</ele>
        <time>2014-11-08T08:14:28Z</time>
      </trkpt>
      <trkpt lat="42.485274820" lon="-2.584322380">
        <ele>420.23</ele>
        <time>2014-11-08T08:14:30Z</time>
      </trkpt>
      <trkpt lat="42.485217320" lon="-2.584369830">
        <ele>419.75</ele>
        <time>2014-11-08T08:14:31Z</time>
      </trkpt>
      <trkpt lat="42.485159400" lon="-2.584406040">
        <ele>419.75</ele>
        <time>2014-11-08T08:14:32Z</time>
      </trkpt>
      <trkpt lat="42.484639220" lon="-2.584829660">
        <ele>419.75</ele>
        <time>2014-11-08T08:14:43Z</time>
      </trkpt>
      <trkpt lat="42.484397570" lon="-2.585024620">
        <ele>418.31</ele>
        <time>2014-11-08T08:14:48Z</time>
      </trkpt>
      <trkpt lat="42.484350470" lon="-2.585079600">
        <ele>417.83</ele>
        <time>2014-11-08T08:14:49Z</time>
      </trkpt>
      <trkpt lat="42.484306540" lon="-2.585141630">
        <ele>416.87</ele>
        <time>2014-11-08T08:14:50Z</time>
      </trkpt>
      <trkpt lat="42.484266650" lon="-2.585216570">
        <ele>416.87</ele>
        <time>2014-11-08T08:14:51Z</time>
      </trkpt>
      <trkpt lat="42.484232700" lon="-2.585299970">
        <ele>416.39</ele>
        <time>2014-11-08T08:14:52Z</time>
      </trkpt>
      <trkpt lat="42.484205040" lon="-2.585386210">
        <ele>415.91</ele>
        <time>2014-11-08T08:14:53Z</time>
      </trkpt>
      <trkpt lat="42.484182410" lon="-2.585475990">
        <ele>415.91</ele>
        <time>2014-11-08T08:14:54Z</time>
      </trkpt>
      <trkpt lat="42.483995070" lon="-2.586281820">
        <ele>413.02</ele>
        <time>2014-11-08T08:15:03Z</time>
      </trkpt>
      <trkpt lat="42.483983590" lon="-2.587030160">
        <ele>409.66</ele>
        <time>2014-11-08T08:15:11Z</time>
      </trkpt>
      <trkpt lat="42.483984430" lon="-2.587140300">
        <ele>409.18</ele>
        <time>2014-11-08T08:15:12Z</time>
      </trkpt>
      <trkpt lat="42.483973870" lon="-2.587527790">
        <ele>404.85</ele>
        <time>2014-11-08T08:15:15Z</time>
      </trkpt>
      <trkpt lat="42.483961630" lon="-2.587942950">
        <ele>402.45</ele>
        <time>2014-11-08T08:15:18Z</time>
      </trkpt>
      <trkpt lat="42.483946120" lon="-2.588637890">
        <ele>399.08</ele>
        <time>2014-11-08T08:15:23Z</time>
      </trkpt>
      <trkpt lat="42.483783510" lon="-2.589771880">
        <ele>398.60</ele>
        <time>2014-11-08T08:15:33Z</time>
      </trkpt>
      <trkpt lat="42.483425520" lon="-2.590607300">
        <ele>398.60</ele>
        <time>2014-11-08T08:15:44Z</time>
      </trkpt>
      <trkpt lat="42.482928730" lon="-2.591520010">
        <ele>398.12</ele>
        <time>2014-11-08T08:15:59Z</time>
      </trkpt>
      <trkpt lat="42.482402850" lon="-2.592340430">
        <ele>398.12</ele>
        <time>2014-11-08T08:16:14Z</time>
      </trkpt>
      <trkpt lat="42.482112410" lon="-2.592794900">
        <ele>399.57</ele>
        <time>2014-11-08T08:16:24Z</time>
      </trkpt>
      <trkpt lat="42.481889120" lon="-2.593104190">
        <ele>400.53</ele>
        <time>2014-11-08T08:16:31Z</time>
      </trkpt>
      <trkpt lat="42.481529540" lon="-2.593554630">
        <ele>403.89</ele>
        <time>2014-11-08T08:16:44Z</time>
      </trkpt>
      <trkpt lat="42.480994440" lon="-2.593951090">
        <ele>406.29</ele>
        <time>2014-11-08T08:17:02Z</time>
      </trkpt>
      <trkpt lat="42.480489930" lon="-2.594277070">
        <ele>408.22</ele>
        <time>2014-11-08T08:17:19Z</time>
      </trkpt>
      <trkpt lat="42.480441150" lon="-2.594284780">
        <ele>406.29</ele>
        <time>2014-11-08T08:17:20Z</time>
      </trkpt>
      <trkpt lat="42.480383390" lon="-2.594284190">
        <ele>406.29</ele>
        <time>2014-11-08T08:17:21Z</time>
      </trkpt>
      <trkpt lat="42.480318100" lon="-2.594271120">
        <ele>404.85</ele>
        <time>2014-11-08T08:17:22Z</time>
      </trkpt>
      <trkpt lat="42.480249200" lon="-2.594242030">
        <ele>404.37</ele>
        <time>2014-11-08T08:17:23Z</time>
      </trkpt>
      <trkpt lat="42.480178710" lon="-2.594201550">
        <ele>403.41</ele>
        <time>2014-11-08T08:17:24Z</time>
      </trkpt>
      <trkpt lat="42.480108050" lon="-2.594154610">
        <ele>402.93</ele>
        <time>2014-11-08T08:17:25Z</time>
      </trkpt>
      <trkpt lat="42.479963290" lon="-2.594058630">
        <ele>402.45</ele>
        <time>2014-11-08T08:17:27Z</time>
      </trkpt>
      <trkpt lat="42.479884340" lon="-2.594025110">
        <ele>401.49</ele>
        <time>2014-11-08T08:17:28Z</time>
      </trkpt>
      <trkpt lat="42.479804790" lon="-2.594005660">
        <ele>401.49</ele>
        <time>2014-11-08T08:17:29Z</time>
      </trkpt>
      <trkpt lat="42.479725330" lon="-2.593994350">
        <ele>401.49</ele>
        <time>2014-11-08T08:17:30Z</time>
      </trkpt>
      <trkpt lat="42.479646460" lon="-2.593995940">
        <ele>401.49</ele>
        <time>2014-11-08T08:17:31Z</time>
      </trkpt>
      <trkpt lat="42.479568420" lon="-2.594002980">
        <ele>401.01</ele>
        <time>2014-11-08T08:17:32Z</time>
      </trkpt>
      <trkpt lat="42.478968610" lon="-2.594050920">
        <ele>401.49</ele>
        <time>2014-11-08T08:17:41Z</time>
      </trkpt>
      <trkpt lat="42.478912290" lon="-2.594037930">
        <ele>401.49</ele>
        <time>2014-11-08T08:17:42Z</time>
      </trkpt>
      <trkpt lat="42.478856040" lon="-2.594020080">
        <ele>401.49</ele>
        <time>2014-11-08T08:17:43Z</time>
      </trkpt>
      <trkpt lat="42.478801980" lon="-2.593997700">
        <ele>401.49</ele>
        <time>2014-11-08T08:17:44Z</time>
      </trkpt>
      <trkpt lat="42.478750010" lon="-2.593967190">
        <ele>401.49</ele>
        <time>2014-11-08T08:17:45Z</time>
      </trkpt>
      <trkpt lat="42.478700060" lon="-2.593934160">
        <ele>401.49</ele>
        <time>2014-11-08T08:17:46Z</time>
      </trkpt>
      <trkpt lat="42.478101510" lon="-2.593554040">
        <ele>401.49</ele>
        <time>2014-11-08T08:18:00Z</time>
      </trkpt>
      <trkpt lat="42.477828090" lon="-2.593321360">
        <ele>401.49</ele>
        <time>2014-11-08T08:18:07Z</time>
      </trkpt>
      <trkpt lat="42.477746870" lon="-2.593274930">
        <ele>401.49</ele>
        <time>2014-11-08T08:18:09Z</time>
      </trkpt>
      <trkpt lat="42.477666650" lon="-2.593242910">
        <ele>401.49</ele>
        <time>2014-11-08T08:18:11Z</time>
      </trkpt>
      <trkpt lat="42.477587610" lon="-2.593226730">
        <ele>401.49</ele>
        <time>2014-11-08T08:18:13Z</time>
      </trkpt>
      <trkpt lat="42.476929970" lon="-2.593293700">
        <ele>401.49</ele>
        <time>2014-11-08T08:18:29Z</time>
      </trkpt>
      <trkpt lat="42.476888640" lon="-2.593298140">
        <ele>401.49</ele>
        <time>2014-11-08T08:18:30Z</time>
      </trkpt>
      <trkpt lat="42.476186990" lon="-2.593267800">
        <ele>402.45</ele>
        <time>2014-11-08T08:18:46Z</time>
      </trkpt>
      <trkpt lat="42.475425330" lon="-2.593357320">
        <ele>402.93</ele>
        <time>2014-11-08T08:19:03Z</time>
      </trkpt>
      <trkpt lat="42.474524110" lon="-2.593373670">
        <ele>402.93</ele>
        <time>2014-11-08T08:19:22Z</time>
      </trkpt>
      <trkpt lat="42.473605620" lon="-2.593378020">
        <ele>400.05</ele>
        <time>2014-11-08T08:19:40Z</time>
      </trkpt>
      <trkpt lat="42.473267330" lon="-2.593398980">
        <ele>399.57</ele>
        <time>2014-11-08T08:19:46Z</time>
      </trkpt>
      <trkpt lat="42.473222480" lon="-2.593392610">
        <ele>399.57</ele>
        <time>2014-11-08T08:19:47Z</time>
      </trkpt>
      <trkpt lat="42.472984860" lon="-2.593305860">
        <ele>399.57</ele>
        <time>2014-11-08T08:19:58Z</time>
      </trkpt>
      <trkpt lat="42.472954850" lon="-2.593277780">
        <ele>399.57</ele>
        <time>2014-11-08T08:20:14Z</time>
      </trkpt>
      <trkpt lat="42.472974710" lon="-2.593282300">
        <ele>399.57</ele>
        <time>2014-11-08T08:20:32Z</time>
      </trkpt>
      <trkpt lat="42.472929370" lon="-2.593299740">
        <ele>399.57</ele>
        <time>2014-11-08T08:20:46Z</time>
      </trkpt>
      <trkpt lat="42.472915450" lon="-2.593319180">
        <ele>399.57</ele>
        <time>2014-11-08T08:20:48Z</time>
      </trkpt>
      <trkpt lat="42.472902290" lon="-2.593367550">
        <ele>399.57</ele>
        <time>2014-11-08T08:20:52Z</time>
      </trkpt>
      <trkpt lat="42.472904640" lon="-2.593380710">
        <ele>399.57</ele>
        <time>2014-11-08T08:20:53Z</time>
      </trkpt>
      <trkpt lat="42.472908330" lon="-2.593394120">
        <ele>399.57</ele>
        <time>2014-11-08T08:20:54Z</time>
      </trkpt>
      <trkpt lat="42.472922830" lon="-2.593448520">
        <ele>399.57</ele>
        <time>2014-11-08T08:21:09Z</time>
      </trkpt>
      <trkpt lat="42.472913440" lon="-2.593444740">
        <ele>399.57</ele>
        <time>2014-11-08T08:21:34Z</time>
      </trkpt>
      <trkpt lat="42.472884610" lon="-2.593477430">
        <ele>399.57</ele>
        <time>2014-11-08T08:21:59Z</time>
      </trkpt>
      <trkpt lat="42.472907410" lon="-2.593468970">
        <ele>399.57</ele>
        <time>2014-11-08T08:22:41Z</time>
      </trkpt>
      <trkpt lat="42.472907660" lon="-2.593465280">
        <ele>399.57</ele>
        <time>2014-11-08T08:23:25Z</time>
      </trkpt>
      <trkpt lat="42.472877150" lon="-2.593496210">
        <ele>399.57</ele>
        <time>2014-11-08T08:23:47Z</time>
      </trkpt>
      <trkpt lat="42.472844540" lon="-2.593559910">
        <ele>399.57</ele>
        <time>2014-11-08T08:24:18Z</time>
      </trkpt>
      <trkpt lat="42.472845050" lon="-2.593548430">
        <ele>399.57</ele>
        <time>2014-11-08T08:24:41Z</time>
      </trkpt>
      <trkpt lat="42.472881930" lon="-2.593593770">
        <ele>400.05</ele>
        <time>2014-11-08T08:24:58Z</time>
      </trkpt>
      <trkpt lat="42.472895420" lon="-2.593598970">
        <ele>400.05</ele>
        <time>2014-11-08T08:25:11Z</time>
      </trkpt>
      <trkpt lat="42.472906650" lon="-2.593614730">
        <ele>400.05</ele>
        <time>2014-11-08T08:25:38Z</time>
      </trkpt>
      <trkpt lat="42.472904730" lon="-2.593573740">
        <ele>400.05</ele>
        <time>2014-11-08T08:26:03Z</time>
      </trkpt>
      <trkpt lat="42.472912100" lon="-2.593601230">
        <ele>399.57</ele>
        <time>2014-11-08T08:26:34Z</time>
      </trkpt>
      <trkpt lat="42.472910590" lon="-2.593576840">
        <ele>400.05</ele>
        <time>2014-11-08T08:26:55Z</time>
      </trkpt>
      <trkpt lat="42.472926350" lon="-2.593555720">
        <ele>400.05</ele>
        <time>2014-11-08T08:27:23Z</time>
      </trkpt>
      <trkpt lat="42.472921070" lon="-2.593542980">
        <ele>400.05</ele>
        <time>2014-11-08T08:27:39Z</time>
      </trkpt>
      <trkpt lat="42.472928780" lon="-2.593538540">
        <ele>400.05</ele>
        <time>2014-11-08T08:28:00Z</time>
      </trkpt>
      <trkpt lat="42.472944460" lon="-2.593570810">
        <ele>400.05</ele>
        <time>2014-11-08T08:28:06Z</time>
      </trkpt>
      <trkpt lat="42.472949740" lon="-2.593587320">
        <ele>400.05</ele>
        <time>2014-11-08T08:28:07Z</time>
      </trkpt>
      <trkpt lat="42.472949570" lon="-2.593603670">
        <ele>400.05</ele>
        <time>2014-11-08T08:28:08Z</time>
      </trkpt>
      <trkpt lat="42.472913690" lon="-2.593639540">
        <ele>400.05</ele>
        <time>2014-11-08T08:28:13Z</time>
      </trkpt>
      <trkpt lat="42.472905900" lon="-2.593651860">
        <ele>400.05</ele>
        <time>2014-11-08T08:28:14Z</time>
      </trkpt>
      <trkpt lat="42.472899780" lon="-2.593664940">
        <ele>400.05</ele>
        <time>2014-11-08T08:28:15Z</time>
      </trkpt>
      <trkpt lat="42.472893830" lon="-2.593680360">
        <ele>400.05</ele>
        <time>2014-11-08T08:28:16Z</time>
      </trkpt>
      <trkpt lat="42.472887540" lon="-2.593695450">
        <ele>400.05</ele>
        <time>2014-11-08T08:28:17Z</time>
      </trkpt>
      <trkpt lat="42.472850830" lon="-2.593824360">
        <ele>400.05</ele>
        <time>2014-11-08T08:28:28Z</time>
      </trkpt>
      <trkpt lat="42.472857530" lon="-2.593862920">
        <ele>400.05</ele>
        <time>2014-11-08T08:28:51Z</time>
      </trkpt>
      <trkpt lat="42.472863650" lon="-2.593878760">
        <ele>400.05</ele>
        <time>2014-11-08T08:28:52Z</time>
      </trkpt>
      <trkpt lat="42.472938090" lon="-2.594228700">
        <ele>400.05</ele>
        <time>2014-11-08T08:29:03Z</time>
      </trkpt>
      <trkpt lat="42.472965160" lon="-2.594448390">
        <ele>399.57</ele>
        <time>2014-11-08T08:29:08Z</time>
      </trkpt>
      <trkpt lat="42.472978740" lon="-2.594475720">
        <ele>399.57</ele>
        <time>2014-11-08T08:29:09Z</time>
      </trkpt>
      <trkpt lat="42.472992400" lon="-2.594493570">
        <ele>399.57</ele>
        <time>2014-11-08T08:29:10Z</time>
      </trkpt>
      <trkpt lat="42.473006310" lon="-2.594510420">
        <ele>399.57</ele>
        <time>2014-11-08T08:29:11Z</time>
      </trkpt>
      <trkpt lat="42.473022240" lon="-2.594528940">
        <ele>399.57</ele>
        <time>2014-11-08T08:29:12Z</time>
      </trkpt>
      <trkpt lat="42.473031290" lon="-2.594552580">
        <ele>399.57</ele>
        <time>2014-11-08T08:29:13Z</time>
      </trkpt>
      <trkpt lat="42.473037490" lon="-2.594580240">
        <ele>399.57</ele>
        <time>2014-11-08T08:29:14Z</time>
      </trkpt>
      <trkpt lat="42.473065070" lon="-2.594785430">
        <ele>399.57</ele>
        <time>2014-11-08T08:29:28Z</time>
      </trkpt>
      <trkpt lat="42.473074460" lon="-2.594796750">
        <ele>399.57</ele>
        <time>2014-11-08T08:29:34Z</time>
      </trkpt>
      <trkpt lat="42.473080070" lon="-2.594813510">
        <ele>399.57</ele>
        <time>2014-11-08T08:29:35Z</time>
      </trkpt>
      <trkpt lat="42.473083680" lon="-2.594837820">
        <ele>399.57</ele>
        <time>2014-11-08T08:29:36Z</time>
      </trkpt>
      <trkpt lat="42.473167160" lon="-2.595331260">
        <ele>399.08</ele>
        <time>2014-11-08T08:29:50Z</time>
      </trkpt>
      <trkpt lat="42.473245110" lon="-2.595760580">
        <ele>398.60</ele>
        <time>2014-11-08T08:30:00Z</time>
      </trkpt>
      <trkpt lat="42.473276970" lon="-2.595868040">
        <ele>398.60</ele>
        <time>2014-11-08T08:30:02Z</time>
      </trkpt>
      <trkpt lat="42.473423060" lon="-2.596165680">
        <ele>398.60</ele>
        <time>2014-11-08T08:30:08Z</time>
      </trkpt>
      <trkpt lat="42.473449300" lon="-2.596211780">
        <ele>398.60</ele>
        <time>2014-11-08T08:30:09Z</time>
      </trkpt>
      <trkpt lat="42.473667310" lon="-2.596649310">
        <ele>398.60</ele>
        <time>2014-11-08T08:30:21Z</time>
      </trkpt>
      <trkpt lat="42.473921450" lon="-2.597111320">
        <ele>398.60</ele>
        <time>2014-11-08T08:30:33Z</time>
      </trkpt>
      <trkpt lat="42.474218340" lon="-2.597709620">
        <ele>398.60</ele>
        <time>2014-11-08T08:30:48Z</time>
      </trkpt>
      <trkpt lat="42.474507850" lon="-2.598213040">
        <ele>398.60</ele>
        <time>2014-11-08T08:31:02Z</time>
      </trkpt>
      <trkpt lat="42.474896430" lon="-2.598761550">
        <ele>398.60</ele>
        <time>2014-11-08T08:31:17Z</time>
      </trkpt>
      <trkpt lat="42.475228440" lon="-2.599249550">
        <ele>398.60</ele>
        <time>2014-11-08T08:31:32Z</time>
      </trkpt>
      <trkpt lat="42.475625070" lon="-2.599680380">
        <ele>400.05</ele>
        <time>2014-11-08T08:31:47Z</time>
      </trkpt>
      <trkpt lat="42.475757090" lon="-2.599746090">
        <ele>401.97</ele>
        <time>2014-11-08T08:31:53Z</time>
      </trkpt>
      <trkpt lat="42.475780390" lon="-2.599733770">
        <ele>401.97</ele>
        <time>2014-11-08T08:31:54Z</time>
      </trkpt>
      <trkpt lat="42.475801590" lon="-2.599714160">
        <ele>401.97</ele>
        <time>2014-11-08T08:31:55Z</time>
      </trkpt>
      <trkpt lat="42.476202330" lon="-2.599339320">
        <ele>402.93</ele>
        <time>2014-11-08T08:32:12Z</time>
      </trkpt>
      <trkpt lat="42.476533170" lon="-2.599043180">
        <ele>403.41</ele>
        <time>2014-11-08T08:32:25Z</time>
      </trkpt>
      <trkpt lat="42.476865430" lon="-2.598746210">
        <ele>403.41</ele>
        <time>2014-11-08T08:32:37Z</time>
      </trkpt>
      <trkpt lat="42.477353340" lon="-2.598369530">
        <ele>404.37</ele>
        <time>2014-11-08T08:32:56Z</time>
      </trkpt>
      <trkpt lat="42.477666570" lon="-2.598556530">
        <ele>404.37</ele>
        <time>2014-11-08T08:33:08Z</time>
      </trkpt>
      <trkpt lat="42.478067640" lon="-2.598754180">
        <ele>404.37</ele>
        <time>2014-11-08T08:33:22Z</time>
      </trkpt>
      <trkpt lat="42.478517830" lon="-2.598978980">
        <ele>404.37</ele>
        <time>2014-11-08T08:33:36Z</time>
      </trkpt>
      <trkpt lat="42.478979430" lon="-2.599196570">
        <ele>404.37</ele>
        <time>2014-11-08T08:33:51Z</time>
      </trkpt>
      <trkpt lat="42.479297350" lon="-2.599049390">
        <ele>404.85</ele>
        <time>2014-11-08T08:34:02Z</time>
      </trkpt>
      <trkpt lat="42.479608320" lon="-2.598888790">
        <ele>404.85</ele>
        <time>2014-11-08T08:34:12Z</time>
      </trkpt>
      <trkpt lat="42.480031520" lon="-2.598930110">
        <ele>404.85</ele>
        <time>2014-11-08T08:34:25Z</time>
      </trkpt>
      <trkpt lat="42.480556060" lon="-2.598831370">
        <ele>404.85</ele>
        <time>2014-11-08T08:34:40Z</time>
      </trkpt>
      <trkpt lat="42.481191910" lon="-2.598759960">
        <ele>405.33</ele>
        <time>2014-11-08T08:34:57Z</time>
      </trkpt>
      <trkpt lat="42.481710750" lon="-2.598748980">
        <ele>405.33</ele>
        <time>2014-11-08T08:35:11Z</time>
      </trkpt>
      <trkpt lat="42.482246190" lon="-2.598609590">
        <ele>406.29</ele>
        <time>2014-11-08T08:35:27Z</time>
      </trkpt>
      <trkpt lat="42.482678020" lon="-2.598384030">
        <ele>407.26</ele>
        <time>2014-11-08T08:35:41Z</time>
      </trkpt>
      <trkpt lat="42.483162670" lon="-2.598200970">
        <ele>407.74</ele>
        <time>2014-11-08T08:35:58Z</time>
      </trkpt>
      <trkpt lat="42.483539180" lon="-2.598002990">
        <ele>407.74</ele>
        <time>2014-11-08T08:36:10Z</time>
      </trkpt>
      <trkpt lat="42.483875710" lon="-2.597746090">
        <ele>406.29</ele>
        <time>2014-11-08T08:36:19Z</time>
      </trkpt>
      <trkpt lat="42.484443500" lon="-2.597115260">
        <ele>404.85</ele>
        <time>2014-11-08T08:36:33Z</time>
      </trkpt>
      <trkpt lat="42.484476190" lon="-2.597073940">
        <ele>404.85</ele>
        <time>2014-11-08T08:36:34Z</time>
      </trkpt>
      <trkpt lat="42.484966700" lon="-2.596404060">
        <ele>405.81</ele>
        <time>2014-11-08T08:36:51Z</time>
      </trkpt>
      <trkpt lat="42.485288480" lon="-2.595883960">
        <ele>407.74</ele>
        <time>2014-11-08T08:37:04Z</time>
      </trkpt>
      <trkpt lat="42.485714870" lon="-2.595407200">
        <ele>409.66</ele>
        <time>2014-11-08T08:37:19Z</time>
      </trkpt>
      <trkpt lat="42.486207900" lon="-2.594912420">
        <ele>409.66</ele>
        <time>2014-11-08T08:37:36Z</time>
      </trkpt>
      <trkpt lat="42.486361540" lon="-2.594769920">
        <ele>408.70</ele>
        <time>2014-11-08T08:37:40Z</time>
      </trkpt>
      <trkpt lat="42.486954050" lon="-2.594339510">
        <ele>408.70</ele>
        <time>2014-11-08T08:37:55Z</time>
      </trkpt>
      <trkpt lat="42.487091850" lon="-2.594287040">
        <ele>408.70</ele>
        <time>2014-11-08T08:37:58Z</time>
      </trkpt>
      <trkpt lat="42.487138710" lon="-2.594284020">
        <ele>408.70</ele>
        <time>2014-11-08T08:37:59Z</time>
      </trkpt>
      <trkpt lat="42.487231660" lon="-2.594284950">
        <ele>407.26</ele>
        <time>2014-11-08T08:38:01Z</time>
      </trkpt>
      <trkpt lat="42.487277170" lon="-2.594278580">
        <ele>407.26</ele>
        <time>2014-11-08T08:38:02Z</time>
      </trkpt>
      <trkpt lat="42.487323020" lon="-2.594266420">
        <ele>407.26</ele>
        <time>2014-11-08T08:38:03Z</time>
      </trkpt>
      <trkpt lat="42.487366860" lon="-2.594249740">
        <ele>407.26</ele>
        <time>2014-11-08T08:38:04Z</time>
      </trkpt>
      <trkpt lat="42.487410950" lon="-2.594226780">
        <ele>407.26</ele>
        <time>2014-11-08T08:38:05Z</time>
      </trkpt>
      <trkpt lat="42.487456630" lon="-2.594196100">
        <ele>406.77</ele>
        <time>2014-11-08T08:38:06Z</time>
      </trkpt>
      <trkpt lat="42.487502140" lon="-2.594159220">
        <ele>406.29</ele>
        <time>2014-11-08T08:38:07Z</time>
      </trkpt>
      <trkpt lat="42.487547160" lon="-2.594116130">
        <ele>406.29</ele>
        <time>2014-11-08T08:38:08Z</time>
      </trkpt>
      <trkpt lat="42.487589650" lon="-2.594070120">
        <ele>405.81</ele>
        <time>2014-11-08T08:38:09Z</time>
      </trkpt>
      <trkpt lat="42.487816550" lon="-2.593805500">
        <ele>405.81</ele>
        <time>2014-11-08T08:38:15Z</time>
      </trkpt>
      <trkpt lat="42.487852680" lon="-2.593767700">
        <ele>405.81</ele>
        <time>2014-11-08T08:38:16Z</time>
      </trkpt>
      <trkpt lat="42.488300270" lon="-2.593273590">
        <ele>405.81</ele>
        <time>2014-11-08T08:38:29Z</time>
      </trkpt>
      <trkpt lat="42.488419210" lon="-2.593182310">
        <ele>405.81</ele>
        <time>2014-11-08T08:38:32Z</time>
      </trkpt>
      <trkpt lat="42.488462210" lon="-2.593161520">
        <ele>405.81</ele>
        <time>2014-11-08T08:38:33Z</time>
      </trkpt>
      <trkpt lat="42.488555750" lon="-2.593130420">
        <ele>405.33</ele>
        <time>2014-11-08T08:38:35Z</time>
      </trkpt>
      <trkpt lat="42.488606460" lon="-2.593124300">
        <ele>405.33</ele>
        <time>2014-11-08T08:38:36Z</time>
      </trkpt>
      <trkpt lat="42.488893960" lon="-2.593080630">
        <ele>404.37</ele>
        <time>2014-11-08T08:38:41Z</time>
      </trkpt>
      <trkpt lat="42.489571130" lon="-2.592829510">
        <ele>404.85</ele>
        <time>2014-11-08T08:38:55Z</time>
      </trkpt>
      <trkpt lat="42.490220400" lon="-2.592428690">
        <ele>405.81</ele>
        <time>2014-11-08T08:39:10Z</time>
      </trkpt>
      <trkpt lat="42.490258030" lon="-2.592396670">
        <ele>405.81</ele>
        <time>2014-11-08T08:39:11Z</time>
      </trkpt>
      <trkpt lat="42.490542930" lon="-2.592099700">
        <ele>406.29</ele>
        <time>2014-11-08T08:39:19Z</time>
      </trkpt>
      <trkpt lat="42.490586690" lon="-2.592069110">
        <ele>406.29</ele>
        <time>2014-11-08T08:39:20Z</time>
      </trkpt>
      <trkpt lat="42.491197810" lon="-2.591799880">
        <ele>406.77</ele>
        <time>2014-11-08T08:39:34Z</time>
      </trkpt>
      <trkpt lat="42.491751940" lon="-2.591526130">
        <ele>406.77</ele>
        <time>2014-11-08T08:39:47Z</time>
      </trkpt>
      <trkpt lat="42.491978920" lon="-2.591551020">
        <ele>407.74</ele>
        <time>2014-11-08T08:39:53Z</time>
      </trkpt>
      <trkpt lat="42.492635140" lon="-2.591904490">
        <ele>407.74</ele>
        <time>2014-11-08T08:40:08Z</time>
      </trkpt>
      <trkpt lat="42.492774610" lon="-2.591986040">
        <ele>406.29</ele>
        <time>2014-11-08T08:40:11Z</time>
      </trkpt>
      <trkpt lat="42.493372160" lon="-2.592536820">
        <ele>406.29</ele>
        <time>2014-11-08T08:40:26Z</time>
      </trkpt>
      <trkpt lat="42.493739200" lon="-2.592812830">
        <ele>406.29</ele>
        <time>2014-11-08T08:40:35Z</time>
      </trkpt>
      <trkpt lat="42.494028210" lon="-2.593104610">
        <ele>406.29</ele>
        <time>2014-11-08T08:40:43Z</time>
      </trkpt>
      <trkpt lat="42.494712170" lon="-2.593622270">
        <ele>406.29</ele>
        <time>2014-11-08T08:41:00Z</time>
      </trkpt>
      <trkpt lat="42.495436290" lon="-2.594262480">
        <ele>406.29</ele>
        <time>2014-11-08T08:41:20Z</time>
      </trkpt>
      <trkpt lat="42.495502170" lon="-2.594335240">
        <ele>406.29</ele>
        <time>2014-11-08T08:41:22Z</time>
      </trkpt>
      <trkpt lat="42.495726470" lon="-2.594608740">
        <ele>406.29</ele>
        <time>2014-11-08T08:41:29Z</time>
      </trkpt>
      <trkpt lat="42.495756220" lon="-2.594648720">
        <ele>406.29</ele>
        <time>2014-11-08T08:41:30Z</time>
      </trkpt>
      <trkpt lat="42.496360810" lon="-2.595277700">
        <ele>406.29</ele>
        <time>2014-11-08T08:41:48Z</time>
      </trkpt>
      <trkpt lat="42.496880660" lon="-2.595793860">
        <ele>407.74</ele>
        <time>2014-11-08T08:42:04Z</time>
      </trkpt>
      <trkpt lat="42.497510890" lon="-2.596665990">
        <ele>407.74</ele>
        <time>2014-11-08T08:42:24Z</time>
      </trkpt>
      <trkpt lat="42.498124780" lon="-2.597468640">
        <ele>407.74</ele>
        <time>2014-11-08T08:42:43Z</time>
      </trkpt>
      <trkpt lat="42.498642030" lon="-2.598167190">
        <ele>407.74</ele>
        <time>2014-11-08T08:42:59Z</time>
      </trkpt>
      <trkpt lat="42.499114940" lon="-2.598841100">
        <ele>407.74</ele>
        <time>2014-11-08T08:43:14Z</time>
      </trkpt>
      <trkpt lat="42.499652890" lon="-2.599510140">
        <ele>407.74</ele>
        <time>2014-11-08T08:43:30Z</time>
      </trkpt>
      <trkpt lat="42.500098970" lon="-2.600033510">
        <ele>407.74</ele>
        <time>2014-11-08T08:43:43Z</time>
      </trkpt>
      <trkpt lat="42.500665920" lon="-2.600536590">
        <ele>407.74</ele>
        <time>2014-11-08T08:43:58Z</time>
      </trkpt>
      <trkpt lat="42.501209150" lon="-2.600949900">
        <ele>407.74</ele>
        <time>2014-11-08T08:44:12Z</time>
      </trkpt>
      <trkpt lat="42.501295400" lon="-2.601032130">
        <ele>407.74</ele>
        <time>2014-11-08T08:44:14Z</time>
      </trkpt>
      <trkpt lat="42.501898820" lon="-2.601757080">
        <ele>405.33</ele>
        <time>2014-11-08T08:44:28Z</time>
      </trkpt>
      <trkpt lat="42.502181290" lon="-2.602046000">
        <ele>405.33</ele>
        <time>2014-11-08T08:44:36Z</time>
      </trkpt>
      <trkpt lat="42.502211970" lon="-2.602085820">
        <ele>406.29</ele>
        <time>2014-11-08T08:44:37Z</time>
      </trkpt>
      <trkpt lat="42.502591000" lon="-2.602751340">
        <ele>408.70</ele>
        <time>2014-11-08T08:44:52Z</time>
      </trkpt>
      <trkpt lat="42.503015290" lon="-2.603402700">
        <ele>409.66</ele>
        <time>2014-11-08T08:45:07Z</time>
      </trkpt>
      <trkpt lat="42.503308990" lon="-2.603917760">
        <ele>408.22</ele>
        <time>2014-11-08T08:45:17Z</time>
      </trkpt>
      <trkpt lat="42.503409490" lon="-2.604099480">
        <ele>408.22</ele>
        <time>2014-11-08T08:45:21Z</time>
      </trkpt>
      <trkpt lat="42.503435390" lon="-2.604148940">
        <ele>408.22</ele>
        <time>2014-11-08T08:45:22Z</time>
      </trkpt>
      <trkpt lat="42.503721130" lon="-2.604941280">
        <ele>406.29</ele>
        <time>2014-11-08T08:45:34Z</time>
      </trkpt>
      <trkpt lat="42.504016670" lon="-2.605514180">
        <ele>406.29</ele>
        <time>2014-11-08T08:45:44Z</time>
      </trkpt>
      <trkpt lat="42.504045420" lon="-2.605558770">
        <ele>406.29</ele>
        <time>2014-11-08T08:45:45Z</time>
      </trkpt>
      <trkpt lat="42.504079870" lon="-2.605596320">
        <ele>406.29</ele>
        <time>2014-11-08T08:45:46Z</time>
      </trkpt>
      <trkpt lat="42.504118010" lon="-2.605627670">
        <ele>406.29</ele>
        <time>2014-11-08T08:45:47Z</time>
      </trkpt>
      <trkpt lat="42.504159500" lon="-2.605650640">
        <ele>406.29</ele>
        <time>2014-11-08T08:45:48Z</time>
      </trkpt>
      <trkpt lat="42.504204090" lon="-2.605663630">
        <ele>406.29</ele>
        <time>2014-11-08T08:45:49Z</time>
      </trkpt>
      <trkpt lat="42.504248520" lon="-2.605672680">
        <ele>406.29</ele>
        <time>2014-11-08T08:45:50Z</time>
      </trkpt>
      <trkpt lat="42.504292520" lon="-2.605677380">
        <ele>406.29</ele>
        <time>2014-11-08T08:45:51Z</time>
      </trkpt>
      <trkpt lat="42.504336610" lon="-2.605677880">
        <ele>406.29</ele>
        <time>2014-11-08T08:45:52Z</time>
      </trkpt>
      <trkpt lat="42.504380530" lon="-2.605671090">
        <ele>406.29</ele>
        <time>2014-11-08T08:45:53Z</time>
      </trkpt>
      <trkpt lat="42.504424030" lon="-2.605662630">
        <ele>406.29</ele>
        <time>2014-11-08T08:45:54Z</time>
      </trkpt>
      <trkpt lat="42.504465520" lon="-2.605654580">
        <ele>406.29</ele>
        <time>2014-11-08T08:45:55Z</time>
      </trkpt>
      <trkpt lat="42.504506010" lon="-2.605646200">
        <ele>406.29</ele>
        <time>2014-11-08T08:45:56Z</time>
      </trkpt>
      <trkpt lat="42.504546330" lon="-2.605641840">
        <ele>406.29</ele>
        <time>2014-11-08T08:45:57Z</time>
      </trkpt>
      <trkpt lat="42.504584550" lon="-2.605642010">
        <ele>406.29</ele>
        <time>2014-11-08T08:45:58Z</time>
      </trkpt>
      <trkpt lat="42.504621090" lon="-2.605645860">
        <ele>406.29</ele>
        <time>2014-11-08T08:45:59Z</time>
      </trkpt>
      <trkpt lat="42.504656380" lon="-2.605655170">
        <ele>407.26</ele>
        <time>2014-11-08T08:46:00Z</time>
      </trkpt>
      <trkpt lat="42.504689150" lon="-2.605676290">
        <ele>407.26</ele>
        <time>2014-11-08T08:46:01Z</time>
      </trkpt>
      <trkpt lat="42.504710110" lon="-2.605714260">
        <ele>407.26</ele>
        <time>2014-11-08T08:46:02Z</time>
      </trkpt>
      <trkpt lat="42.504707840" lon="-2.605759100">
        <ele>407.26</ele>
        <time>2014-11-08T08:46:03Z</time>
      </trkpt>
      <trkpt lat="42.504684880" lon="-2.605797570">
        <ele>407.26</ele>
        <time>2014-11-08T08:46:04Z</time>
      </trkpt>
      <trkpt lat="42.504657720" lon="-2.605828420">
        <ele>407.26</ele>
        <time>2014-11-08T08:46:05Z</time>
      </trkpt>
      <trkpt lat="42.504626540" lon="-2.605853900">
        <ele>407.26</ele>
        <time>2014-11-08T08:46:06Z</time>
      </trkpt>
      <trkpt lat="42.504591840" lon="-2.605874860">
        <ele>407.26</ele>
        <time>2014-11-08T08:46:07Z</time>
      </trkpt>
      <trkpt lat="42.504556640" lon="-2.605893880">
        <ele>407.26</ele>
        <time>2014-11-08T08:46:08Z</time>
      </trkpt>
      <trkpt lat="42.504182720" lon="-2.606314230">
        <ele>408.70</ele>
        <time>2014-11-08T08:46:21Z</time>
      </trkpt>
      <trkpt lat="42.504177860" lon="-2.606369220">
        <ele>408.70</ele>
        <time>2014-11-08T08:46:22Z</time>
      </trkpt>
      <trkpt lat="42.504146340" lon="-2.607192570">
        <ele>409.66</ele>
        <time>2014-11-08T08:46:38Z</time>
      </trkpt>
      <trkpt lat="42.504183050" lon="-2.607839910">
        <ele>412.54</ele>
        <time>2014-11-08T08:46:52Z</time>
      </trkpt>
      <trkpt lat="42.504341560" lon="-2.608444410">
        <ele>413.98</ele>
        <time>2014-11-08T08:47:07Z</time>
      </trkpt>
      <trkpt lat="42.504329740" lon="-2.608581040">
        <ele>414.47</ele>
        <time>2014-11-08T08:47:11Z</time>
      </trkpt>
      <trkpt lat="42.504305600" lon="-2.608603670">
        <ele>414.47</ele>
        <time>2014-11-08T08:47:12Z</time>
      </trkpt>
      <trkpt lat="42.504276430" lon="-2.608618750">
        <ele>414.47</ele>
        <time>2014-11-08T08:47:13Z</time>
      </trkpt>
      <trkpt lat="42.504243910" lon="-2.608628230">
        <ele>414.47</ele>
        <time>2014-11-08T08:47:14Z</time>
      </trkpt>
      <trkpt lat="42.504209210" lon="-2.608632330">
        <ele>414.47</ele>
        <time>2014-11-08T08:47:15Z</time>
      </trkpt>
      <trkpt lat="42.504173500" lon="-2.608632080">
        <ele>414.47</ele>
        <time>2014-11-08T08:47:16Z</time>
      </trkpt>
      <trkpt lat="42.503847530" lon="-2.608632420">
        <ele>414.47</ele>
        <time>2014-11-08T08:47:25Z</time>
      </trkpt>
      <trkpt lat="42.503812240" lon="-2.608656720">
        <ele>414.47</ele>
        <time>2014-11-08T08:47:26Z</time>
      </trkpt>
      <trkpt lat="42.503777960" lon="-2.608687490">
        <ele>414.47</ele>
        <time>2014-11-08T08:47:27Z</time>
      </trkpt>
      <trkpt lat="42.503745520" lon="-2.608718500">
        <ele>414.47</ele>
        <time>2014-11-08T08:47:28Z</time>
      </trkpt>
      <trkpt lat="42.503715090" lon="-2.608751190">
        <ele>414.47</ele>
        <time>2014-11-08T08:47:29Z</time>
      </trkpt>
      <trkpt lat="42.503230450" lon="-2.609314540">
        <ele>414.95</ele>
        <time>2014-11-08T08:47:45Z</time>
      </trkpt>
      <trkpt lat="42.503201700" lon="-2.609355690">
        <ele>415.43</ele>
        <time>2014-11-08T08:47:46Z</time>
      </trkpt>
      <trkpt lat="42.503176300" lon="-2.609403050">
        <ele>415.43</ele>
        <time>2014-11-08T08:47:47Z</time>
      </trkpt>
      <trkpt lat="42.503131290" lon="-2.609504050">
        <ele>415.43</ele>
        <time>2014-11-08T08:47:49Z</time>
      </trkpt>
      <trkpt lat="42.502926270" lon="-2.609981230">
        <ele>415.43</ele>
        <time>2014-11-08T08:47:58Z</time>
      </trkpt>
      <trkpt lat="42.502834070" lon="-2.610149540">
        <ele>413.98</ele>
        <time>2014-11-08T08:48:01Z</time>
      </trkpt>
      <trkpt lat="42.502763330" lon="-2.610262610">
        <ele>412.54</ele>
        <time>2014-11-08T08:48:03Z</time>
      </trkpt>
      <trkpt lat="42.502724850" lon="-2.610305780">
        <ele>412.06</ele>
        <time>2014-11-08T08:48:04Z</time>
      </trkpt>
      <trkpt lat="42.502682020" lon="-2.610334030">
        <ele>411.58</ele>
        <time>2014-11-08T08:48:05Z</time>
      </trkpt>
      <trkpt lat="42.502633070" lon="-2.610337210">
        <ele>410.62</ele>
        <time>2014-11-08T08:48:06Z</time>
      </trkpt>
      <trkpt lat="42.502580770" lon="-2.610313910">
        <ele>410.14</ele>
        <time>2014-11-08T08:48:07Z</time>
      </trkpt>
      <trkpt lat="42.502530310" lon="-2.610269070">
        <ele>410.14</ele>
        <time>2014-11-08T08:48:08Z</time>
      </trkpt>
      <trkpt lat="42.502480520" lon="-2.610214590">
        <ele>409.18</ele>
        <time>2014-11-08T08:48:09Z</time>
      </trkpt>
      <trkpt lat="42.502063350" lon="-2.609772520">
        <ele>408.22</ele>
        <time>2014-11-08T08:48:17Z</time>
      </trkpt>
      <trkpt lat="42.502006940" lon="-2.609741680">
        <ele>408.22</ele>
        <time>2014-11-08T08:48:18Z</time>
      </trkpt>
      <trkpt lat="42.501948690" lon="-2.609735730">
        <ele>408.22</ele>
        <time>2014-11-08T08:48:19Z</time>
      </trkpt>
      <trkpt lat="42.501891610" lon="-2.609752070">
        <ele>408.22</ele>
        <time>2014-11-08T08:48:20Z</time>
      </trkpt>
      <trkpt lat="42.501838130" lon="-2.609787700">
        <ele>408.70</ele>
        <time>2014-11-08T08:48:21Z</time>
      </trkpt>
      <trkpt lat="42.501790100" lon="-2.609836730">
        <ele>408.70</ele>
        <time>2014-11-08T08:48:22Z</time>
      </trkpt>
      <trkpt lat="42.501747270" lon="-2.609890710">
        <ele>408.70</ele>
        <time>2014-11-08T08:48:23Z</time>
      </trkpt>
      <trkpt lat="42.501118970" lon="-2.610630410">
        <ele>408.70</ele>
        <time>2014-11-08T08:48:38Z</time>
      </trkpt>
      <trkpt lat="42.500874210" lon="-2.610871640">
        <ele>408.70</ele>
        <time>2014-11-08T08:48:44Z</time>
      </trkpt>
      <trkpt lat="42.500839260" lon="-2.610926630">
        <ele>408.70</ele>
        <time>2014-11-08T08:48:45Z</time>
      </trkpt>
      <trkpt lat="42.500810510" lon="-2.610986640">
        <ele>408.70</ele>
        <time>2014-11-08T08:48:46Z</time>
      </trkpt>
      <trkpt lat="42.500786290" lon="-2.611048500">
        <ele>408.70</ele>
        <time>2014-11-08T08:48:47Z</time>
      </trkpt>
      <trkpt lat="42.500764910" lon="-2.611110690">
        <ele>408.70</ele>
        <time>2014-11-08T08:48:48Z</time>
      </trkpt>
      <trkpt lat="42.500726270" lon="-2.611227870">
        <ele>408.70</ele>
        <time>2014-11-08T08:48:50Z</time>
      </trkpt>
      <trkpt lat="42.500702300" lon="-2.611283030">
        <ele>408.70</ele>
        <time>2014-11-08T08:48:51Z</time>
      </trkpt>
      <trkpt lat="42.500673720" lon="-2.611337680">
        <ele>408.70</ele>
        <time>2014-11-08T08:48:52Z</time>
      </trkpt>
      <trkpt lat="42.500640020" lon="-2.611390650">
        <ele>408.70</ele>
        <time>2014-11-08T08:48:53Z</time>
      </trkpt>
      <trkpt lat="42.500602390" lon="-2.611436830">
        <ele>408.70</ele>
        <time>2014-11-08T08:48:54Z</time>
      </trkpt>
      <trkpt lat="42.500561400" lon="-2.611472790">
        <ele>408.70</ele>
        <time>2014-11-08T08:48:55Z</time>
      </trkpt>
      <trkpt lat="42.500515550" lon="-2.611500450">
        <ele>408.70</ele>
        <time>2014-11-08T08:48:56Z</time>
      </trkpt>
      <trkpt lat="42.500468610" lon="-2.611523670">
        <ele>408.70</ele>
        <time>2014-11-08T08:48:57Z</time>
      </trkpt>
      <trkpt lat="42.500378680" lon="-2.611561390">
        <ele>408.70</ele>
        <time>2014-11-08T08:48:59Z</time>
      </trkpt>
      <trkpt lat="42.500289830" lon="-2.611593580">
        <ele>408.70</ele>
        <time>2014-11-08T08:49:01Z</time>
      </trkpt>
      <trkpt lat="42.500159070" lon="-2.611674210">
        <ele>408.70</ele>
        <time>2014-11-08T08:49:04Z</time>
      </trkpt>
      <trkpt lat="42.500118840" lon="-2.611712100">
        <ele>408.70</ele>
        <time>2014-11-08T08:49:05Z</time>
      </trkpt>
      <trkpt lat="42.499960840" lon="-2.611869680">
        <ele>408.70</ele>
        <time>2014-11-08T08:49:09Z</time>
      </trkpt>
      <trkpt lat="42.499917590" lon="-2.611901610">
        <ele>408.70</ele>
        <time>2014-11-08T08:49:10Z</time>
      </trkpt>
      <trkpt lat="42.499210150" lon="-2.612412240">
        <ele>409.66</ele>
        <time>2014-11-08T08:49:27Z</time>
      </trkpt>
      <trkpt lat="42.499167910" lon="-2.612436960">
        <ele>409.66</ele>
        <time>2014-11-08T08:49:28Z</time>
      </trkpt>
      <trkpt lat="42.499122230" lon="-2.612455820">
        <ele>409.66</ele>
        <time>2014-11-08T08:49:29Z</time>
      </trkpt>
      <trkpt lat="42.499074620" lon="-2.612466050">
        <ele>409.66</ele>
        <time>2014-11-08T08:49:30Z</time>
      </trkpt>
      <trkpt lat="42.499027430" lon="-2.612465210">
        <ele>409.66</ele>
        <time>2014-11-08T08:49:31Z</time>
      </trkpt>
      <trkpt lat="42.498983010" lon="-2.612454980">
        <ele>409.66</ele>
        <time>2014-11-08T08:49:32Z</time>
      </trkpt>
      <trkpt lat="42.498941350" lon="-2.612437970">
        <ele>409.66</ele>
        <time>2014-11-08T08:49:33Z</time>
      </trkpt>
      <trkpt lat="42.498900610" lon="-2.612415920">
        <ele>409.66</ele>
        <time>2014-11-08T08:49:34Z</time>
      </trkpt>
      <trkpt lat="42.498859620" lon="-2.612389940">
        <ele>409.66</ele>
        <time>2014-11-08T08:49:35Z</time>
      </trkpt>
      <trkpt lat="42.498494260" lon="-2.612096410">
        <ele>409.66</ele>
        <time>2014-11-08T08:49:44Z</time>
      </trkpt>
      <trkpt lat="42.498404910" lon="-2.612048040">
        <ele>409.66</ele>
        <time>2014-11-08T08:49:46Z</time>
      </trkpt>
      <trkpt lat="42.498356790" lon="-2.612033460">
        <ele>409.66</ele>
        <time>2014-11-08T08:49:47Z</time>
      </trkpt>
      <trkpt lat="42.498306000" lon="-2.612026000">
        <ele>409.66</ele>
        <time>2014-11-08T08:49:48Z</time>
      </trkpt>
      <trkpt lat="42.498254030" lon="-2.612027510">
        <ele>409.66</ele>
        <time>2014-11-08T08:49:49Z</time>
      </trkpt>
      <trkpt lat="42.498202060" lon="-2.612039660">
        <ele>409.66</ele>
        <time>2014-11-08T08:49:50Z</time>
      </trkpt>
      <trkpt lat="42.498152270" lon="-2.612062120">
        <ele>409.66</ele>
        <time>2014-11-08T08:49:51Z</time>
      </trkpt>
      <trkpt lat="42.498104410" lon="-2.612092470">
        <ele>409.66</ele>
        <time>2014-11-08T08:49:52Z</time>
      </trkpt>
      <trkpt lat="42.497568560" lon="-2.612337970">
        <ele>410.14</ele>
        <time>2014-11-08T08:50:04Z</time>
      </trkpt>
      <trkpt lat="42.497525730" lon="-2.612359850">
        <ele>410.14</ele>
        <time>2014-11-08T08:50:05Z</time>
      </trkpt>
      <trkpt lat="42.497482810" lon="-2.612386670">
        <ele>410.14</ele>
        <time>2014-11-08T08:50:06Z</time>
      </trkpt>
      <trkpt lat="42.497443840" lon="-2.612420700">
        <ele>410.14</ele>
        <time>2014-11-08T08:50:07Z</time>
      </trkpt>
      <trkpt lat="42.497407040" lon="-2.612460180">
        <ele>410.14</ele>
        <time>2014-11-08T08:50:08Z</time>
      </trkpt>
      <trkpt lat="42.497374350" lon="-2.612504690">
        <ele>410.14</ele>
        <time>2014-11-08T08:50:09Z</time>
      </trkpt>
      <trkpt lat="42.497347110" lon="-2.612556990">
        <ele>410.14</ele>
        <time>2014-11-08T08:50:10Z</time>
      </trkpt>
      <trkpt lat="42.497325480" lon="-2.612614910">
        <ele>410.62</ele>
        <time>2014-11-08T08:50:11Z</time>
      </trkpt>
      <trkpt lat="42.497306960" lon="-2.612674340">
        <ele>410.62</ele>
        <time>2014-11-08T08:50:12Z</time>
      </trkpt>
      <trkpt lat="42.497291450" lon="-2.612733680">
        <ele>410.62</ele>
        <time>2014-11-08T08:50:13Z</time>
      </trkpt>
      <trkpt lat="42.497254660" lon="-2.612911880">
        <ele>410.62</ele>
        <time>2014-11-08T08:50:16Z</time>
      </trkpt>
      <trkpt lat="42.497258600" lon="-2.612973910">
        <ele>410.62</ele>
        <time>2014-11-08T08:50:17Z</time>
      </trkpt>
      <trkpt lat="42.497276620" lon="-2.613033250">
        <ele>411.10</ele>
        <time>2014-11-08T08:50:18Z</time>
      </trkpt>
      <trkpt lat="42.497305030" lon="-2.613085550">
        <ele>411.10</ele>
        <time>2014-11-08T08:50:19Z</time>
      </trkpt>
      <trkpt lat="42.497341490" lon="-2.613127630">
        <ele>411.10</ele>
        <time>2014-11-08T08:50:20Z</time>
      </trkpt>
      <trkpt lat="42.497382310" lon="-2.613163760">
        <ele>411.10</ele>
        <time>2014-11-08T08:50:21Z</time>
      </trkpt>
      <trkpt lat="42.497424220" lon="-2.613199880">
        <ele>411.10</ele>
        <time>2014-11-08T08:50:22Z</time>
      </trkpt>
      <trkpt lat="42.497894450" lon="-2.613771280">
        <ele>413.02</ele>
        <time>2014-11-08T08:50:37Z</time>
      </trkpt>
      <trkpt lat="42.498078180" lon="-2.613909750">
        <ele>416.39</ele>
        <time>2014-11-08T08:50:44Z</time>
      </trkpt>
      <trkpt lat="42.498368610" lon="-2.614221970">
        <ele>419.75</ele>
        <time>2014-11-08T08:50:56Z</time>
      </trkpt>
      <trkpt lat="42.498773040" lon="-2.614549290">
        <ele>422.16</ele>
        <time>2014-11-08T08:51:12Z</time>
      </trkpt>
      <trkpt lat="42.499066320" lon="-2.615159660">
        <ele>422.64</ele>
        <time>2014-11-08T08:51:27Z</time>
      </trkpt>
      <trkpt lat="42.499223900" lon="-2.615437010">
        <ele>422.16</ele>
        <time>2014-11-08T08:51:34Z</time>
      </trkpt>
      <trkpt lat="42.499259110" lon="-2.615466350">
        <ele>422.16</ele>
        <time>2014-11-08T08:51:35Z</time>
      </trkpt>
      <trkpt lat="42.499298840" lon="-2.615486300">
        <ele>422.16</ele>
        <time>2014-11-08T08:51:36Z</time>
      </trkpt>
      <trkpt lat="42.499341330" lon="-2.615498870">
        <ele>422.16</ele>
        <time>2014-11-08T08:51:37Z</time>
      </trkpt>
      <trkpt lat="42.499383240" lon="-2.615507840">
        <ele>422.16</ele>
        <time>2014-11-08T08:51:38Z</time>
      </trkpt>
      <trkpt lat="42.499466390" lon="-2.615521000">
        <ele>422.16</ele>
        <time>2014-11-08T08:51:40Z</time>
      </trkpt>
      <trkpt lat="42.500159490" lon="-2.615599620">
        <ele>424.08</ele>
        <time>2014-11-08T08:51:58Z</time>
      </trkpt>
      <trkpt lat="42.500755190" lon="-2.615798530">
        <ele>427.44</ele>
        <time>2014-11-08T08:52:16Z</time>
      </trkpt>
      <trkpt lat="42.501281410" lon="-2.615759050">
        <ele>430.33</ele>
        <time>2014-11-08T08:52:34Z</time>
      </trkpt>
      <trkpt lat="42.501635040" lon="-2.615856110">
        <ele>433.21</ele>
        <time>2014-11-08T08:52:48Z</time>
      </trkpt>
      <trkpt lat="42.501796310" lon="-2.616091640">
        <ele>436.58</ele>
        <time>2014-11-08T08:52:58Z</time>
      </trkpt>
      <trkpt lat="42.501984310" lon="-2.616278810">
        <ele>439.94</ele>
        <time>2014-11-08T08:53:08Z</time>
      </trkpt>
      <trkpt lat="42.502296200" lon="-2.616295570">
        <ele>442.82</ele>
        <time>2014-11-08T08:53:22Z</time>
      </trkpt>
      <trkpt lat="42.502558640" lon="-2.616227850">
        <ele>446.19</ele>
        <time>2014-11-08T08:53:34Z</time>
      </trkpt>
      <trkpt lat="42.502576490" lon="-2.616233290">
        <ele>446.19</ele>
        <time>2014-11-08T08:53:35Z</time>
      </trkpt>
      <trkpt lat="42.502592670" lon="-2.616245280">
        <ele>446.19</ele>
        <time>2014-11-08T08:53:36Z</time>
      </trkpt>
      <trkpt lat="42.502625860" lon="-2.616274950">
        <ele>447.15</ele>
        <time>2014-11-08T08:53:39Z</time>
      </trkpt>
      <trkpt lat="42.502631560" lon="-2.616287860">
        <ele>447.15</ele>
        <time>2014-11-08T08:53:40Z</time>
      </trkpt>
      <trkpt lat="42.502632230" lon="-2.616300940">
        <ele>447.15</ele>
        <time>2014-11-08T08:53:41Z</time>
      </trkpt>
      <trkpt lat="42.502621420" lon="-2.616318710">
        <ele>447.15</ele>
        <time>2014-11-08T08:53:56Z</time>
      </trkpt>
      <trkpt lat="42.502658130" lon="-2.616317280">
        <ele>447.15</ele>
        <time>2014-11-08T08:54:04Z</time>
      </trkpt>
      <trkpt lat="42.502667940" lon="-2.616301020">
        <ele>447.15</ele>
        <time>2014-11-08T08:54:05Z</time>
      </trkpt>
      <trkpt lat="42.502678080" lon="-2.616286940">
        <ele>447.15</ele>
        <time>2014-11-08T08:54:06Z</time>
      </trkpt>
      <trkpt lat="42.502691080" lon="-2.616275460">
        <ele>447.15</ele>
        <time>2014-11-08T08:54:07Z</time>
      </trkpt>
      <trkpt lat="42.502705740" lon="-2.616267660">
        <ele>447.15</ele>
        <time>2014-11-08T08:54:08Z</time>
      </trkpt>
      <trkpt lat="42.502720410" lon="-2.616266570">
        <ele>447.63</ele>
        <time>2014-11-08T08:54:09Z</time>
      </trkpt>
      <trkpt lat="42.502736000" lon="-2.616265650">
        <ele>447.63</ele>
        <time>2014-11-08T08:54:10Z</time>
      </trkpt>
      <trkpt lat="42.502753350" lon="-2.616267070">
        <ele>447.63</ele>
        <time>2014-11-08T08:54:11Z</time>
      </trkpt>
      <trkpt lat="42.502773890" lon="-2.616273030">
        <ele>447.63</ele>
        <time>2014-11-08T08:54:12Z</time>
      </trkpt>
      <trkpt lat="42.502793920" lon="-2.616278470">
        <ele>447.63</ele>
        <time>2014-11-08T08:54:13Z</time>
      </trkpt>
      <trkpt lat="42.502814960" lon="-2.616286100">
        <ele>448.11</ele>
        <time>2014-11-08T08:54:14Z</time>
      </trkpt>
      <trkpt lat="42.503273280" lon="-2.616421720">
        <ele>448.11</ele>
        <time>2014-11-08T08:54:32Z</time>
      </trkpt>
      <trkpt lat="42.503625240" lon="-2.616554070">
        <ele>449.07</ele>
        <time>2014-11-08T08:54:45Z</time>
      </trkpt>
      <trkpt lat="42.503984400" lon="-2.616715840">
        <ele>451.48</ele>
        <time>2014-11-08T08:55:02Z</time>
      </trkpt>
      <trkpt lat="42.504245250" lon="-2.616825220">
        <ele>453.88</ele>
        <time>2014-11-08T08:55:14Z</time>
      </trkpt>
      <trkpt lat="42.504604580" lon="-2.616944500">
        <ele>456.76</ele>
        <time>2014-11-08T08:55:30Z</time>
      </trkpt>
      <trkpt lat="42.504981180" lon="-2.616999230">
        <ele>459.65</ele>
        <time>2014-11-08T08:55:47Z</time>
      </trkpt>
      <trkpt lat="42.505264320" lon="-2.617029740">
        <ele>460.13</ele>
        <time>2014-11-08T08:56:00Z</time>
      </trkpt>
      <trkpt lat="42.505630020" lon="-2.617048020">
        <ele>460.13</ele>
        <time>2014-11-08T08:56:12Z</time>
      </trkpt>
      <trkpt lat="42.505756000" lon="-2.617051370">
        <ele>458.69</ele>
        <time>2014-11-08T08:56:15Z</time>
      </trkpt>
      <trkpt lat="42.505848290" lon="-2.617037290">
        <ele>458.21</ele>
        <time>2014-11-08T08:56:17Z</time>
      </trkpt>
      <trkpt lat="42.505894550" lon="-2.617021360">
        <ele>458.21</ele>
        <time>2014-11-08T08:56:18Z</time>
      </trkpt>
      <trkpt lat="42.506104270" lon="-2.616918180">
        <ele>457.72</ele>
        <time>2014-11-08T08:56:23Z</time>
      </trkpt>
      <trkpt lat="42.506243330" lon="-2.616796220">
        <ele>457.72</ele>
        <time>2014-11-08T08:56:27Z</time>
      </trkpt>
      <trkpt lat="42.506428650" lon="-2.616590620">
        <ele>459.17</ele>
        <time>2014-11-08T08:56:33Z</time>
      </trkpt>
      <trkpt lat="42.506576170" lon="-2.616529850">
        <ele>459.65</ele>
        <time>2014-11-08T08:56:37Z</time>
      </trkpt>
      <trkpt lat="42.506664260" lon="-2.616529260">
        <ele>459.65</ele>
        <time>2014-11-08T08:56:39Z</time>
      </trkpt>
      <trkpt lat="42.506709860" lon="-2.616536300">
        <ele>459.65</ele>
        <time>2014-11-08T08:56:40Z</time>
      </trkpt>
      <trkpt lat="42.507392570" lon="-2.616703350">
        <ele>459.65</ele>
        <time>2014-11-08T08:56:54Z</time>
      </trkpt>
      <trkpt lat="42.507628350" lon="-2.616671840">
        <ele>459.65</ele>
        <time>2014-11-08T08:56:59Z</time>
      </trkpt>
      <trkpt lat="42.507669760" lon="-2.616654990">
        <ele>459.65</ele>
        <time>2014-11-08T08:57:00Z</time>
      </trkpt>
      <trkpt lat="42.507751730" lon="-2.616615430">
        <ele>459.65</ele>
        <time>2014-11-08T08:57:02Z</time>
      </trkpt>
      <trkpt lat="42.508564190" lon="-2.616377300">
        <ele>461.09</ele>
        <time>2014-11-08T08:57:22Z</time>
      </trkpt>
      <trkpt lat="42.508973980" lon="-2.616260030">
        <ele>463.97</ele>
        <time>2014-11-08T08:57:36Z</time>
      </trkpt>
      <trkpt lat="42.508986720" lon="-2.616247540">
        <ele>464.45</ele>
        <time>2014-11-08T08:57:37Z</time>
      </trkpt>
      <trkpt lat="42.509002560" lon="-2.616237570">
        <ele>464.45</ele>
        <time>2014-11-08T08:57:38Z</time>
      </trkpt>
      <trkpt lat="42.509022350" lon="-2.616239160">
        <ele>464.45</ele>
        <time>2014-11-08T08:57:39Z</time>
      </trkpt>
      <trkpt lat="42.509039950" lon="-2.616243770">
        <ele>464.45</ele>
        <time>2014-11-08T08:57:40Z</time>
      </trkpt>
      <trkpt lat="42.509057300" lon="-2.616244280">
        <ele>464.45</ele>
        <time>2014-11-08T08:57:41Z</time>
      </trkpt>
      <trkpt lat="42.509076740" lon="-2.616243190">
        <ele>464.45</ele>
        <time>2014-11-08T08:57:42Z</time>
      </trkpt>
      <trkpt lat="42.509344040" lon="-2.616209490">
        <ele>464.45</ele>
        <time>2014-11-08T08:57:58Z</time>
      </trkpt>
      <trkpt lat="42.509744200" lon="-2.616233380">
        <ele>464.45</ele>
        <time>2014-11-08T08:58:11Z</time>
      </trkpt>
      <trkpt lat="42.509908150" lon="-2.616268500">
        <ele>463.49</ele>
        <time>2014-11-08T08:58:15Z</time>
      </trkpt>
      <trkpt lat="42.510661010" lon="-2.616311160">
        <ele>463.01</ele>
        <time>2014-11-08T08:58:34Z</time>
      </trkpt>
      <trkpt lat="42.511017990" lon="-2.616284170">
        <ele>463.01</ele>
        <time>2014-11-08T08:58:43Z</time>
      </trkpt>
      <trkpt lat="42.511059400" lon="-2.616297330">
        <ele>462.53</ele>
        <time>2014-11-08T08:58:44Z</time>
      </trkpt>
      <trkpt lat="42.511343970" lon="-2.616467490">
        <ele>459.17</ele>
        <time>2014-11-08T08:58:50Z</time>
      </trkpt>
      <trkpt lat="42.511568850" lon="-2.616585250">
        <ele>455.32</ele>
        <time>2014-11-08T08:58:54Z</time>
      </trkpt>
      <trkpt lat="42.511787450" lon="-2.616683990">
        <ele>451.96</ele>
        <time>2014-11-08T08:58:58Z</time>
      </trkpt>
      <trkpt lat="42.511843360" lon="-2.616702680">
        <ele>450.52</ele>
        <time>2014-11-08T08:59:00Z</time>
      </trkpt>
      <trkpt lat="42.511865400" lon="-2.616729000">
        <ele>450.52</ele>
        <time>2014-11-08T08:59:01Z</time>
      </trkpt>
      <trkpt lat="42.511885690" lon="-2.616769820">
        <ele>450.52</ele>
        <time>2014-11-08T08:59:02Z</time>
      </trkpt>
      <trkpt lat="42.511946120" lon="-2.616879710">
        <ele>449.55</ele>
        <time>2014-11-08T08:59:04Z</time>
      </trkpt>
      <trkpt lat="42.512000770" lon="-2.616923960">
        <ele>448.11</ele>
        <time>2014-11-08T08:59:05Z</time>
      </trkpt>
      <trkpt lat="42.512064050" lon="-2.616950950">
        <ele>447.15</ele>
        <time>2014-11-08T08:59:06Z</time>
      </trkpt>
      <trkpt lat="42.512127420" lon="-2.616962100">
        <ele>446.67</ele>
        <time>2014-11-08T08:59:07Z</time>
      </trkpt>
      <trkpt lat="42.512188270" lon="-2.616955980">
        <ele>446.67</ele>
        <time>2014-11-08T08:59:08Z</time>
      </trkpt>
      <trkpt lat="42.512246360" lon="-2.616932090">
        <ele>445.71</ele>
        <time>2014-11-08T08:59:09Z</time>
      </trkpt>
      <trkpt lat="42.512300340" lon="-2.616897310">
        <ele>445.71</ele>
        <time>2014-11-08T08:59:10Z</time>
      </trkpt>
      <trkpt lat="42.512350800" lon="-2.616858750">
        <ele>445.71</ele>
        <time>2014-11-08T08:59:11Z</time>
      </trkpt>
      <trkpt lat="42.512410230" lon="-2.616832680">
        <ele>445.23</ele>
        <time>2014-11-08T08:59:12Z</time>
      </trkpt>
      <trkpt lat="42.512474260" lon="-2.616833860">
        <ele>445.23</ele>
        <time>2014-11-08T08:59:13Z</time>
      </trkpt>
      <trkpt lat="42.512531930" lon="-2.616854480">
        <ele>444.27</ele>
        <time>2014-11-08T08:59:14Z</time>
      </trkpt>
      <trkpt lat="42.512592200" lon="-2.616884650">
        <ele>443.31</ele>
        <time>2014-11-08T08:59:15Z</time>
      </trkpt>
      <trkpt lat="42.512654640" lon="-2.616914070">
        <ele>442.34</ele>
        <time>2014-11-08T08:59:16Z</time>
      </trkpt>
      <trkpt lat="42.512712980" lon="-2.616928070">
        <ele>441.38</ele>
        <time>2014-11-08T08:59:17Z</time>
      </trkpt>
      <trkpt lat="42.512766630" lon="-2.616914740">
        <ele>441.38</ele>
        <time>2014-11-08T08:59:18Z</time>
      </trkpt>
      <trkpt lat="42.512813310" lon="-2.616871070">
        <ele>440.42</ele>
        <time>2014-11-08T08:59:19Z</time>
      </trkpt>
      <trkpt lat="42.512846090" lon="-2.616803430">
        <ele>440.42</ele>
        <time>2014-11-08T08:59:20Z</time>
      </trkpt>
      <trkpt lat="42.512869640" lon="-2.616731180">
        <ele>440.42</ele>
        <time>2014-11-08T08:59:21Z</time>
      </trkpt>
      <trkpt lat="42.512949600" lon="-2.616546530">
        <ele>440.42</ele>
        <time>2014-11-08T08:59:24Z</time>
      </trkpt>
      <trkpt lat="42.513041720" lon="-2.616404450">
        <ele>440.42</ele>
        <time>2014-11-08T08:59:27Z</time>
      </trkpt>
      <trkpt lat="42.513488980" lon="-2.615993740">
        <ele>440.42</ele>
        <time>2014-11-08T08:59:40Z</time>
      </trkpt>
      <trkpt lat="42.513733810" lon="-2.615875220">
        <ele>441.86</ele>
        <time>2014-11-08T08:59:51Z</time>
      </trkpt>
      <trkpt lat="42.513741190" lon="-2.615855520">
        <ele>441.86</ele>
        <time>2014-11-08T09:00:05Z</time>
      </trkpt>
      <trkpt lat="42.513759210" lon="-2.615879490">
        <ele>441.86</ele>
        <time>2014-11-08T09:00:15Z</time>
      </trkpt>
      <trkpt lat="42.513774800" lon="-2.615898350">
        <ele>441.86</ele>
        <time>2014-11-08T09:00:17Z</time>
      </trkpt>
      <trkpt lat="42.513769520" lon="-2.616078150">
        <ele>442.34</ele>
        <time>2014-11-08T09:00:26Z</time>
      </trkpt>
      <trkpt lat="42.513576900" lon="-2.616490540">
        <ele>442.34</ele>
        <time>2014-11-08T09:00:39Z</time>
      </trkpt>
      <trkpt lat="42.513329300" lon="-2.617094700">
        <ele>442.34</ele>
        <time>2014-11-08T09:00:56Z</time>
      </trkpt>
      <trkpt lat="42.513199630" lon="-2.617782610">
        <ele>443.31</ele>
        <time>2014-11-08T09:01:13Z</time>
      </trkpt>
      <trkpt lat="42.513120090" lon="-2.618547790">
        <ele>443.31</ele>
        <time>2014-11-08T09:01:30Z</time>
      </trkpt>
      <trkpt lat="42.512859160" lon="-2.619309620">
        <ele>443.79</ele>
        <time>2014-11-08T09:01:47Z</time>
      </trkpt>
      <trkpt lat="42.512268490" lon="-2.619960730">
        <ele>443.79</ele>
        <time>2014-11-08T09:02:06Z</time>
      </trkpt>
      <trkpt lat="42.511844450" lon="-2.620275300">
        <ele>442.34</ele>
        <time>2014-11-08T09:02:17Z</time>
      </trkpt>
      <trkpt lat="42.511803550" lon="-2.620304220">
        <ele>442.34</ele>
        <time>2014-11-08T09:02:18Z</time>
      </trkpt>
      <trkpt lat="42.511183120" lon="-2.620806290">
        <ele>440.42</ele>
        <time>2014-11-08T09:02:32Z</time>
      </trkpt>
      <trkpt lat="42.511141290" lon="-2.620852310">
        <ele>440.42</ele>
        <time>2014-11-08T09:02:33Z</time>
      </trkpt>
      <trkpt lat="42.510964010" lon="-2.621044760">
        <ele>439.94</ele>
        <time>2014-11-08T09:02:37Z</time>
      </trkpt>
      <trkpt lat="42.510380210" lon="-2.621915300">
        <ele>438.02</ele>
        <time>2014-11-08T09:02:52Z</time>
      </trkpt>
      <trkpt lat="42.509991630" lon="-2.622613520">
        <ele>438.02</ele>
        <time>2014-11-08T09:03:06Z</time>
      </trkpt>
      <trkpt lat="42.509648220" lon="-2.623389340">
        <ele>438.02</ele>
        <time>2014-11-08T09:03:21Z</time>
      </trkpt>
      <trkpt lat="42.509262740" lon="-2.624138690">
        <ele>438.02</ele>
        <time>2014-11-08T09:03:36Z</time>
      </trkpt>
      <trkpt lat="42.508883880" lon="-2.624581840">
        <ele>437.54</ele>
        <time>2014-11-08T09:03:46Z</time>
      </trkpt>
      <trkpt lat="42.508438290" lon="-2.624918040">
        <ele>436.58</ele>
        <time>2014-11-08T09:03:56Z</time>
      </trkpt>
      <trkpt lat="42.507698680" lon="-2.625465370">
        <ele>435.13</ele>
        <time>2014-11-08T09:04:12Z</time>
      </trkpt>
      <trkpt lat="42.506986970" lon="-2.626266010">
        <ele>435.13</ele>
        <time>2014-11-08T09:04:29Z</time>
      </trkpt>
      <trkpt lat="42.506202670" lon="-2.627497900">
        <ele>435.13</ele>
        <time>2014-11-08T09:04:51Z</time>
      </trkpt>
      <trkpt lat="42.506055990" lon="-2.627738210">
        <ele>436.10</ele>
        <time>2014-11-08T09:04:56Z</time>
      </trkpt>
      <trkpt lat="42.505620130" lon="-2.628384540">
        <ele>439.46</ele>
        <time>2014-11-08T09:05:14Z</time>
      </trkpt>
      <trkpt lat="42.505279410" lon="-2.628712360">
        <ele>442.34</ele>
        <time>2014-11-08T09:05:28Z</time>
      </trkpt>
      <trkpt lat="42.504811110" lon="-2.628999100">
        <ele>445.23</ele>
        <time>2014-11-08T09:05:45Z</time>
      </trkpt>
      <trkpt lat="42.504610280" lon="-2.629093900">
        <ele>446.67</ele>
        <time>2014-11-08T09:05:53Z</time>
      </trkpt>
      <trkpt lat="42.504581360" lon="-2.629084090">
        <ele>446.67</ele>
        <time>2014-11-08T09:05:54Z</time>
      </trkpt>
      <trkpt lat="42.504550940" lon="-2.629081410">
        <ele>446.67</ele>
        <time>2014-11-08T09:05:55Z</time>
      </trkpt>
      <trkpt lat="42.504522520" lon="-2.629092730">
        <ele>446.67</ele>
        <time>2014-11-08T09:05:56Z</time>
      </trkpt>
      <trkpt lat="42.504498130" lon="-2.629115190">
        <ele>446.67</ele>
        <time>2014-11-08T09:05:57Z</time>
      </trkpt>
      <trkpt lat="42.504472060" lon="-2.629133130">
        <ele>446.67</ele>
        <time>2014-11-08T09:05:58Z</time>
      </trkpt>
      <trkpt lat="42.504442980" lon="-2.629133210">
        <ele>447.15</ele>
        <time>2014-11-08T09:05:59Z</time>
      </trkpt>
      <trkpt lat="42.504413980" lon="-2.629125920">
        <ele>447.15</ele>
        <time>2014-11-08T09:06:00Z</time>
      </trkpt>
      <trkpt lat="42.504384890" lon="-2.629117960">
        <ele>447.15</ele>
        <time>2014-11-08T09:06:01Z</time>
      </trkpt>
      <trkpt lat="42.504263100" lon="-2.629125840">
        <ele>447.63</ele>
        <time>2014-11-08T09:06:06Z</time>
      </trkpt>
      <trkpt lat="42.504243320" lon="-2.629117540">
        <ele>447.63</ele>
        <time>2014-11-08T09:06:07Z</time>
      </trkpt>
      <trkpt lat="42.504222200" lon="-2.629108230">
        <ele>447.63</ele>
        <time>2014-11-08T09:06:08Z</time>
      </trkpt>
      <trkpt lat="42.504198140" lon="-2.629106050">
        <ele>447.63</ele>
        <time>2014-11-08T09:06:09Z</time>
      </trkpt>
      <trkpt lat="42.504177270" lon="-2.629114440">
        <ele>447.63</ele>
        <time>2014-11-08T09:06:10Z</time>
      </trkpt>
      <trkpt lat="42.504161680" lon="-2.629126420">
        <ele>447.63</ele>
        <time>2014-11-08T09:06:11Z</time>
      </trkpt>
      <trkpt lat="42.504154970" lon="-2.629140590">
        <ele>448.11</ele>
        <time>2014-11-08T09:06:12Z</time>
      </trkpt>
      <trkpt lat="42.504161010" lon="-2.629150650">
        <ele>448.11</ele>
        <time>2014-11-08T09:06:13Z</time>
      </trkpt>
      <trkpt lat="42.504203760" lon="-2.629138830">
        <ele>448.11</ele>
        <time>2014-11-08T09:06:16Z</time>
      </trkpt>
      <trkpt lat="42.504364270" lon="-2.629080240">
        <ele>448.11</ele>
        <time>2014-11-08T09:06:23Z</time>
      </trkpt>
      <trkpt lat="42.504377770" lon="-2.629090040">
        <ele>448.11</ele>
        <time>2014-11-08T09:06:24Z</time>
      </trkpt>
      <trkpt lat="42.504385810" lon="-2.629107230">
        <ele>448.11</ele>
        <time>2014-11-08T09:06:25Z</time>
      </trkpt>
      <trkpt lat="42.504363770" lon="-2.629136150">
        <ele>448.11</ele>
        <time>2014-11-08T09:06:27Z</time>
      </trkpt>
      <trkpt lat="42.504343650" lon="-2.629138740">
        <ele>448.11</ele>
        <time>2014-11-08T09:06:28Z</time>
      </trkpt>
      <trkpt lat="42.504319510" lon="-2.629141340">
        <ele>448.11</ele>
        <time>2014-11-08T09:06:29Z</time>
      </trkpt>
      <trkpt lat="42.504293530" lon="-2.629140340">
        <ele>448.11</ele>
        <time>2014-11-08T09:06:30Z</time>
      </trkpt>
      <trkpt lat="42.504266540" lon="-2.629139000">
        <ele>448.11</ele>
        <time>2014-11-08T09:06:31Z</time>
      </trkpt>
      <trkpt lat="42.503665140" lon="-2.629090630">
        <ele>448.59</ele>
        <time>2014-11-08T09:06:50Z</time>
      </trkpt>
      <trkpt lat="42.503053510" lon="-2.628791650">
        <ele>449.07</ele>
        <time>2014-11-08T09:07:07Z</time>
      </trkpt>
      <trkpt lat="42.502943290" lon="-2.628701960">
        <ele>447.63</ele>
        <time>2014-11-08T09:07:10Z</time>
      </trkpt>
      <trkpt lat="42.502317160" lon="-2.628114390">
        <ele>445.71</ele>
        <time>2014-11-08T09:07:25Z</time>
      </trkpt>
      <trkpt lat="42.501961180" lon="-2.627773670">
        <ele>445.23</ele>
        <time>2014-11-08T09:07:33Z</time>
      </trkpt>
      <trkpt lat="42.501063480" lon="-2.626869090">
        <ele>443.31</ele>
        <time>2014-11-08T09:07:51Z</time>
      </trkpt>
      <trkpt lat="42.500259820" lon="-2.626070800">
        <ele>439.46</ele>
        <time>2014-11-08T09:08:02Z</time>
      </trkpt>
      <trkpt lat="42.500102740" lon="-2.625897880">
        <ele>436.10</ele>
        <time>2014-11-08T09:08:04Z</time>
      </trkpt>
      <trkpt lat="42.499875010" lon="-2.625632010">
        <ele>434.65</ele>
        <time>2014-11-08T09:08:07Z</time>
      </trkpt>
      <trkpt lat="42.499415340" lon="-2.624973190">
        <ele>434.65</ele>
        <time>2014-11-08T09:08:14Z</time>
      </trkpt>
      <trkpt lat="42.498604810" lon="-2.623308120">
        <ele>432.25</ele>
        <time>2014-11-08T09:08:30Z</time>
      </trkpt>
      <trkpt lat="42.497887320" lon="-2.622414950">
        <ele>430.81</ele>
        <time>2014-11-08T09:08:41Z</time>
      </trkpt>
      <trkpt lat="42.497809290" lon="-2.622361640">
        <ele>430.81</ele>
        <time>2014-11-08T09:08:42Z</time>
      </trkpt>
      <trkpt lat="42.497728490" lon="-2.622319230">
        <ele>430.33</ele>
        <time>2014-11-08T09:08:43Z</time>
      </trkpt>
      <trkpt lat="42.497644580" lon="-2.622287380">
        <ele>430.33</ele>
        <time>2014-11-08T09:08:44Z</time>
      </trkpt>
      <trkpt lat="42.497559840" lon="-2.622266340">
        <ele>430.33</ele>
        <time>2014-11-08T09:08:45Z</time>
      </trkpt>
      <trkpt lat="42.497473930" lon="-2.622251590">
        <ele>429.37</ele>
        <time>2014-11-08T09:08:46Z</time>
      </trkpt>
      <trkpt lat="42.497301850" lon="-2.622242200">
        <ele>429.37</ele>
        <time>2014-11-08T09:08:48Z</time>
      </trkpt>
      <trkpt lat="42.497125910" lon="-2.622272120">
        <ele>428.89</ele>
        <time>2014-11-08T09:08:50Z</time>
      </trkpt>
      <trkpt lat="42.497038740" lon="-2.622303130">
        <ele>428.40</ele>
        <time>2014-11-08T09:08:51Z</time>
      </trkpt>
      <trkpt lat="42.496951480" lon="-2.622344710">
        <ele>427.44</ele>
        <time>2014-11-08T09:08:52Z</time>
      </trkpt>
      <trkpt lat="42.496867330" lon="-2.622397600">
        <ele>427.44</ele>
        <time>2014-11-08T09:08:53Z</time>
      </trkpt>
      <trkpt lat="42.496785440" lon="-2.622460380">
        <ele>426.48</ele>
        <time>2014-11-08T09:08:54Z</time>
      </trkpt>
      <trkpt lat="42.496704720" lon="-2.622535650">
        <ele>426.00</ele>
        <time>2014-11-08T09:08:55Z</time>
      </trkpt>
      <trkpt lat="42.496627190" lon="-2.622621140">
        <ele>425.52</ele>
        <time>2014-11-08T09:08:56Z</time>
      </trkpt>
      <trkpt lat="42.496398780" lon="-2.622920800">
        <ele>422.16</ele>
        <time>2014-11-08T09:08:59Z</time>
      </trkpt>
      <trkpt lat="42.496152940" lon="-2.623256660">
        <ele>419.27</ele>
        <time>2014-11-08T09:09:02Z</time>
      </trkpt>
      <trkpt lat="42.496058560" lon="-2.623355480">
        <ele>417.35</ele>
        <time>2014-11-08T09:09:03Z</time>
      </trkpt>
      <trkpt lat="42.495956550" lon="-2.623440560">
        <ele>416.39</ele>
        <time>2014-11-08T09:09:04Z</time>
      </trkpt>
      <trkpt lat="42.495850690" lon="-2.623513400">
        <ele>415.91</ele>
        <time>2014-11-08T09:09:05Z</time>
      </trkpt>
      <trkpt lat="42.495742650" lon="-2.623574250">
        <ele>415.91</ele>
        <time>2014-11-08T09:09:06Z</time>
      </trkpt>
      <trkpt lat="42.495634270" lon="-2.623621360">
        <ele>415.91</ele>
        <time>2014-11-08T09:09:07Z</time>
      </trkpt>
      <trkpt lat="42.495527400" lon="-2.623661000">
        <ele>415.91</ele>
        <time>2014-11-08T09:09:08Z</time>
      </trkpt>
      <trkpt lat="42.494432640" lon="-2.624054450">
        <ele>417.83</ele>
        <time>2014-11-08T09:09:20Z</time>
      </trkpt>
      <trkpt lat="42.493821600" lon="-2.624279420">
        <ele>414.95</ele>
        <time>2014-11-08T09:09:27Z</time>
      </trkpt>
      <trkpt lat="42.493380960" lon="-2.624468680">
        <ele>414.95</ele>
        <time>2014-11-08T09:09:32Z</time>
      </trkpt>
      <trkpt lat="42.493301920" lon="-2.624531710">
        <ele>414.95</ele>
        <time>2014-11-08T09:09:33Z</time>
      </trkpt>
      <trkpt lat="42.493230090" lon="-2.624607320">
        <ele>414.95</ele>
        <time>2014-11-08T09:09:34Z</time>
      </trkpt>
      <trkpt lat="42.493164370" lon="-2.624691470">
        <ele>414.95</ele>
        <time>2014-11-08T09:09:35Z</time>
      </trkpt>
      <trkpt lat="42.493105200" lon="-2.624782000">
        <ele>414.95</ele>
        <time>2014-11-08T09:09:36Z</time>
      </trkpt>
      <trkpt lat="42.493051050" lon="-2.624872610">
        <ele>414.95</ele>
        <time>2014-11-08T09:09:37Z</time>
      </trkpt>
      <trkpt lat="42.492886760" lon="-2.625213000">
        <ele>414.95</ele>
        <time>2014-11-08T09:09:41Z</time>
      </trkpt>
      <trkpt lat="42.492860440" lon="-2.625299920">
        <ele>415.91</ele>
        <time>2014-11-08T09:09:42Z</time>
      </trkpt>
      <trkpt lat="42.492837230" lon="-2.625390520">
        <ele>416.39</ele>
        <time>2014-11-08T09:09:43Z</time>
      </trkpt>
      <trkpt lat="42.492818370" lon="-2.625484820">
        <ele>416.39</ele>
        <time>2014-11-08T09:09:44Z</time>
      </trkpt>
      <trkpt lat="42.492806300" lon="-2.625583560">
        <ele>416.39</ele>
        <time>2014-11-08T09:09:45Z</time>
      </trkpt>
      <trkpt lat="42.492800350" lon="-2.625683890">
        <ele>416.39</ele>
        <time>2014-11-08T09:09:46Z</time>
      </trkpt>
      <trkpt lat="42.492795820" lon="-2.625783720">
        <ele>416.87</ele>
        <time>2014-11-08T09:09:47Z</time>
      </trkpt>
      <trkpt lat="42.492772600" lon="-2.626161490">
        <ele>418.31</ele>
        <time>2014-11-08T09:09:51Z</time>
      </trkpt>
      <trkpt lat="42.492775950" lon="-2.626250930">
        <ele>418.31</ele>
        <time>2014-11-08T09:09:52Z</time>
      </trkpt>
      <trkpt lat="42.492775120" lon="-2.626336760">
        <ele>418.31</ele>
        <time>2014-11-08T09:09:53Z</time>
      </trkpt>
      <trkpt lat="42.492769580" lon="-2.626421670">
        <ele>418.79</ele>
        <time>2014-11-08T09:09:54Z</time>
      </trkpt>
      <trkpt lat="42.492760620" lon="-2.626503050">
        <ele>418.79</ele>
        <time>2014-11-08T09:09:55Z</time>
      </trkpt>
      <trkpt lat="42.492715440" lon="-2.626733390">
        <ele>419.27</ele>
        <time>2014-11-08T09:09:58Z</time>
      </trkpt>
      <trkpt lat="42.492576050" lon="-2.627090630">
        <ele>420.23</ele>
        <time>2014-11-08T09:10:04Z</time>
      </trkpt>
      <trkpt lat="42.492100460" lon="-2.627653220">
        <ele>421.68</ele>
        <time>2014-11-08T09:10:20Z</time>
      </trkpt>
      <trkpt lat="42.491650180" lon="-2.628063510">
        <ele>422.16</ele>
        <time>2014-11-08T09:10:34Z</time>
      </trkpt>
      <trkpt lat="42.490993290" lon="-2.628656620">
        <ele>422.64</ele>
        <time>2014-11-08T09:10:51Z</time>
      </trkpt>
      <trkpt lat="42.490201290" lon="-2.629353320">
        <ele>423.60</ele>
        <time>2014-11-08T09:11:11Z</time>
      </trkpt>
      <trkpt lat="42.489498040" lon="-2.630002000">
        <ele>424.08</ele>
        <time>2014-11-08T09:11:28Z</time>
      </trkpt>
      <trkpt lat="42.488760440" lon="-2.630604650">
        <ele>425.04</ele>
        <time>2014-11-08T09:11:46Z</time>
      </trkpt>
      <trkpt lat="42.487845300" lon="-2.631194070">
        <ele>426.00</ele>
        <time>2014-11-08T09:12:08Z</time>
      </trkpt>
      <trkpt lat="42.487214390" lon="-2.631583410">
        <ele>426.96</ele>
        <time>2014-11-08T09:12:24Z</time>
      </trkpt>
      <trkpt lat="42.487101910" lon="-2.631658600">
        <ele>426.96</ele>
        <time>2014-11-08T09:12:34Z</time>
      </trkpt>
      <trkpt lat="42.486977520" lon="-2.631720870">
        <ele>426.96</ele>
        <time>2014-11-08T09:12:46Z</time>
      </trkpt>
      <trkpt lat="42.486538560" lon="-2.631977530">
        <ele>425.52</ele>
        <time>2014-11-08T09:12:58Z</time>
      </trkpt>
      <trkpt lat="42.485821740" lon="-2.632335180">
        <ele>423.60</ele>
        <time>2014-11-08T09:13:11Z</time>
      </trkpt>
      <trkpt lat="42.485599540" lon="-2.632335940">
        <ele>424.08</ele>
        <time>2014-11-08T09:13:15Z</time>
      </trkpt>
      <trkpt lat="42.485486550" lon="-2.632309450">
        <ele>425.04</ele>
        <time>2014-11-08T09:13:17Z</time>
      </trkpt>
      <trkpt lat="42.484900820" lon="-2.632118510">
        <ele>425.52</ele>
        <time>2014-11-08T09:13:29Z</time>
      </trkpt>
      <trkpt lat="42.484861090" lon="-2.632086320">
        <ele>425.52</ele>
        <time>2014-11-08T09:13:30Z</time>
      </trkpt>
      <trkpt lat="42.484373520" lon="-2.631810560">
        <ele>428.89</ele>
        <time>2014-11-08T09:13:42Z</time>
      </trkpt>
      <trkpt lat="42.483909240" lon="-2.631631270">
        <ele>430.81</ele>
        <time>2014-11-08T09:13:55Z</time>
      </trkpt>
      <trkpt lat="42.483816290" lon="-2.631735290">
        <ele>431.29</ele>
        <time>2014-11-08T09:14:04Z</time>
      </trkpt>
      <trkpt lat="42.483801700" lon="-2.631753650">
        <ele>431.77</ele>
        <time>2014-11-08T09:14:13Z</time>
      </trkpt>
      <trkpt lat="42.483792900" lon="-2.631843160">
        <ele>431.77</ele>
        <time>2014-11-08T09:14:21Z</time>
      </trkpt>
      <trkpt lat="42.483827270" lon="-2.632015250">
        <ele>431.77</ele>
        <time>2014-11-08T09:14:26Z</time>
      </trkpt>
      <trkpt lat="42.484061620" lon="-2.632579770">
        <ele>432.25</ele>
        <time>2014-11-08T09:14:39Z</time>
      </trkpt>
      <trkpt lat="42.484212920" lon="-2.632864080">
        <ele>432.25</ele>
        <time>2014-11-08T09:14:45Z</time>
      </trkpt>
      <trkpt lat="42.484285510" lon="-2.632947480">
        <ele>432.25</ele>
        <time>2014-11-08T09:14:47Z</time>
      </trkpt>
      <trkpt lat="42.484617010" lon="-2.633277060">
        <ele>432.73</ele>
        <time>2014-11-08T09:14:59Z</time>
      </trkpt>
      <trkpt lat="42.484632520" lon="-2.633383000">
        <ele>432.73</ele>
        <time>2014-11-08T09:15:03Z</time>
      </trkpt>
      <trkpt lat="42.484563110" lon="-2.633580570">
        <ele>432.73</ele>
        <time>2014-11-08T09:15:12Z</time>
      </trkpt>
      <trkpt lat="42.484558340" lon="-2.633618200">
        <ele>432.73</ele>
        <time>2014-11-08T09:15:13Z</time>
      </trkpt>
      <trkpt lat="42.484500250" lon="-2.634075600">
        <ele>433.21</ele>
        <time>2014-11-08T09:15:24Z</time>
      </trkpt>
      <trkpt lat="42.484359180" lon="-2.634582870">
        <ele>433.69</ele>
        <time>2014-11-08T09:15:37Z</time>
      </trkpt>
      <trkpt lat="42.484160780" lon="-2.635196680">
        <ele>433.69</ele>
        <time>2014-11-08T09:15:51Z</time>
      </trkpt>
      <trkpt lat="42.483838920" lon="-2.635925570">
        <ele>434.65</ele>
        <time>2014-11-08T09:16:07Z</time>
      </trkpt>
      <trkpt lat="42.483689640" lon="-2.636259760">
        <ele>434.65</ele>
        <time>2014-11-08T09:16:14Z</time>
      </trkpt>
      <trkpt lat="42.483606740" lon="-2.636444240">
        <ele>435.13</ele>
        <time>2014-11-08T09:16:18Z</time>
      </trkpt>
      <trkpt lat="42.483349330" lon="-2.636990990">
        <ele>435.61</ele>
        <time>2014-11-08T09:16:29Z</time>
      </trkpt>
      <trkpt lat="42.483055130" lon="-2.637633890">
        <ele>436.58</ele>
        <time>2014-11-08T09:16:44Z</time>
      </trkpt>
      <trkpt lat="42.483017160" lon="-2.637722990">
        <ele>436.58</ele>
        <time>2014-11-08T09:16:46Z</time>
      </trkpt>
      <trkpt lat="42.482718420" lon="-2.638319530">
        <ele>438.02</ele>
        <time>2014-11-08T09:16:58Z</time>
      </trkpt>
      <trkpt lat="42.482571990" lon="-2.638529660">
        <ele>438.02</ele>
        <time>2014-11-08T09:17:04Z</time>
      </trkpt>
      <trkpt lat="42.482138400" lon="-2.639036010">
        <ele>438.98</ele>
        <time>2014-11-08T09:17:17Z</time>
      </trkpt>
      <trkpt lat="42.481630120" lon="-2.639585860">
        <ele>439.94</ele>
        <time>2014-11-08T09:17:33Z</time>
      </trkpt>
      <trkpt lat="42.481160060" lon="-2.640108980">
        <ele>440.90</ele>
        <time>2014-11-08T09:17:48Z</time>
      </trkpt>
      <trkpt lat="42.481039780" lon="-2.640566460">
        <ele>440.90</ele>
        <time>2014-11-08T09:17:58Z</time>
      </trkpt>
      <trkpt lat="42.481188980" lon="-2.641410940">
        <ele>440.90</ele>
        <time>2014-11-08T09:18:14Z</time>
      </trkpt>
      <trkpt lat="42.481300540" lon="-2.642059450">
        <ele>440.90</ele>
        <time>2014-11-08T09:18:28Z</time>
      </trkpt>
      <trkpt lat="42.481426270" lon="-2.642796970">
        <ele>443.31</ele>
        <time>2014-11-08T09:18:42Z</time>
      </trkpt>
      <trkpt lat="42.481463230" lon="-2.643007780">
        <ele>443.79</ele>
        <time>2014-11-08T09:18:46Z</time>
      </trkpt>
      <trkpt lat="42.481475140" lon="-2.643065110">
        <ele>443.79</ele>
        <time>2014-11-08T09:18:47Z</time>
      </trkpt>
      <trkpt lat="42.481528190" lon="-2.643363840">
        <ele>443.79</ele>
        <time>2014-11-08T09:18:52Z</time>
      </trkpt>
      <trkpt lat="42.481603550" lon="-2.643792820">
        <ele>442.82</ele>
        <time>2014-11-08T09:19:01Z</time>
      </trkpt>
      <trkpt lat="42.481609250" lon="-2.643890730">
        <ele>442.82</ele>
        <time>2014-11-08T09:19:06Z</time>
      </trkpt>
      <trkpt lat="42.481624340" lon="-2.643925430">
        <ele>442.34</ele>
        <time>2014-11-08T09:19:08Z</time>
      </trkpt>
      <trkpt lat="42.481602290" lon="-2.643971110">
        <ele>442.34</ele>
        <time>2014-11-08T09:19:17Z</time>
      </trkpt>
      <trkpt lat="42.481599190" lon="-2.643983600">
        <ele>442.34</ele>
        <time>2014-11-08T09:19:31Z</time>
      </trkpt>
      <trkpt lat="42.481598690" lon="-2.643993320">
        <ele>442.34</ele>
        <time>2014-11-08T09:19:55Z</time>
      </trkpt>
      <trkpt lat="42.481505650" lon="-2.644011840">
        <ele>441.86</ele>
        <time>2014-11-08T09:20:23Z</time>
      </trkpt>
      <trkpt lat="42.481465500" lon="-2.644004300">
        <ele>442.34</ele>
        <time>2014-11-08T09:20:42Z</time>
      </trkpt>
      <trkpt lat="42.481444210" lon="-2.643989630">
        <ele>443.31</ele>
        <time>2014-11-08T09:21:11Z</time>
      </trkpt>
      <trkpt lat="42.481424680" lon="-2.643989300">
        <ele>443.79</ele>
        <time>2014-11-08T09:21:36Z</time>
      </trkpt>
      <trkpt lat="42.481384360" lon="-2.643997430">
        <ele>443.79</ele>
        <time>2014-11-08T09:22:02Z</time>
      </trkpt>
      <trkpt lat="42.481408750" lon="-2.644001870">
        <ele>444.27</ele>
        <time>2014-11-08T09:22:25Z</time>
      </trkpt>
      <trkpt lat="42.481406570" lon="-2.644010920">
        <ele>444.75</ele>
        <time>2014-11-08T09:22:47Z</time>
      </trkpt>
      <trkpt lat="42.481433900" lon="-2.644016370">
        <ele>444.75</ele>
        <time>2014-11-08T09:23:16Z</time>
      </trkpt>
      <trkpt lat="42.481444040" lon="-2.644015200">
        <ele>444.75</ele>
        <time>2014-11-08T09:23:45Z</time>
      </trkpt>
      <trkpt lat="42.481417050" lon="-2.643971860">
        <ele>445.23</ele>
        <time>2014-11-08T09:24:14Z</time>
      </trkpt>
      <trkpt lat="42.481419730" lon="-2.643963310">
        <ele>445.23</ele>
        <time>2014-11-08T09:24:34Z</time>
      </trkpt>
      <trkpt lat="42.481445380" lon="-2.643978990">
        <ele>445.23</ele>
        <time>2014-11-08T09:24:55Z</time>
      </trkpt>
      <trkpt lat="42.481469860" lon="-2.643986610">
        <ele>445.23</ele>
        <time>2014-11-08T09:25:25Z</time>
      </trkpt>
      <trkpt lat="42.481455690" lon="-2.643989300">
        <ele>445.23</ele>
        <time>2014-11-08T09:25:47Z</time>
      </trkpt>
      <trkpt lat="42.481461390" lon="-2.644041680">
        <ele>445.71</ele>
        <time>2014-11-08T09:26:16Z</time>
      </trkpt>
      <trkpt lat="42.481397860" lon="-2.644007070">
        <ele>446.19</ele>
        <time>2014-11-08T09:26:37Z</time>
      </trkpt>
      <trkpt lat="42.481409170" lon="-2.644009250">
        <ele>446.19</ele>
        <time>2014-11-08T09:27:07Z</time>
      </trkpt>
      <trkpt lat="42.481413530" lon="-2.644035230">
        <ele>446.67</ele>
        <time>2014-11-08T09:27:27Z</time>
      </trkpt>
      <trkpt lat="42.481411430" lon="-2.644001950">
        <ele>446.67</ele>
        <time>2014-11-08T09:27:51Z</time>
      </trkpt>
      <trkpt lat="42.481432050" lon="-2.643977810">
        <ele>447.15</ele>
        <time>2014-11-08T09:28:06Z</time>
      </trkpt>
      <trkpt lat="42.481439430" lon="-2.643947720">
        <ele>447.15</ele>
        <time>2014-11-08T09:28:17Z</time>
      </trkpt>
      <trkpt lat="42.481434480" lon="-2.643940680">
        <ele>447.15</ele>
        <time>2014-11-08T09:28:19Z</time>
      </trkpt>
      <trkpt lat="42.481425350" lon="-2.643933140">
        <ele>447.15</ele>
        <time>2014-11-08T09:28:20Z</time>
      </trkpt>
      <trkpt lat="42.481396010" lon="-2.643876730">
        <ele>447.15</ele>
        <time>2014-11-08T09:28:24Z</time>
      </trkpt>
      <trkpt lat="42.481391230" lon="-2.643846800">
        <ele>447.15</ele>
        <time>2014-11-08T09:28:25Z</time>
      </trkpt>
      <trkpt lat="42.481306490" lon="-2.643314800">
        <ele>448.11</ele>
        <time>2014-11-08T09:28:40Z</time>
      </trkpt>
      <trkpt lat="42.481282440" lon="-2.642953880">
        <ele>448.59</ele>
        <time>2014-11-08T09:28:50Z</time>
      </trkpt>
      <trkpt lat="42.481274470" lon="-2.642920100">
        <ele>448.59</ele>
        <time>2014-11-08T09:28:51Z</time>
      </trkpt>
      <trkpt lat="42.481312530" lon="-2.642478120">
        <ele>448.59</ele>
        <time>2014-11-08T09:29:02Z</time>
      </trkpt>
      <trkpt lat="42.481272210" lon="-2.642138660">
        <ele>446.19</ele>
        <time>2014-11-08T09:29:11Z</time>
      </trkpt>
      <trkpt lat="42.481252180" lon="-2.641827600">
        <ele>445.71</ele>
        <time>2014-11-08T09:29:22Z</time>
      </trkpt>
      <trkpt lat="42.481350160" lon="-2.641838080">
        <ele>445.71</ele>
        <time>2014-11-08T09:29:49Z</time>
      </trkpt>
      <trkpt lat="42.481342870" lon="-2.641808240">
        <ele>445.71</ele>
        <time>2014-11-08T09:30:21Z</time>
      </trkpt>
      <trkpt lat="42.481318730" lon="-2.641788380">
        <ele>445.71</ele>
        <time>2014-11-08T09:30:31Z</time>
      </trkpt>
      <trkpt lat="42.481311610" lon="-2.641776060">
        <ele>445.71</ele>
        <time>2014-11-08T09:30:32Z</time>
      </trkpt>
      <trkpt lat="42.481241950" lon="-2.641565840">
        <ele>445.23</ele>
        <time>2014-11-08T09:30:38Z</time>
      </trkpt>
      <trkpt lat="42.481013210" lon="-2.640580460">
        <ele>445.23</ele>
        <time>2014-11-08T09:30:53Z</time>
      </trkpt>
      <trkpt lat="42.480991920" lon="-2.640388010">
        <ele>445.23</ele>
        <time>2014-11-08T09:30:56Z</time>
      </trkpt>
      <trkpt lat="42.480999800" lon="-2.640323560">
        <ele>445.23</ele>
        <time>2014-11-08T09:30:57Z</time>
      </trkpt>
      <trkpt lat="42.481014640" lon="-2.640263790">
        <ele>445.23</ele>
        <time>2014-11-08T09:30:58Z</time>
      </trkpt>
      <trkpt lat="42.481039190" lon="-2.640208810">
        <ele>445.23</ele>
        <time>2014-11-08T09:30:59Z</time>
      </trkpt>
      <trkpt lat="42.481069870" lon="-2.640161950">
        <ele>445.23</ele>
        <time>2014-11-08T09:31:00Z</time>
      </trkpt>
      <trkpt lat="42.481107000" lon="-2.640118280">
        <ele>445.23</ele>
        <time>2014-11-08T09:31:01Z</time>
      </trkpt>
      <trkpt lat="42.481145140" lon="-2.640078300">
        <ele>445.23</ele>
        <time>2014-11-08T09:31:02Z</time>
      </trkpt>
      <trkpt lat="42.481256030" lon="-2.639958520">
        <ele>445.23</ele>
        <time>2014-11-08T09:31:05Z</time>
      </trkpt>
      <trkpt lat="42.481596420" lon="-2.639569180">
        <ele>445.23</ele>
        <time>2014-11-08T09:31:15Z</time>
      </trkpt>
      <trkpt lat="42.482133540" lon="-2.638965770">
        <ele>444.27</ele>
        <time>2014-11-08T09:31:28Z</time>
      </trkpt>
      <trkpt lat="42.482180810" lon="-2.638910790">
        <ele>443.79</ele>
        <time>2014-11-08T09:31:29Z</time>
      </trkpt>
      <trkpt lat="42.482545840" lon="-2.638449780">
        <ele>442.82</ele>
        <time>2014-11-08T09:31:37Z</time>
      </trkpt>
      <trkpt lat="42.482712220" lon="-2.638212820">
        <ele>442.34</ele>
        <time>2014-11-08T09:31:41Z</time>
      </trkpt>
      <trkpt lat="42.483242380" lon="-2.637103140">
        <ele>440.90</ele>
        <time>2014-11-08T09:31:58Z</time>
      </trkpt>
      <trkpt lat="42.483787450" lon="-2.636032860">
        <ele>439.94</ele>
        <time>2014-11-08T09:32:15Z</time>
      </trkpt>
      <trkpt lat="42.484076380" lon="-2.635422400">
        <ele>439.46</ele>
        <time>2014-11-08T09:32:25Z</time>
      </trkpt>
      <trkpt lat="42.484129100" lon="-2.635281420">
        <ele>439.46</ele>
        <time>2014-11-08T09:32:27Z</time>
      </trkpt>
      <trkpt lat="42.484163630" lon="-2.635130630">
        <ele>438.98</ele>
        <time>2014-11-08T09:32:29Z</time>
      </trkpt>
      <trkpt lat="42.484462030" lon="-2.634083310">
        <ele>438.02</ele>
        <time>2014-11-08T09:32:44Z</time>
      </trkpt>
      <trkpt lat="42.484670230" lon="-2.633215280">
        <ele>437.54</ele>
        <time>2014-11-08T09:32:57Z</time>
      </trkpt>
      <trkpt lat="42.484774840" lon="-2.632826030">
        <ele>437.54</ele>
        <time>2014-11-08T09:33:03Z</time>
      </trkpt>
      <trkpt lat="42.484945920" lon="-2.632067550">
        <ele>437.06</ele>
        <time>2014-11-08T09:33:15Z</time>
      </trkpt>
      <trkpt lat="42.485044570" lon="-2.631317700">
        <ele>437.06</ele>
        <time>2014-11-08T09:33:26Z</time>
      </trkpt>
      <trkpt lat="42.485216990" lon="-2.630644130">
        <ele>437.06</ele>
        <time>2014-11-08T09:33:36Z</time>
      </trkpt>
      <trkpt lat="42.485388820" lon="-2.629635620">
        <ele>437.06</ele>
        <time>2014-11-08T09:33:51Z</time>
      </trkpt>
      <trkpt lat="42.485644710" lon="-2.628466180">
        <ele>437.06</ele>
        <time>2014-11-08T09:34:10Z</time>
      </trkpt>
      <trkpt lat="42.485735990" lon="-2.627898720">
        <ele>437.06</ele>
        <time>2014-11-08T09:34:20Z</time>
      </trkpt>
      <trkpt lat="42.485761730" lon="-2.627731590">
        <ele>438.02</ele>
        <time>2014-11-08T09:34:23Z</time>
      </trkpt>
      <trkpt lat="42.485881670" lon="-2.627086520">
        <ele>438.02</ele>
        <time>2014-11-08T09:34:34Z</time>
      </trkpt>
      <trkpt lat="42.486035310" lon="-2.626238270">
        <ele>438.02</ele>
        <time>2014-11-08T09:34:49Z</time>
      </trkpt>
      <trkpt lat="42.486111000" lon="-2.625908860">
        <ele>438.02</ele>
        <time>2014-11-08T09:34:55Z</time>
      </trkpt>
      <trkpt lat="42.486158020" lon="-2.625683560">
        <ele>438.02</ele>
        <time>2014-11-08T09:34:59Z</time>
      </trkpt>
      <trkpt lat="42.486271180" lon="-2.625307380">
        <ele>438.50</ele>
        <time>2014-11-08T09:35:06Z</time>
      </trkpt>
      <trkpt lat="42.486561020" lon="-2.624283690">
        <ele>438.50</ele>
        <time>2014-11-08T09:35:24Z</time>
      </trkpt>
      <trkpt lat="42.486633860" lon="-2.624061660">
        <ele>437.06</ele>
        <time>2014-11-08T09:35:28Z</time>
      </trkpt>
      <trkpt lat="42.486892450" lon="-2.623334690">
        <ele>436.10</ele>
        <time>2014-11-08T09:35:41Z</time>
      </trkpt>
      <trkpt lat="42.486937460" lon="-2.623157500">
        <ele>436.10</ele>
        <time>2014-11-08T09:35:45Z</time>
      </trkpt>
      <trkpt lat="42.487231240" lon="-2.622522570">
        <ele>436.10</ele>
        <time>2014-11-08T09:35:57Z</time>
      </trkpt>
      <trkpt lat="42.487598540" lon="-2.621766860">
        <ele>435.61</ele>
        <time>2014-11-08T09:36:12Z</time>
      </trkpt>
      <trkpt lat="42.487750170" lon="-2.621484140">
        <ele>435.61</ele>
        <time>2014-11-08T09:36:18Z</time>
      </trkpt>
      <trkpt lat="42.487882100" lon="-2.621208210">
        <ele>435.61</ele>
        <time>2014-11-08T09:36:24Z</time>
      </trkpt>
      <trkpt lat="42.488238160" lon="-2.620469590">
        <ele>437.06</ele>
        <time>2014-11-08T09:36:39Z</time>
      </trkpt>
      <trkpt lat="42.488576960" lon="-2.619776830">
        <ele>437.06</ele>
        <time>2014-11-08T09:36:53Z</time>
      </trkpt>
      <trkpt lat="42.488950870" lon="-2.618926820">
        <ele>436.10</ele>
        <time>2014-11-08T09:37:10Z</time>
      </trkpt>
      <trkpt lat="42.488995880" lon="-2.618837470">
        <ele>437.06</ele>
        <time>2014-11-08T09:37:14Z</time>
      </trkpt>
      <trkpt lat="42.489009130" lon="-2.618822130">
        <ele>437.06</ele>
        <time>2014-11-08T09:37:15Z</time>
      </trkpt>
      <trkpt lat="42.489022040" lon="-2.618802520">
        <ele>437.06</ele>
        <time>2014-11-08T09:37:16Z</time>
      </trkpt>
      <trkpt lat="42.489035610" lon="-2.618784580">
        <ele>437.06</ele>
        <time>2014-11-08T09:37:17Z</time>
      </trkpt>
      <trkpt lat="42.489050700" lon="-2.618771670">
        <ele>437.06</ele>
        <time>2014-11-08T09:37:18Z</time>
      </trkpt>
      <trkpt lat="42.489069140" lon="-2.618766890">
        <ele>437.06</ele>
        <time>2014-11-08T09:37:19Z</time>
      </trkpt>
      <trkpt lat="42.489164440" lon="-2.618810810">
        <ele>436.10</ele>
        <time>2014-11-08T09:37:23Z</time>
      </trkpt>
      <trkpt lat="42.489206440" lon="-2.618844680">
        <ele>436.10</ele>
        <time>2014-11-08T09:37:25Z</time>
      </trkpt>
      <trkpt lat="42.489299140" lon="-2.618807710">
        <ele>435.13</ele>
        <time>2014-11-08T09:37:29Z</time>
      </trkpt>
      <trkpt lat="42.489458150" lon="-2.618230200">
        <ele>435.13</ele>
        <time>2014-11-08T09:37:41Z</time>
      </trkpt>
      <trkpt lat="42.489561160" lon="-2.617919900">
        <ele>436.58</ele>
        <time>2014-11-08T09:37:47Z</time>
      </trkpt>
      <trkpt lat="42.489892500" lon="-2.616965450">
        <ele>437.06</ele>
        <time>2014-11-08T09:38:05Z</time>
      </trkpt>
      <trkpt lat="42.490197350" lon="-2.616032720">
        <ele>437.54</ele>
        <time>2014-11-08T09:38:22Z</time>
      </trkpt>
      <trkpt lat="42.490410580" lon="-2.615363170">
        <ele>436.10</ele>
        <time>2014-11-08T09:38:34Z</time>
      </trkpt>
      <trkpt lat="42.490672850" lon="-2.614507130">
        <ele>436.10</ele>
        <time>2014-11-08T09:38:49Z</time>
      </trkpt>
      <trkpt lat="42.490869740" lon="-2.613672290">
        <ele>437.06</ele>
        <time>2014-11-08T09:39:04Z</time>
      </trkpt>
      <trkpt lat="42.490878630" lon="-2.613613030">
        <ele>437.06</ele>
        <time>2014-11-08T09:39:05Z</time>
      </trkpt>
      <trkpt lat="42.490906040" lon="-2.613443460">
        <ele>437.06</ele>
        <time>2014-11-08T09:39:08Z</time>
      </trkpt>
      <trkpt lat="42.490916090" lon="-2.613387970">
        <ele>437.06</ele>
        <time>2014-11-08T09:39:09Z</time>
      </trkpt>
      <trkpt lat="42.490979880" lon="-2.612615750">
        <ele>437.06</ele>
        <time>2014-11-08T09:39:22Z</time>
      </trkpt>
      <trkpt lat="42.490958090" lon="-2.611409510">
        <ele>437.06</ele>
        <time>2014-11-08T09:39:42Z</time>
      </trkpt>
      <trkpt lat="42.490906620" lon="-2.610830240">
        <ele>437.06</ele>
        <time>2014-11-08T09:39:53Z</time>
      </trkpt>
      <trkpt lat="42.490906620" lon="-2.610773740">
        <ele>437.06</ele>
        <time>2014-11-08T09:39:54Z</time>
      </trkpt>
      <trkpt lat="42.490877030" lon="-2.610041750">
        <ele>437.06</ele>
        <time>2014-11-08T09:40:09Z</time>
      </trkpt>
      <trkpt lat="42.490892960" lon="-2.609828010">
        <ele>437.06</ele>
        <time>2014-11-08T09:40:17Z</time>
      </trkpt>
      <trkpt lat="42.490903940" lon="-2.609819040">
        <ele>437.06</ele>
        <time>2014-11-08T09:40:18Z</time>
      </trkpt>
      <trkpt lat="42.490916180" lon="-2.609818290">
        <ele>437.06</ele>
        <time>2014-11-08T09:40:19Z</time>
      </trkpt>
      <trkpt lat="42.490928920" lon="-2.609826670">
        <ele>437.06</ele>
        <time>2014-11-08T09:40:20Z</time>
      </trkpt>
      <trkpt lat="42.490938310" lon="-2.609846200">
        <ele>437.06</ele>
        <time>2014-11-08T09:40:21Z</time>
      </trkpt>
      <trkpt lat="42.490941320" lon="-2.609870680">
        <ele>437.06</ele>
        <time>2014-11-08T09:40:22Z</time>
      </trkpt>
      <trkpt lat="42.490939650" lon="-2.609894060">
        <ele>437.06</ele>
        <time>2014-11-08T09:40:23Z</time>
      </trkpt>
      <trkpt lat="42.490924480" lon="-2.609910410">
        <ele>437.06</ele>
        <time>2014-11-08T09:40:24Z</time>
      </trkpt>
      <trkpt lat="42.490904950" lon="-2.609905630">
        <ele>437.06</ele>
        <time>2014-11-08T09:40:25Z</time>
      </trkpt>
      <trkpt lat="42.490896310" lon="-2.609878390">
        <ele>437.06</ele>
        <time>2014-11-08T09:40:26Z</time>
      </trkpt>
      <trkpt lat="42.490897070" lon="-2.609842430">
        <ele>437.06</ele>
        <time>2014-11-08T09:40:27Z</time>
      </trkpt>
      <trkpt lat="42.490899500" lon="-2.609804880">
        <ele>437.06</ele>
        <time>2014-11-08T09:40:28Z</time>
      </trkpt>
      <trkpt lat="42.490887010" lon="-2.609470520">
        <ele>436.58</ele>
        <time>2014-11-08T09:40:41Z</time>
      </trkpt>
      <trkpt lat="42.490871750" lon="-2.609119910">
        <ele>435.61</ele>
        <time>2014-11-08T09:40:52Z</time>
      </trkpt>
      <trkpt lat="42.490834790" lon="-2.608614730">
        <ele>435.61</ele>
        <time>2014-11-08T09:41:03Z</time>
      </trkpt>
      <trkpt lat="42.490810650" lon="-2.607891960">
        <ele>435.61</ele>
        <time>2014-11-08T09:41:17Z</time>
      </trkpt>
      <trkpt lat="42.490751720" lon="-2.606944130">
        <ele>435.61</ele>
        <time>2014-11-08T09:41:35Z</time>
      </trkpt>
      <trkpt lat="42.490620460" lon="-2.606149610">
        <ele>435.61</ele>
        <time>2014-11-08T09:41:50Z</time>
      </trkpt>
      <trkpt lat="42.490516360" lon="-2.605688270">
        <ele>434.65</ele>
        <time>2014-11-08T09:41:58Z</time>
      </trkpt>
      <trkpt lat="42.490190050" lon="-2.604790910">
        <ele>433.69</ele>
        <time>2014-11-08T09:42:14Z</time>
      </trkpt>
      <trkpt lat="42.489939690" lon="-2.604278610">
        <ele>433.69</ele>
        <time>2014-11-08T09:42:23Z</time>
      </trkpt>
      <trkpt lat="42.489904150" lon="-2.604227310">
        <ele>433.69</ele>
        <time>2014-11-08T09:42:24Z</time>
      </trkpt>
      <trkpt lat="42.489873130" lon="-2.604168050">
        <ele>433.69</ele>
        <time>2014-11-08T09:42:25Z</time>
      </trkpt>
      <trkpt lat="42.489843290" lon="-2.604105440">
        <ele>433.69</ele>
        <time>2014-11-08T09:42:26Z</time>
      </trkpt>
      <trkpt lat="42.489812200" lon="-2.604043740">
        <ele>433.69</ele>
        <time>2014-11-08T09:42:27Z</time>
      </trkpt>
      <trkpt lat="42.489306430" lon="-2.603267160">
        <ele>433.69</ele>
        <time>2014-11-08T09:42:43Z</time>
      </trkpt>
      <trkpt lat="42.488529850" lon="-2.602560570">
        <ele>431.77</ele>
        <time>2014-11-08T09:43:00Z</time>
      </trkpt>
      <trkpt lat="42.487887380" lon="-2.602115570">
        <ele>431.77</ele>
        <time>2014-11-08T09:43:13Z</time>
      </trkpt>
      <trkpt lat="42.487179860" lon="-2.601815000">
        <ele>431.77</ele>
        <time>2014-11-08T09:43:30Z</time>
      </trkpt>
      <trkpt lat="42.487149850" lon="-2.601836710">
        <ele>431.77</ele>
        <time>2014-11-08T09:43:31Z</time>
      </trkpt>
      <trkpt lat="42.487128480" lon="-2.601874170">
        <ele>431.77</ele>
        <time>2014-11-08T09:43:32Z</time>
      </trkpt>
      <trkpt lat="42.487115070" lon="-2.601921280">
        <ele>431.77</ele>
        <time>2014-11-08T09:43:33Z</time>
      </trkpt>
      <trkpt lat="42.487100740" lon="-2.601974420">
        <ele>431.29</ele>
        <time>2014-11-08T09:43:34Z</time>
      </trkpt>
      <trkpt lat="42.487077270" lon="-2.602016500">
        <ele>431.29</ele>
        <time>2014-11-08T09:43:35Z</time>
      </trkpt>
      <trkpt lat="42.487043820" lon="-2.602037280">
        <ele>431.29</ele>
        <time>2014-11-08T09:43:36Z</time>
      </trkpt>
      <trkpt lat="42.487002500" lon="-2.602036870">
        <ele>431.29</ele>
        <time>2014-11-08T09:43:37Z</time>
      </trkpt>
      <trkpt lat="42.486960760" lon="-2.602026140">
        <ele>431.29</ele>
        <time>2014-11-08T09:43:38Z</time>
      </trkpt>
      <trkpt lat="42.486672590" lon="-2.601996550">
        <ele>432.73</ele>
        <time>2014-11-08T09:43:45Z</time>
      </trkpt>
      <trkpt lat="42.485805400" lon="-2.602081210">
        <ele>434.65</ele>
        <time>2014-11-08T09:44:07Z</time>
      </trkpt>
      <trkpt lat="42.485023530" lon="-2.602202830">
        <ele>434.17</ele>
        <time>2014-11-08T09:44:25Z</time>
      </trkpt>
      <trkpt lat="42.484265220" lon="-2.602510860">
        <ele>434.17</ele>
        <time>2014-11-08T09:44:42Z</time>
      </trkpt>
      <trkpt lat="42.484004460" lon="-2.602649920">
        <ele>433.21</ele>
        <time>2014-11-08T09:44:48Z</time>
      </trkpt>
      <trkpt lat="42.483570110" lon="-2.602862400">
        <ele>432.25</ele>
        <time>2014-11-08T09:44:57Z</time>
      </trkpt>
      <trkpt lat="42.483043640" lon="-2.603036410">
        <ele>433.69</ele>
        <time>2014-11-08T09:45:08Z</time>
      </trkpt>
      <trkpt lat="42.482302010" lon="-2.603358440">
        <ele>433.69</ele>
        <time>2014-11-08T09:45:23Z</time>
      </trkpt>
      <trkpt lat="42.482214420" lon="-2.603383250">
        <ele>433.69</ele>
        <time>2014-11-08T09:45:25Z</time>
      </trkpt>
      <trkpt lat="42.482169660" lon="-2.603397580">
        <ele>433.69</ele>
        <time>2014-11-08T09:45:26Z</time>
      </trkpt>
      <trkpt lat="42.481383520" lon="-2.603568910">
        <ele>433.69</ele>
        <time>2014-11-08T09:45:42Z</time>
      </trkpt>
      <trkpt lat="42.480980440" lon="-2.603647360">
        <ele>433.69</ele>
        <time>2014-11-08T09:45:50Z</time>
      </trkpt>
      <trkpt lat="42.480934170" lon="-2.603677370">
        <ele>433.69</ele>
        <time>2014-11-08T09:45:51Z</time>
      </trkpt>
      <trkpt lat="42.480893770" lon="-2.603717690">
        <ele>433.69</ele>
        <time>2014-11-08T09:45:52Z</time>
      </trkpt>
      <trkpt lat="42.480857890" lon="-2.603767640">
        <ele>433.69</ele>
        <time>2014-11-08T09:45:53Z</time>
      </trkpt>
      <trkpt lat="42.480827470" lon="-2.603825900">
        <ele>433.69</ele>
        <time>2014-11-08T09:45:54Z</time>
      </trkpt>
      <trkpt lat="42.480800900" lon="-2.603886840">
        <ele>433.69</ele>
        <time>2014-11-08T09:45:55Z</time>
      </trkpt>
      <trkpt lat="42.480512560" lon="-2.604560570">
        <ele>433.69</ele>
        <time>2014-11-08T09:46:06Z</time>
      </trkpt>
      <trkpt lat="42.480018870" lon="-2.605114950">
        <ele>432.25</ele>
        <time>2014-11-08T09:46:19Z</time>
      </trkpt>
      <trkpt lat="42.479821470" lon="-2.605231710">
        <ele>432.25</ele>
        <time>2014-11-08T09:46:23Z</time>
      </trkpt>
      <trkpt lat="42.479770340" lon="-2.605261380">
        <ele>432.25</ele>
        <time>2014-11-08T09:46:24Z</time>
      </trkpt>
      <trkpt lat="42.479568670" lon="-2.605426340">
        <ele>431.77</ele>
        <time>2014-11-08T09:46:28Z</time>
      </trkpt>
      <trkpt lat="42.479526010" lon="-2.605478060">
        <ele>431.77</ele>
        <time>2014-11-08T09:46:29Z</time>
      </trkpt>
      <trkpt lat="42.479488880" lon="-2.605534720">
        <ele>431.77</ele>
        <time>2014-11-08T09:46:30Z</time>
      </trkpt>
      <trkpt lat="42.479454010" lon="-2.605598760">
        <ele>431.77</ele>
        <time>2014-11-08T09:46:31Z</time>
      </trkpt>
      <trkpt lat="42.479423920" lon="-2.605667740">
        <ele>431.77</ele>
        <time>2014-11-08T09:46:32Z</time>
      </trkpt>
      <trkpt lat="42.479400950" lon="-2.605739320">
        <ele>431.77</ele>
        <time>2014-11-08T09:46:33Z</time>
      </trkpt>
      <trkpt lat="42.479380750" lon="-2.605810730">
        <ele>431.77</ele>
        <time>2014-11-08T09:46:34Z</time>
      </trkpt>
      <trkpt lat="42.479333640" lon="-2.605945510">
        <ele>431.77</ele>
        <time>2014-11-08T09:46:36Z</time>
      </trkpt>
      <trkpt lat="42.479301370" lon="-2.605999330">
        <ele>431.77</ele>
        <time>2014-11-08T09:46:37Z</time>
      </trkpt>
      <trkpt lat="42.479264910" lon="-2.606045180">
        <ele>431.77</ele>
        <time>2014-11-08T09:46:38Z</time>
      </trkpt>
      <trkpt lat="42.479221910" lon="-2.606084070">
        <ele>431.77</ele>
        <time>2014-11-08T09:46:39Z</time>
      </trkpt>
      <trkpt lat="42.479174810" lon="-2.606111390">
        <ele>431.77</ele>
        <time>2014-11-08T09:46:40Z</time>
      </trkpt>
      <trkpt lat="42.479124430" lon="-2.606128320">
        <ele>431.77</ele>
        <time>2014-11-08T09:46:41Z</time>
      </trkpt>
      <trkpt lat="42.479073140" lon="-2.606136120">
        <ele>431.77</ele>
        <time>2014-11-08T09:46:42Z</time>
      </trkpt>
      <trkpt lat="42.479020660" lon="-2.606135030">
        <ele>431.77</ele>
        <time>2014-11-08T09:46:43Z</time>
      </trkpt>
      <trkpt lat="42.478969950" lon="-2.606126400">
        <ele>431.77</ele>
        <time>2014-11-08T09:46:44Z</time>
      </trkpt>
      <trkpt lat="42.478919160" lon="-2.606110050">
        <ele>431.77</ele>
        <time>2014-11-08T09:46:45Z</time>
      </trkpt>
      <trkpt lat="42.478868030" lon="-2.606087920">
        <ele>431.77</ele>
        <time>2014-11-08T09:46:46Z</time>
      </trkpt>
      <trkpt lat="42.478815980" lon="-2.606066050">
        <ele>431.77</ele>
        <time>2014-11-08T09:46:47Z</time>
      </trkpt>
      <trkpt lat="42.478765100" lon="-2.606046350">
        <ele>431.77</ele>
        <time>2014-11-08T09:46:48Z</time>
      </trkpt>
      <trkpt lat="42.478407030" lon="-2.605891700">
        <ele>431.77</ele>
        <time>2014-11-08T09:46:55Z</time>
      </trkpt>
      <trkpt lat="42.478362430" lon="-2.605854150">
        <ele>431.77</ele>
        <time>2014-11-08T09:46:56Z</time>
      </trkpt>
      <trkpt lat="42.478320940" lon="-2.605810990">
        <ele>431.77</ele>
        <time>2014-11-08T09:46:57Z</time>
      </trkpt>
      <trkpt lat="42.478283810" lon="-2.605760690">
        <ele>431.77</ele>
        <time>2014-11-08T09:46:58Z</time>
      </trkpt>
      <trkpt lat="42.478251120" lon="-2.605703950">
        <ele>431.29</ele>
        <time>2014-11-08T09:46:59Z</time>
      </trkpt>
      <trkpt lat="42.478219690" lon="-2.605644940">
        <ele>431.29</ele>
        <time>2014-11-08T09:47:00Z</time>
      </trkpt>
      <trkpt lat="42.477995890" lon="-2.605127610">
        <ele>432.73</ele>
        <time>2014-11-08T09:47:09Z</time>
      </trkpt>
      <trkpt lat="42.477577890" lon="-2.604612540">
        <ele>433.69</ele>
        <time>2014-11-08T09:47:21Z</time>
      </trkpt>
      <trkpt lat="42.477534800" lon="-2.604585630">
        <ele>433.69</ele>
        <time>2014-11-08T09:47:22Z</time>
      </trkpt>
      <trkpt lat="42.477191820" lon="-2.604407100">
        <ele>433.21</ele>
        <time>2014-11-08T09:47:30Z</time>
      </trkpt>
      <trkpt lat="42.476515820" lon="-2.603959000">
        <ele>433.21</ele>
        <time>2014-11-08T09:47:45Z</time>
      </trkpt>
      <trkpt lat="42.475590040" lon="-2.603789610">
        <ele>431.77</ele>
        <time>2014-11-08T09:48:03Z</time>
      </trkpt>
      <trkpt lat="42.475189880" lon="-2.603761610">
        <ele>431.29</ele>
        <time>2014-11-08T09:48:14Z</time>
      </trkpt>
      <trkpt lat="42.475159460" lon="-2.603721960">
        <ele>430.33</ele>
        <time>2014-11-08T09:48:15Z</time>
      </trkpt>
      <trkpt lat="42.475130540" lon="-2.603670410">
        <ele>430.33</ele>
        <time>2014-11-08T09:48:16Z</time>
      </trkpt>
      <trkpt lat="42.475107660" lon="-2.603607970">
        <ele>429.85</ele>
        <time>2014-11-08T09:48:17Z</time>
      </trkpt>
      <trkpt lat="42.475091480" lon="-2.603537230">
        <ele>429.85</ele>
        <time>2014-11-08T09:48:18Z</time>
      </trkpt>
      <trkpt lat="42.475083100" lon="-2.603461290">
        <ele>428.89</ele>
        <time>2014-11-08T09:48:19Z</time>
      </trkpt>
      <trkpt lat="42.475082010" lon="-2.603380650">
        <ele>428.89</ele>
        <time>2014-11-08T09:48:20Z</time>
      </trkpt>
      <trkpt lat="42.475088710" lon="-2.603297420">
        <ele>428.40</ele>
        <time>2014-11-08T09:48:21Z</time>
      </trkpt>
      <trkpt lat="42.475101370" lon="-2.603212180">
        <ele>427.44</ele>
        <time>2014-11-08T09:48:22Z</time>
      </trkpt>
      <trkpt lat="42.475112770" lon="-2.603126350">
        <ele>426.96</ele>
        <time>2014-11-08T09:48:23Z</time>
      </trkpt>
      <trkpt lat="42.475116710" lon="-2.603044200">
        <ele>426.48</ele>
        <time>2014-11-08T09:48:24Z</time>
      </trkpt>
      <trkpt lat="42.475108240" lon="-2.602965750">
        <ele>426.00</ele>
        <time>2014-11-08T09:48:25Z</time>
      </trkpt>
      <trkpt lat="42.475081000" lon="-2.602895170">
        <ele>425.52</ele>
        <time>2014-11-08T09:48:26Z</time>
      </trkpt>
      <trkpt lat="42.475040690" lon="-2.602838430">
        <ele>425.52</ele>
        <time>2014-11-08T09:48:27Z</time>
      </trkpt>
      <trkpt lat="42.474992070" lon="-2.602796010">
        <ele>425.04</ele>
        <time>2014-11-08T09:48:28Z</time>
      </trkpt>
      <trkpt lat="42.474936410" lon="-2.602765920">
        <ele>425.04</ele>
        <time>2014-11-08T09:48:29Z</time>
      </trkpt>
      <trkpt lat="42.474876740" lon="-2.602741780">
        <ele>425.04</ele>
        <time>2014-11-08T09:48:30Z</time>
      </trkpt>
      <trkpt lat="42.474814120" lon="-2.602725190">
        <ele>425.04</ele>
        <time>2014-11-08T09:48:31Z</time>
      </trkpt>
      <trkpt lat="42.474749000" lon="-2.602715550">
        <ele>425.04</ele>
        <time>2014-11-08T09:48:32Z</time>
      </trkpt>
      <trkpt lat="42.474685210" lon="-2.602709350">
        <ele>424.56</ele>
        <time>2014-11-08T09:48:33Z</time>
      </trkpt>
      <trkpt lat="42.474028650" lon="-2.602599370">
        <ele>424.56</ele>
        <time>2014-11-08T09:48:44Z</time>
      </trkpt>
      <trkpt lat="42.473142850" lon="-2.602441540">
        <ele>423.12</ele>
        <time>2014-11-08T09:49:00Z</time>
      </trkpt>
      <trkpt lat="42.472679250" lon="-2.602353450">
        <ele>423.12</ele>
        <time>2014-11-08T09:49:09Z</time>
      </trkpt>
      <trkpt lat="42.472424190" lon="-2.602358650">
        <ele>422.64</ele>
        <time>2014-11-08T09:49:14Z</time>
      </trkpt>
      <trkpt lat="42.472373400" lon="-2.602380940">
        <ele>422.64</ele>
        <time>2014-11-08T09:49:15Z</time>
      </trkpt>
      <trkpt lat="42.472325200" lon="-2.602416230">
        <ele>422.64</ele>
        <time>2014-11-08T09:49:16Z</time>
      </trkpt>
      <trkpt lat="42.472279600" lon="-2.602458810">
        <ele>422.16</ele>
        <time>2014-11-08T09:49:17Z</time>
      </trkpt>
      <trkpt lat="42.472231490" lon="-2.602502730">
        <ele>422.16</ele>
        <time>2014-11-08T09:49:18Z</time>
      </trkpt>
      <trkpt lat="42.472174070" lon="-2.602539700">
        <ele>420.71</ele>
        <time>2014-11-08T09:49:19Z</time>
      </trkpt>
      <trkpt lat="42.472110040" lon="-2.602563670">
        <ele>420.23</ele>
        <time>2014-11-08T09:49:20Z</time>
      </trkpt>
      <trkpt lat="42.472041390" lon="-2.602568190">
        <ele>419.75</ele>
        <time>2014-11-08T09:49:21Z</time>
      </trkpt>
      <trkpt lat="42.471969390" lon="-2.602560230">
        <ele>419.75</ele>
        <time>2014-11-08T09:49:22Z</time>
      </trkpt>
      <trkpt lat="42.471371760" lon="-2.602499130">
        <ele>417.83</ele>
        <time>2014-11-08T09:49:30Z</time>
      </trkpt>
      <trkpt lat="42.471308220" lon="-2.602470880">
        <ele>417.83</ele>
        <time>2014-11-08T09:49:31Z</time>
      </trkpt>
      <trkpt lat="42.471249220" lon="-2.602433830">
        <ele>417.83</ele>
        <time>2014-11-08T09:49:32Z</time>
      </trkpt>
      <trkpt lat="42.471194980" lon="-2.602390000">
        <ele>417.83</ele>
        <time>2014-11-08T09:49:33Z</time>
      </trkpt>
      <trkpt lat="42.471148130" lon="-2.602343060">
        <ele>417.83</ele>
        <time>2014-11-08T09:49:34Z</time>
      </trkpt>
      <trkpt lat="42.470958700" lon="-2.602144740">
        <ele>421.68</ele>
        <time>2014-11-08T09:49:39Z</time>
      </trkpt>
      <trkpt lat="42.470921230" lon="-2.602117250">
        <ele>421.68</ele>
        <time>2014-11-08T09:49:40Z</time>
      </trkpt>
      <trkpt lat="42.470840350" lon="-2.602069140">
        <ele>422.16</ele>
        <time>2014-11-08T09:49:42Z</time>
      </trkpt>
      <trkpt lat="42.470795500" lon="-2.602052710">
        <ele>422.16</ele>
        <time>2014-11-08T09:49:43Z</time>
      </trkpt>
      <trkpt lat="42.470703220" lon="-2.602022360">
        <ele>422.64</ele>
        <time>2014-11-08T09:49:45Z</time>
      </trkpt>
      <trkpt lat="42.469889340" lon="-2.601940470">
        <ele>423.12</ele>
        <time>2014-11-08T09:50:02Z</time>
      </trkpt>
      <trkpt lat="42.469070590" lon="-2.601850280">
        <ele>423.12</ele>
        <time>2014-11-08T09:50:19Z</time>
      </trkpt>
      <trkpt lat="42.468267860" lon="-2.601632100">
        <ele>423.12</ele>
        <time>2014-11-08T09:50:38Z</time>
      </trkpt>
      <trkpt lat="42.467739040" lon="-2.601417190">
        <ele>423.12</ele>
        <time>2014-11-08T09:50:53Z</time>
      </trkpt>
      <trkpt lat="42.467402680" lon="-2.601252650">
        <ele>423.12</ele>
        <time>2014-11-08T09:51:07Z</time>
      </trkpt>
      <trkpt lat="42.467387760" lon="-2.601240840">
        <ele>423.60</ele>
        <time>2014-11-08T09:51:08Z</time>
      </trkpt>
      <trkpt lat="42.467372920" lon="-2.601235390">
        <ele>423.60</ele>
        <time>2014-11-08T09:51:09Z</time>
      </trkpt>
      <trkpt lat="42.467110730" lon="-2.601041510">
        <ele>423.60</ele>
        <time>2014-11-08T09:51:19Z</time>
      </trkpt>
      <trkpt lat="42.466705800" lon="-2.600816040">
        <ele>423.60</ele>
        <time>2014-11-08T09:51:31Z</time>
      </trkpt>
      <trkpt lat="42.466656180" lon="-2.600816960">
        <ele>423.60</ele>
        <time>2014-11-08T09:51:32Z</time>
      </trkpt>
      <trkpt lat="42.466602870" lon="-2.600823000">
        <ele>422.16</ele>
        <time>2014-11-08T09:51:33Z</time>
      </trkpt>
      <trkpt lat="42.466548810" lon="-2.600835150">
        <ele>422.16</ele>
        <time>2014-11-08T09:51:34Z</time>
      </trkpt>
      <trkpt lat="42.466495420" lon="-2.600852330">
        <ele>422.16</ele>
        <time>2014-11-08T09:51:35Z</time>
      </trkpt>
      <trkpt lat="42.466446380" lon="-2.600870520">
        <ele>422.16</ele>
        <time>2014-11-08T09:51:36Z</time>
      </trkpt>
      <trkpt lat="42.465921010" lon="-2.600931710">
        <ele>422.16</ele>
        <time>2014-11-08T09:51:49Z</time>
      </trkpt>
      <trkpt lat="42.465796790" lon="-2.600926600">
        <ele>423.12</ele>
        <time>2014-11-08T09:51:52Z</time>
      </trkpt>
      <trkpt lat="42.465444080" lon="-2.600884440">
        <ele>425.04</ele>
        <time>2014-11-08T09:52:01Z</time>
      </trkpt>
      <trkpt lat="42.464838900" lon="-2.600716800">
        <ele>426.96</ele>
        <time>2014-11-08T09:52:18Z</time>
      </trkpt>
      <trkpt lat="42.464639410" lon="-2.600644800">
        <ele>427.92</ele>
        <time>2014-11-08T09:52:31Z</time>
      </trkpt>
      <trkpt lat="42.464607480" lon="-2.600647980">
        <ele>428.40</ele>
        <time>2014-11-08T09:52:46Z</time>
      </trkpt>
      <trkpt lat="42.464613180" lon="-2.600638600">
        <ele>428.40</ele>
        <time>2014-11-08T09:52:58Z</time>
      </trkpt>
      <trkpt lat="42.464603370" lon="-2.600643540">
        <ele>428.40</ele>
        <time>2014-11-08T09:53:18Z</time>
      </trkpt>
      <trkpt lat="42.464601950" lon="-2.600637670">
        <ele>427.92</ele>
        <time>2014-11-08T09:53:36Z</time>
      </trkpt>
      <trkpt lat="42.464595160" lon="-2.600626440">
        <ele>427.92</ele>
        <time>2014-11-08T09:53:53Z</time>
      </trkpt>
      <trkpt lat="42.464509410" lon="-2.600523760">
        <ele>427.92</ele>
        <time>2014-11-08T09:54:02Z</time>
      </trkpt>
      <trkpt lat="42.464488620" lon="-2.600472300">
        <ele>427.92</ele>
        <time>2014-11-08T09:54:03Z</time>
      </trkpt>
      <trkpt lat="42.464470430" lon="-2.600411870">
        <ele>427.92</ele>
        <time>2014-11-08T09:54:04Z</time>
      </trkpt>
      <trkpt lat="42.464454510" lon="-2.600345900">
        <ele>427.92</ele>
        <time>2014-11-08T09:54:05Z</time>
      </trkpt>
      <trkpt lat="42.464270950" lon="-2.599599160">
        <ele>426.48</ele>
        <time>2014-11-08T09:54:15Z</time>
      </trkpt>
      <trkpt lat="42.463897200" lon="-2.598061920">
        <ele>425.04</ele>
        <time>2014-11-08T09:54:36Z</time>
      </trkpt>
      <trkpt lat="42.463544070" lon="-2.596682510">
        <ele>423.60</ele>
        <time>2014-11-08T09:54:54Z</time>
      </trkpt>
      <trkpt lat="42.463197480" lon="-2.595326820">
        <ele>422.64</ele>
        <time>2014-11-08T09:55:12Z</time>
      </trkpt>
      <trkpt lat="42.463033110" lon="-2.594797750">
        <ele>422.64</ele>
        <time>2014-11-08T09:55:20Z</time>
      </trkpt>
      <trkpt lat="42.462999750" lon="-2.594741260">
        <ele>422.64</ele>
        <time>2014-11-08T09:55:21Z</time>
      </trkpt>
      <trkpt lat="42.462958420" lon="-2.594693820">
        <ele>422.64</ele>
        <time>2014-11-08T09:55:22Z</time>
      </trkpt>
      <trkpt lat="42.462911990" lon="-2.594658110">
        <ele>421.68</ele>
        <time>2014-11-08T09:55:23Z</time>
      </trkpt>
      <trkpt lat="42.462862280" lon="-2.594631870">
        <ele>421.68</ele>
        <time>2014-11-08T09:55:24Z</time>
      </trkpt>
      <trkpt lat="42.462670920" lon="-2.594543110">
        <ele>423.12</ele>
        <time>2014-11-08T09:55:28Z</time>
      </trkpt>
      <trkpt lat="42.462550140" lon="-2.594366670">
        <ele>423.60</ele>
        <time>2014-11-08T09:55:32Z</time>
      </trkpt>
      <trkpt lat="42.462266250" lon="-2.593292030">
        <ele>423.60</ele>
        <time>2014-11-08T09:55:50Z</time>
      </trkpt>
      <trkpt lat="42.462088970" lon="-2.592576380">
        <ele>422.16</ele>
        <time>2014-11-08T09:56:02Z</time>
      </trkpt>
      <trkpt lat="42.461936670" lon="-2.592049160">
        <ele>422.16</ele>
        <time>2014-11-08T09:56:11Z</time>
      </trkpt>
      <trkpt lat="42.461653610" lon="-2.591645320">
        <ele>422.16</ele>
        <time>2014-11-08T09:56:23Z</time>
      </trkpt>
      <trkpt lat="42.461314150" lon="-2.591440800">
        <ele>422.16</ele>
        <time>2014-11-08T09:56:34Z</time>
      </trkpt>
      <trkpt lat="42.460978370" lon="-2.591476590">
        <ele>422.16</ele>
        <time>2014-11-08T09:56:45Z</time>
      </trkpt>
      <trkpt lat="42.460332460" lon="-2.591473910">
        <ele>424.56</ele>
        <time>2014-11-08T09:57:04Z</time>
      </trkpt>
      <trkpt lat="42.459809850" lon="-2.591651520">
        <ele>426.00</ele>
        <time>2014-11-08T09:57:21Z</time>
      </trkpt>
      <trkpt lat="42.459459230" lon="-2.591874390">
        <ele>427.44</ele>
        <time>2014-11-08T09:57:36Z</time>
      </trkpt>
      <trkpt lat="42.459150520" lon="-2.592293990">
        <ele>428.89</ele>
        <time>2014-11-08T09:57:53Z</time>
      </trkpt>
      <trkpt lat="42.458997890" lon="-2.592501530">
        <ele>432.25</ele>
        <time>2014-11-08T09:58:03Z</time>
      </trkpt>
      <trkpt lat="42.458687590" lon="-2.592776040">
        <ele>434.65</ele>
        <time>2014-11-08T09:58:20Z</time>
      </trkpt>
      <trkpt lat="42.458353570" lon="-2.593048870">
        <ele>437.06</ele>
        <time>2014-11-08T09:58:38Z</time>
      </trkpt>
      <trkpt lat="42.457895080" lon="-2.593193040">
        <ele>437.06</ele>
        <time>2014-11-08T09:58:54Z</time>
      </trkpt>
      <trkpt lat="42.457766170" lon="-2.593203510">
        <ele>437.06</ele>
        <time>2014-11-08T09:58:58Z</time>
      </trkpt>
      <trkpt lat="42.457731800" lon="-2.593169150">
        <ele>438.02</ele>
        <time>2014-11-08T09:59:00Z</time>
      </trkpt>
      <trkpt lat="42.457734400" lon="-2.593131760">
        <ele>438.02</ele>
        <time>2014-11-08T09:59:01Z</time>
      </trkpt>
      <trkpt lat="42.457736250" lon="-2.593092960">
        <ele>438.98</ele>
        <time>2014-11-08T09:59:02Z</time>
      </trkpt>
      <trkpt lat="42.457736830" lon="-2.593058170">
        <ele>438.98</ele>
        <time>2014-11-08T09:59:03Z</time>
      </trkpt>
      <trkpt lat="42.457708330" lon="-2.592488960">
        <ele>439.46</ele>
        <time>2014-11-08T09:59:20Z</time>
      </trkpt>
      <trkpt lat="42.457669360" lon="-2.591815720">
        <ele>441.38</ele>
        <time>2014-11-08T09:59:38Z</time>
      </trkpt>
      <trkpt lat="42.457597110" lon="-2.591252040">
        <ele>444.75</ele>
        <time>2014-11-08T09:59:54Z</time>
      </trkpt>
      <trkpt lat="42.457555530" lon="-2.591000410">
        <ele>447.63</ele>
        <time>2014-11-08T10:00:04Z</time>
      </trkpt>
      <trkpt lat="42.457534240" lon="-2.590796150">
        <ele>448.59</ele>
        <time>2014-11-08T10:00:13Z</time>
      </trkpt>
      <trkpt lat="42.457532570" lon="-2.590774350">
        <ele>449.07</ele>
        <time>2014-11-08T10:00:14Z</time>
      </trkpt>
      <trkpt lat="42.457531640" lon="-2.590752810">
        <ele>449.07</ele>
        <time>2014-11-08T10:00:15Z</time>
      </trkpt>
      <trkpt lat="42.457529630" lon="-2.590732280">
        <ele>449.07</ele>
        <time>2014-11-08T10:00:16Z</time>
      </trkpt>
      <trkpt lat="42.457527700" lon="-2.590709060">
        <ele>449.07</ele>
        <time>2014-11-08T10:00:17Z</time>
      </trkpt>
      <trkpt lat="42.457513370" lon="-2.590231370">
        <ele>449.55</ele>
        <time>2014-11-08T10:00:33Z</time>
      </trkpt>
      <trkpt lat="42.457532400" lon="-2.589584630">
        <ele>449.55</ele>
        <time>2014-11-08T10:00:50Z</time>
      </trkpt>
      <trkpt lat="42.457577240" lon="-2.588878700">
        <ele>449.55</ele>
        <time>2014-11-08T10:01:06Z</time>
      </trkpt>
      <trkpt lat="42.457637510" lon="-2.588002540">
        <ele>450.03</ele>
        <time>2014-11-08T10:01:23Z</time>
      </trkpt>
      <trkpt lat="42.457623340" lon="-2.587730380">
        <ele>450.03</ele>
        <time>2014-11-08T10:01:28Z</time>
      </trkpt>
      <trkpt lat="42.457609010" lon="-2.587675900">
        <ele>450.03</ele>
        <time>2014-11-08T10:01:29Z</time>
      </trkpt>
      <trkpt lat="42.457555200" lon="-2.587414050">
        <ele>450.03</ele>
        <time>2014-11-08T10:01:34Z</time>
      </trkpt>
      <trkpt lat="42.457552430" lon="-2.587354790">
        <ele>450.03</ele>
        <time>2014-11-08T10:01:35Z</time>
      </trkpt>
      <trkpt lat="42.457553190" lon="-2.587295110">
        <ele>450.03</ele>
        <time>2014-11-08T10:01:36Z</time>
      </trkpt>
      <trkpt lat="42.457564000" lon="-2.587236350">
        <ele>450.03</ele>
        <time>2014-11-08T10:01:37Z</time>
      </trkpt>
      <trkpt lat="42.457583030" lon="-2.587180700">
        <ele>450.03</ele>
        <time>2014-11-08T10:01:38Z</time>
      </trkpt>
      <trkpt lat="42.457606330" lon="-2.587131160">
        <ele>450.03</ele>
        <time>2014-11-08T10:01:39Z</time>
      </trkpt>
      <trkpt lat="42.457628540" lon="-2.587086820">
        <ele>450.03</ele>
        <time>2014-11-08T10:01:40Z</time>
      </trkpt>
      <trkpt lat="42.457706660" lon="-2.586873000">
        <ele>452.44</ele>
        <time>2014-11-08T10:01:45Z</time>
      </trkpt>
      <trkpt lat="42.457699870" lon="-2.586186600">
        <ele>452.44</ele>
        <time>2014-11-08T10:01:57Z</time>
      </trkpt>
      <trkpt lat="42.457728370" lon="-2.585566840">
        <ele>455.80</ele>
        <time>2014-11-08T10:02:10Z</time>
      </trkpt>
      <trkpt lat="42.457726520" lon="-2.585144650">
        <ele>459.17</ele>
        <time>2014-11-08T10:02:24Z</time>
      </trkpt>
      <trkpt lat="42.457655780" lon="-2.584761180">
        <ele>457.24</ele>
        <time>2014-11-08T10:02:38Z</time>
      </trkpt>
      <trkpt lat="42.457580590" lon="-2.584111580">
        <ele>455.32</ele>
        <time>2014-11-08T10:02:51Z</time>
      </trkpt>
      <trkpt lat="42.457561320" lon="-2.583845030">
        <ele>456.76</ele>
        <time>2014-11-08T10:02:57Z</time>
      </trkpt>
      <trkpt lat="42.457496940" lon="-2.583408420">
        <ele>459.65</ele>
        <time>2014-11-08T10:03:12Z</time>
      </trkpt>
      <trkpt lat="42.457497450" lon="-2.583388050">
        <ele>459.65</ele>
        <time>2014-11-08T10:03:13Z</time>
      </trkpt>
      <trkpt lat="42.457504650" lon="-2.583325440">
        <ele>460.61</ele>
        <time>2014-11-08T10:03:16Z</time>
      </trkpt>
      <trkpt lat="42.457496780" lon="-2.583303560">
        <ele>460.61</ele>
        <time>2014-11-08T10:03:17Z</time>
      </trkpt>
      <trkpt lat="42.457487640" lon="-2.583283610">
        <ele>461.09</ele>
        <time>2014-11-08T10:03:18Z</time>
      </trkpt>
      <trkpt lat="42.457474810" lon="-2.583244890">
        <ele>461.09</ele>
        <time>2014-11-08T10:03:20Z</time>
      </trkpt>
      <trkpt lat="42.457478420" lon="-2.583223100">
        <ele>461.09</ele>
        <time>2014-11-08T10:03:21Z</time>
      </trkpt>
      <trkpt lat="42.457484540" lon="-2.583202390">
        <ele>461.57</ele>
        <time>2014-11-08T10:03:22Z</time>
      </trkpt>
      <trkpt lat="42.457486800" lon="-2.583179430">
        <ele>461.57</ele>
        <time>2014-11-08T10:03:23Z</time>
      </trkpt>
      <trkpt lat="42.457483200" lon="-2.583154450">
        <ele>461.09</ele>
        <time>2014-11-08T10:03:24Z</time>
      </trkpt>
      <trkpt lat="42.457477920" lon="-2.583127710">
        <ele>461.57</ele>
        <time>2014-11-08T10:03:25Z</time>
      </trkpt>
      <trkpt lat="42.457473310" lon="-2.583100130">
        <ele>461.57</ele>
        <time>2014-11-08T10:03:26Z</time>
      </trkpt>
      <trkpt lat="42.457421090" lon="-2.582753210">
        <ele>464.93</ele>
        <time>2014-11-08T10:03:39Z</time>
      </trkpt>
      <trkpt lat="42.457388650" lon="-2.582453140">
        <ele>467.82</ele>
        <time>2014-11-08T10:03:50Z</time>
      </trkpt>
      <trkpt lat="42.457313710" lon="-2.582150130">
        <ele>471.18</ele>
        <time>2014-11-08T10:04:03Z</time>
      </trkpt>
      <trkpt lat="42.457304080" lon="-2.582111820">
        <ele>471.18</ele>
        <time>2014-11-08T10:04:05Z</time>
      </trkpt>
      <trkpt lat="42.457305500" lon="-2.582090620">
        <ele>471.66</ele>
        <time>2014-11-08T10:04:06Z</time>
      </trkpt>
      <trkpt lat="42.457305330" lon="-2.582071170">
        <ele>471.66</ele>
        <time>2014-11-08T10:04:07Z</time>
      </trkpt>
      <trkpt lat="42.457303400" lon="-2.582050300">
        <ele>471.66</ele>
        <time>2014-11-08T10:04:08Z</time>
      </trkpt>
      <trkpt lat="42.457297620" lon="-2.582035800">
        <ele>471.66</ele>
        <time>2014-11-08T10:04:09Z</time>
      </trkpt>
      <trkpt lat="42.457289660" lon="-2.582024570">
        <ele>472.63</ele>
        <time>2014-11-08T10:04:10Z</time>
      </trkpt>
      <trkpt lat="42.457283460" lon="-2.582008560">
        <ele>472.63</ele>
        <time>2014-11-08T10:04:11Z</time>
      </trkpt>
      <trkpt lat="42.457277590" lon="-2.581993720">
        <ele>472.14</ele>
        <time>2014-11-08T10:04:12Z</time>
      </trkpt>
      <trkpt lat="42.457271550" lon="-2.581981490">
        <ele>472.14</ele>
        <time>2014-11-08T10:04:13Z</time>
      </trkpt>
      <trkpt lat="42.457269290" lon="-2.581965480">
        <ele>472.14</ele>
        <time>2014-11-08T10:04:14Z</time>
      </trkpt>
      <trkpt lat="42.457267280" lon="-2.581945860">
        <ele>473.11</ele>
        <time>2014-11-08T10:04:15Z</time>
      </trkpt>
      <trkpt lat="42.457264430" lon="-2.581923900">
        <ele>472.63</ele>
        <time>2014-11-08T10:04:16Z</time>
      </trkpt>
      <trkpt lat="42.457261410" lon="-2.581900850">
        <ele>473.11</ele>
        <time>2014-11-08T10:04:17Z</time>
      </trkpt>
      <trkpt lat="42.457255290" lon="-2.581880650">
        <ele>473.11</ele>
        <time>2014-11-08T10:04:18Z</time>
      </trkpt>
      <trkpt lat="42.457250010" lon="-2.581865310">
        <ele>473.11</ele>
        <time>2014-11-08T10:04:19Z</time>
      </trkpt>
      <trkpt lat="42.457245910" lon="-2.581846790">
        <ele>473.59</ele>
        <time>2014-11-08T10:04:20Z</time>
      </trkpt>
      <trkpt lat="42.457241550" lon="-2.581827930">
        <ele>473.59</ele>
        <time>2014-11-08T10:04:21Z</time>
      </trkpt>
      <trkpt lat="42.457237020" lon="-2.581809820">
        <ele>473.59</ele>
        <time>2014-11-08T10:04:22Z</time>
      </trkpt>
      <trkpt lat="42.457229640" lon="-2.581793310">
        <ele>474.07</ele>
        <time>2014-11-08T10:04:23Z</time>
      </trkpt>
      <trkpt lat="42.457222600" lon="-2.581778730">
        <ele>474.07</ele>
        <time>2014-11-08T10:04:24Z</time>
      </trkpt>
      <trkpt lat="42.457201230" lon="-2.581735480">
        <ele>474.55</ele>
        <time>2014-11-08T10:04:27Z</time>
      </trkpt>
      <trkpt lat="42.457144740" lon="-2.581510000">
        <ele>475.99</ele>
        <time>2014-11-08T10:04:40Z</time>
      </trkpt>
      <trkpt lat="42.457142390" lon="-2.581492740">
        <ele>475.99</ele>
        <time>2014-11-08T10:04:41Z</time>
      </trkpt>
      <trkpt lat="42.457138370" lon="-2.581473540">
        <ele>475.99</ele>
        <time>2014-11-08T10:04:42Z</time>
      </trkpt>
      <trkpt lat="42.457134260" lon="-2.581455940">
        <ele>475.99</ele>
        <time>2014-11-08T10:04:43Z</time>
      </trkpt>
      <trkpt lat="42.457131240" lon="-2.581438340">
        <ele>475.99</ele>
        <time>2014-11-08T10:04:44Z</time>
      </trkpt>
      <trkpt lat="42.457127800" lon="-2.581425350">
        <ele>475.99</ele>
        <time>2014-11-08T10:04:45Z</time>
      </trkpt>
      <trkpt lat="42.457057650" lon="-2.581219150">
        <ele>477.43</ele>
        <time>2014-11-08T10:05:01Z</time>
      </trkpt>
      <trkpt lat="42.457049270" lon="-2.581210350">
        <ele>477.43</ele>
        <time>2014-11-08T10:05:02Z</time>
      </trkpt>
      <trkpt lat="42.457040460" lon="-2.581196270">
        <ele>477.43</ele>
        <time>2014-11-08T10:05:03Z</time>
      </trkpt>
      <trkpt lat="42.457030320" lon="-2.581183110">
        <ele>477.43</ele>
        <time>2014-11-08T10:05:04Z</time>
      </trkpt>
      <trkpt lat="42.457021860" lon="-2.581166510">
        <ele>477.43</ele>
        <time>2014-11-08T10:05:05Z</time>
      </trkpt>
      <trkpt lat="42.457020180" lon="-2.581143630">
        <ele>477.43</ele>
        <time>2014-11-08T10:05:06Z</time>
      </trkpt>
      <trkpt lat="42.457019170" lon="-2.581121080">
        <ele>477.43</ele>
        <time>2014-11-08T10:05:07Z</time>
      </trkpt>
      <trkpt lat="42.457014400" lon="-2.581101220">
        <ele>477.43</ele>
        <time>2014-11-08T10:05:08Z</time>
      </trkpt>
      <trkpt lat="42.457008780" lon="-2.581080600">
        <ele>477.43</ele>
        <time>2014-11-08T10:05:09Z</time>
      </trkpt>
      <trkpt lat="42.457005340" lon="-2.581061490">
        <ele>477.43</ele>
        <time>2014-11-08T10:05:10Z</time>
      </trkpt>
      <trkpt lat="42.456999810" lon="-2.581040950">
        <ele>477.91</ele>
        <time>2014-11-08T10:05:11Z</time>
      </trkpt>
      <trkpt lat="42.456992270" lon="-2.581022430">
        <ele>477.91</ele>
        <time>2014-11-08T10:05:12Z</time>
      </trkpt>
      <trkpt lat="42.456986150" lon="-2.581008350">
        <ele>477.91</ele>
        <time>2014-11-08T10:05:13Z</time>
      </trkpt>
      <trkpt lat="42.456979110" lon="-2.580991580">
        <ele>477.91</ele>
        <time>2014-11-08T10:05:14Z</time>
      </trkpt>
      <trkpt lat="42.456965280" lon="-2.580958810">
        <ele>478.39</ele>
        <time>2014-11-08T10:05:16Z</time>
      </trkpt>
      <trkpt lat="42.456955390" lon="-2.580949590">
        <ele>478.39</ele>
        <time>2014-11-08T10:05:17Z</time>
      </trkpt>
      <trkpt lat="42.456946920" lon="-2.580935340">
        <ele>478.39</ele>
        <time>2014-11-08T10:05:18Z</time>
      </trkpt>
      <trkpt lat="42.456942400" lon="-2.580916820">
        <ele>478.39</ele>
        <time>2014-11-08T10:05:19Z</time>
      </trkpt>
      <trkpt lat="42.456938210" lon="-2.580894520">
        <ele>478.87</ele>
        <time>2014-11-08T10:05:20Z</time>
      </trkpt>
      <trkpt lat="42.456934850" lon="-2.580873310">
        <ele>478.87</ele>
        <time>2014-11-08T10:05:21Z</time>
      </trkpt>
      <trkpt lat="42.456927730" lon="-2.580852020">
        <ele>478.87</ele>
        <time>2014-11-08T10:05:22Z</time>
      </trkpt>
      <trkpt lat="42.456813150" lon="-2.580531170">
        <ele>479.84</ele>
        <time>2014-11-08T10:05:37Z</time>
      </trkpt>
      <trkpt lat="42.456659590" lon="-2.580121370">
        <ele>480.80</ele>
        <time>2014-11-08T10:05:52Z</time>
      </trkpt>
      <trkpt lat="42.456476190" lon="-2.579663810">
        <ele>482.72</ele>
        <time>2014-11-08T10:06:09Z</time>
      </trkpt>
      <trkpt lat="42.456245440" lon="-2.579201540">
        <ele>484.64</ele>
        <time>2014-11-08T10:06:29Z</time>
      </trkpt>
      <trkpt lat="42.456073860" lon="-2.578938600">
        <ele>486.56</ele>
        <time>2014-11-08T10:06:41Z</time>
      </trkpt>
      <trkpt lat="42.455811680" lon="-2.578511550">
        <ele>488.49</ele>
        <time>2014-11-08T10:07:00Z</time>
      </trkpt>
      <trkpt lat="42.455613860" lon="-2.578251710">
        <ele>489.45</ele>
        <time>2014-11-08T10:07:15Z</time>
      </trkpt>
      <trkpt lat="42.455554440" lon="-2.578237620">
        <ele>489.93</ele>
        <time>2014-11-08T10:07:19Z</time>
      </trkpt>
      <trkpt lat="42.455495180" lon="-2.578253380">
        <ele>489.93</ele>
        <time>2014-11-08T10:07:23Z</time>
      </trkpt>
      <trkpt lat="42.455481850" lon="-2.578245000">
        <ele>489.93</ele>
        <time>2014-11-08T10:07:24Z</time>
      </trkpt>
      <trkpt lat="42.455462660" lon="-2.578227320">
        <ele>490.41</ele>
        <time>2014-11-08T10:07:37Z</time>
      </trkpt>
      <trkpt lat="42.455449500" lon="-2.578206440">
        <ele>490.41</ele>
        <time>2014-11-08T10:07:39Z</time>
      </trkpt>
      <trkpt lat="42.455339690" lon="-2.577953060">
        <ele>490.41</ele>
        <time>2014-11-08T10:07:50Z</time>
      </trkpt>
      <trkpt lat="42.455095700" lon="-2.577508480">
        <ele>489.93</ele>
        <time>2014-11-08T10:08:05Z</time>
      </trkpt>
      <trkpt lat="42.454904590" lon="-2.577200280">
        <ele>490.41</ele>
        <time>2014-11-08T10:08:16Z</time>
      </trkpt>
      <trkpt lat="42.454579450" lon="-2.576630980">
        <ele>488.97</ele>
        <time>2014-11-08T10:08:31Z</time>
      </trkpt>
      <trkpt lat="42.454524380" lon="-2.576536010">
        <ele>488.97</ele>
        <time>2014-11-08T10:08:33Z</time>
      </trkpt>
      <trkpt lat="42.454491780" lon="-2.576491260">
        <ele>488.49</ele>
        <time>2014-11-08T10:08:34Z</time>
      </trkpt>
      <trkpt lat="42.454005380" lon="-2.575997810">
        <ele>487.05</ele>
        <time>2014-11-08T10:08:47Z</time>
      </trkpt>
      <trkpt lat="42.453052770" lon="-2.575290970">
        <ele>485.12</ele>
        <time>2014-11-08T10:09:09Z</time>
      </trkpt>
      <trkpt lat="42.452427480" lon="-2.574783360">
        <ele>484.64</ele>
        <time>2014-11-08T10:09:23Z</time>
      </trkpt>
      <trkpt lat="42.451768250" lon="-2.574221940">
        <ele>486.08</ele>
        <time>2014-11-08T10:09:40Z</time>
      </trkpt>
      <trkpt lat="42.451244040" lon="-2.573761270">
        <ele>488.49</ele>
        <time>2014-11-08T10:09:55Z</time>
      </trkpt>
      <trkpt lat="42.451068020" lon="-2.573624310">
        <ele>490.41</ele>
        <time>2014-11-08T10:10:00Z</time>
      </trkpt>
      <trkpt lat="42.450520600" lon="-2.573433370">
        <ele>493.29</ele>
        <time>2014-11-08T10:10:16Z</time>
      </trkpt>
      <trkpt lat="42.450124560" lon="-2.573269420">
        <ele>495.70</ele>
        <time>2014-11-08T10:10:31Z</time>
      </trkpt>
      <trkpt lat="42.449803110" lon="-2.573183420">
        <ele>497.14</ele>
        <time>2014-11-08T10:10:45Z</time>
      </trkpt>
      <trkpt lat="42.449557690" lon="-2.573137740">
        <ele>498.10</ele>
        <time>2014-11-08T10:11:00Z</time>
      </trkpt>
      <trkpt lat="42.449273540" lon="-2.573025000">
        <ele>498.10</ele>
        <time>2014-11-08T10:11:14Z</time>
      </trkpt>
      <trkpt lat="42.448924770" lon="-2.572926010">
        <ele>498.10</ele>
        <time>2014-11-08T10:11:27Z</time>
      </trkpt>
      <trkpt lat="42.448872890" lon="-2.572908830">
        <ele>496.66</ele>
        <time>2014-11-08T10:11:29Z</time>
      </trkpt>
      <trkpt lat="42.448474660" lon="-2.572783100">
        <ele>496.18</ele>
        <time>2014-11-08T10:11:44Z</time>
      </trkpt>
      <trkpt lat="42.448052380" lon="-2.572690570">
        <ele>494.26</ele>
        <time>2014-11-08T10:11:58Z</time>
      </trkpt>
      <trkpt lat="42.447589530" lon="-2.572673720">
        <ele>491.37</ele>
        <time>2014-11-08T10:12:09Z</time>
      </trkpt>
      <trkpt lat="42.447168510" lon="-2.572658630">
        <ele>488.97</ele>
        <time>2014-11-08T10:12:18Z</time>
      </trkpt>
      <trkpt lat="42.447126180" lon="-2.572655700">
        <ele>488.01</ele>
        <time>2014-11-08T10:12:19Z</time>
      </trkpt>
      <trkpt lat="42.446634000" lon="-2.572624520">
        <ele>485.12</ele>
        <time>2014-11-08T10:12:28Z</time>
      </trkpt>
      <trkpt lat="42.446376590" lon="-2.572584530">
        <ele>483.20</ele>
        <time>2014-11-08T10:12:32Z</time>
      </trkpt>
      <trkpt lat="42.445327170" lon="-2.572377170">
        <ele>481.28</ele>
        <time>2014-11-08T10:12:50Z</time>
      </trkpt>
      <trkpt lat="42.444421590" lon="-2.572165270">
        <ele>481.28</ele>
        <time>2014-11-08T10:13:09Z</time>
      </trkpt>
      <trkpt lat="42.444121520" lon="-2.572276080">
        <ele>481.28</ele>
        <time>2014-11-08T10:13:19Z</time>
      </trkpt>
      <trkpt lat="42.443970310" lon="-2.572710100">
        <ele>482.24</ele>
        <time>2014-11-08T10:13:31Z</time>
      </trkpt>
      <trkpt lat="42.443727570" lon="-2.572737340">
        <ele>482.24</ele>
        <time>2014-11-08T10:13:38Z</time>
      </trkpt>
      <trkpt lat="42.443598320" lon="-2.572715880">
        <ele>482.24</ele>
        <time>2014-11-08T10:13:41Z</time>
      </trkpt>
      <trkpt lat="42.443512740" lon="-2.572698440">
        <ele>482.24</ele>
        <time>2014-11-08T10:13:43Z</time>
      </trkpt>
      <trkpt lat="42.442986280" lon="-2.572590650">
        <ele>480.80</ele>
        <time>2014-11-08T10:13:56Z</time>
      </trkpt>
      <trkpt lat="42.442413540" lon="-2.572515630">
        <ele>480.32</ele>
        <time>2014-11-08T10:14:09Z</time>
      </trkpt>
      <trkpt lat="42.442163680" lon="-2.572641610">
        <ele>480.32</ele>
        <time>2014-11-08T10:14:15Z</time>
      </trkpt>
      <trkpt lat="42.441989750" lon="-2.572789810">
        <ele>480.32</ele>
        <time>2014-11-08T10:14:20Z</time>
      </trkpt>
      <trkpt lat="42.441851790" lon="-2.572664160">
        <ele>480.32</ele>
        <time>2014-11-08T10:14:25Z</time>
      </trkpt>
      <trkpt lat="42.441645590" lon="-2.572266270">
        <ele>480.32</ele>
        <time>2014-11-08T10:14:36Z</time>
      </trkpt>
      <trkpt lat="42.441497060" lon="-2.572100140">
        <ele>479.84</ele>
        <time>2014-11-08T10:14:46Z</time>
      </trkpt>
      <trkpt lat="42.440853080" lon="-2.571856820">
        <ele>479.84</ele>
        <time>2014-11-08T10:15:04Z</time>
      </trkpt>
      <trkpt lat="42.440339020" lon="-2.571635620">
        <ele>481.76</ele>
        <time>2014-11-08T10:15:20Z</time>
      </trkpt>
      <trkpt lat="42.439672160" lon="-2.571332450">
        <ele>484.16</ele>
        <time>2014-11-08T10:15:42Z</time>
      </trkpt>
      <trkpt lat="42.439155330" lon="-2.571110910">
        <ele>486.56</ele>
        <time>2014-11-08T10:16:01Z</time>
      </trkpt>
      <trkpt lat="42.438720470" lon="-2.570939170">
        <ele>488.97</ele>
        <time>2014-11-08T10:16:19Z</time>
      </trkpt>
      <trkpt lat="42.438343790" lon="-2.570792400">
        <ele>490.89</ele>
        <time>2014-11-08T10:16:36Z</time>
      </trkpt>
      <trkpt lat="42.437978510" lon="-2.570608580">
        <ele>491.85</ele>
        <time>2014-11-08T10:16:52Z</time>
      </trkpt>
      <trkpt lat="42.437565200" lon="-2.570611690">
        <ele>491.85</ele>
        <time>2014-11-08T10:17:06Z</time>
      </trkpt>
      <trkpt lat="42.437276940" lon="-2.570904550">
        <ele>492.81</ele>
        <time>2014-11-08T10:17:18Z</time>
      </trkpt>
      <trkpt lat="42.436898000" lon="-2.570986110">
        <ele>493.29</ele>
        <time>2014-11-08T10:17:30Z</time>
      </trkpt>
      <trkpt lat="42.436548140" lon="-2.570770270">
        <ele>493.77</ele>
        <time>2014-11-08T10:17:42Z</time>
      </trkpt>
      <trkpt lat="42.436329370" lon="-2.570301050">
        <ele>493.77</ele>
        <time>2014-11-08T10:17:53Z</time>
      </trkpt>
      <trkpt lat="42.436303050" lon="-2.570195270">
        <ele>493.77</ele>
        <time>2014-11-08T10:17:55Z</time>
      </trkpt>
      <trkpt lat="42.436266670" lon="-2.570017320">
        <ele>493.77</ele>
        <time>2014-11-08T10:17:58Z</time>
      </trkpt>
      <trkpt lat="42.436249490" lon="-2.569960580">
        <ele>493.77</ele>
        <time>2014-11-08T10:17:59Z</time>
      </trkpt>
      <trkpt lat="42.436167010" lon="-2.569758580">
        <ele>493.77</ele>
        <time>2014-11-08T10:18:03Z</time>
      </trkpt>
      <trkpt lat="42.436139850" lon="-2.569717000">
        <ele>493.77</ele>
        <time>2014-11-08T10:18:04Z</time>
      </trkpt>
      <trkpt lat="42.436108920" lon="-2.569680200">
        <ele>493.77</ele>
        <time>2014-11-08T10:18:05Z</time>
      </trkpt>
      <trkpt lat="42.435577260" lon="-2.569371160">
        <ele>496.18</ele>
        <time>2014-11-08T10:18:21Z</time>
      </trkpt>
      <trkpt lat="42.435240980" lon="-2.569189030">
        <ele>497.14</ele>
        <time>2014-11-08T10:18:33Z</time>
      </trkpt>
      <trkpt lat="42.434821130" lon="-2.568970680">
        <ele>499.06</ele>
        <time>2014-11-08T10:18:47Z</time>
      </trkpt>
      <trkpt lat="42.434401700" lon="-2.568732880">
        <ele>499.54</ele>
        <time>2014-11-08T10:19:02Z</time>
      </trkpt>
      <trkpt lat="42.433873300" lon="-2.568474970">
        <ele>500.50</ele>
        <time>2014-11-08T10:19:18Z</time>
      </trkpt>
      <trkpt lat="42.433158660" lon="-2.568025870">
        <ele>500.50</ele>
        <time>2014-11-08T10:19:37Z</time>
      </trkpt>
      <trkpt lat="42.433123540" lon="-2.567995780">
        <ele>500.50</ele>
        <time>2014-11-08T10:19:38Z</time>
      </trkpt>
      <trkpt lat="42.432612250" lon="-2.567594450">
        <ele>500.50</ele>
        <time>2014-11-08T10:19:53Z</time>
      </trkpt>
      <trkpt lat="42.432449130" lon="-2.567456320">
        <ele>500.50</ele>
        <time>2014-11-08T10:19:58Z</time>
      </trkpt>
      <trkpt lat="42.431988460" lon="-2.567073180">
        <ele>501.46</ele>
        <time>2014-11-08T10:20:13Z</time>
      </trkpt>
      <trkpt lat="42.431574570" lon="-2.566620220">
        <ele>503.87</ele>
        <time>2014-11-08T10:20:29Z</time>
      </trkpt>
      <trkpt lat="42.431268960" lon="-2.566302550">
        <ele>506.75</ele>
        <time>2014-11-08T10:20:43Z</time>
      </trkpt>
      <trkpt lat="42.431053210" lon="-2.566189230">
        <ele>508.19</ele>
        <time>2014-11-08T10:20:53Z</time>
      </trkpt>
      <trkpt lat="42.430884480" lon="-2.565758980">
        <ele>508.19</ele>
        <time>2014-11-08T10:21:05Z</time>
      </trkpt>
      <trkpt lat="42.430542330" lon="-2.565402840">
        <ele>510.60</ele>
        <time>2014-11-08T10:21:21Z</time>
      </trkpt>
      <trkpt lat="42.430352320" lon="-2.565319100">
        <ele>510.60</ele>
        <time>2014-11-08T10:21:32Z</time>
      </trkpt>
      <trkpt lat="42.430145950" lon="-2.565214660">
        <ele>510.60</ele>
        <time>2014-11-08T10:21:45Z</time>
      </trkpt>
      <trkpt lat="42.429922410" lon="-2.565069400">
        <ele>510.60</ele>
        <time>2014-11-08T10:21:56Z</time>
      </trkpt>
      <trkpt lat="42.429766670" lon="-2.565004780">
        <ele>510.60</ele>
        <time>2014-11-08T10:22:04Z</time>
      </trkpt>
      <trkpt lat="42.429515640" lon="-2.564998070">
        <ele>510.60</ele>
        <time>2014-11-08T10:22:18Z</time>
      </trkpt>
      <trkpt lat="42.429424440" lon="-2.564943510">
        <ele>510.60</ele>
        <time>2014-11-08T10:22:23Z</time>
      </trkpt>
      <trkpt lat="42.429415140" lon="-2.564916100">
        <ele>510.60</ele>
        <time>2014-11-08T10:22:24Z</time>
      </trkpt>
      <trkpt lat="42.429320670" lon="-2.564348810">
        <ele>510.60</ele>
        <time>2014-11-08T10:22:39Z</time>
      </trkpt>
      <trkpt lat="42.429009960" lon="-2.564142530">
        <ele>509.64</ele>
        <time>2014-11-08T10:22:49Z</time>
      </trkpt>
      <trkpt lat="42.428600670" lon="-2.563821340">
        <ele>508.19</ele>
        <time>2014-11-08T10:23:02Z</time>
      </trkpt>
      <trkpt lat="42.428518270" lon="-2.563682530">
        <ele>507.71</ele>
        <time>2014-11-08T10:23:05Z</time>
      </trkpt>
      <trkpt lat="42.428456410" lon="-2.563510870">
        <ele>506.75</ele>
        <time>2014-11-08T10:23:08Z</time>
      </trkpt>
      <trkpt lat="42.428419120" lon="-2.563309200">
        <ele>506.27</ele>
        <time>2014-11-08T10:23:11Z</time>
      </trkpt>
      <trkpt lat="42.428124070" lon="-2.562311840">
        <ele>505.31</ele>
        <time>2014-11-08T10:23:25Z</time>
      </trkpt>
      <trkpt lat="42.427950730" lon="-2.561760480">
        <ele>504.83</ele>
        <time>2014-11-08T10:23:35Z</time>
      </trkpt>
      <trkpt lat="42.427970850" lon="-2.561673980">
        <ele>504.83</ele>
        <time>2014-11-08T10:23:39Z</time>
      </trkpt>
      <trkpt lat="42.428001360" lon="-2.561643130">
        <ele>504.83</ele>
        <time>2014-11-08T10:23:42Z</time>
      </trkpt>
      <trkpt lat="42.428098420" lon="-2.561597620">
        <ele>504.83</ele>
        <time>2014-11-08T10:23:50Z</time>
      </trkpt>
      <trkpt lat="42.428308810" lon="-2.561545320">
        <ele>506.27</ele>
        <time>2014-11-08T10:23:58Z</time>
      </trkpt>
      <trkpt lat="42.428688430" lon="-2.561457140">
        <ele>509.64</ele>
        <time>2014-11-08T10:24:11Z</time>
      </trkpt>
      <trkpt lat="42.428702670" lon="-2.561451360">
        <ele>509.64</ele>
        <time>2014-11-08T10:24:12Z</time>
      </trkpt>
      <trkpt lat="42.428752380" lon="-2.561405420">
        <ele>509.64</ele>
        <time>2014-11-08T10:24:16Z</time>
      </trkpt>
      <trkpt lat="42.428766040" lon="-2.561375330">
        <ele>509.64</ele>
        <time>2014-11-08T10:24:18Z</time>
      </trkpt>
      <trkpt lat="42.428741060" lon="-2.561096050">
        <ele>509.64</ele>
        <time>2014-11-08T10:24:31Z</time>
      </trkpt>
      <trkpt lat="42.428741820" lon="-2.561073500">
        <ele>509.64</ele>
        <time>2014-11-08T10:24:32Z</time>
      </trkpt>
      <trkpt lat="42.428724720" lon="-2.560997640">
        <ele>509.64</ele>
        <time>2014-11-08T10:24:39Z</time>
      </trkpt>
      <trkpt lat="42.428718770" lon="-2.560975430">
        <ele>509.64</ele>
        <time>2014-11-08T10:24:40Z</time>
      </trkpt>
      <trkpt lat="42.428719690" lon="-2.560944420">
        <ele>509.64</ele>
        <time>2014-11-08T10:24:41Z</time>
      </trkpt>
      <trkpt lat="42.428723550" lon="-2.560911230">
        <ele>509.64</ele>
        <time>2014-11-08T10:24:42Z</time>
      </trkpt>
      <trkpt lat="42.428724720" lon="-2.560876780">
        <ele>509.64</ele>
        <time>2014-11-08T10:24:43Z</time>
      </trkpt>
      <trkpt lat="42.428747270" lon="-2.560663620">
        <ele>508.19</ele>
        <time>2014-11-08T10:24:48Z</time>
      </trkpt>
      <trkpt lat="42.428866880" lon="-2.559766680">
        <ele>505.79</ele>
        <time>2014-11-08T10:25:03Z</time>
      </trkpt>
      <trkpt lat="42.428982970" lon="-2.558705440">
        <ele>503.39</ele>
        <time>2014-11-08T10:25:17Z</time>
      </trkpt>
      <trkpt lat="42.429050270" lon="-2.557944620">
        <ele>500.50</ele>
        <time>2014-11-08T10:25:27Z</time>
      </trkpt>
      <trkpt lat="42.429065860" lon="-2.557612950">
        <ele>499.54</ele>
        <time>2014-11-08T10:25:31Z</time>
      </trkpt>
      <trkpt lat="42.429074920" lon="-2.557535670">
        <ele>499.54</ele>
        <time>2014-11-08T10:25:32Z</time>
      </trkpt>
      <trkpt lat="42.429099390" lon="-2.557391830">
        <ele>499.06</ele>
        <time>2014-11-08T10:25:34Z</time>
      </trkpt>
      <trkpt lat="42.429108020" lon="-2.557317230">
        <ele>498.58</ele>
        <time>2014-11-08T10:25:35Z</time>
      </trkpt>
      <trkpt lat="42.429141970" lon="-2.557167870">
        <ele>498.58</ele>
        <time>2014-11-08T10:25:37Z</time>
      </trkpt>
      <trkpt lat="42.429173570" lon="-2.557097120">
        <ele>497.62</ele>
        <time>2014-11-08T10:25:38Z</time>
      </trkpt>
      <trkpt lat="42.429212630" lon="-2.557030910">
        <ele>497.14</ele>
        <time>2014-11-08T10:25:39Z</time>
      </trkpt>
      <trkpt lat="42.429257720" lon="-2.556975330">
        <ele>497.14</ele>
        <time>2014-11-08T10:25:40Z</time>
      </trkpt>
      <trkpt lat="42.429312370" lon="-2.556934600">
        <ele>496.66</ele>
        <time>2014-11-08T10:25:41Z</time>
      </trkpt>
      <trkpt lat="42.429377420" lon="-2.556906350">
        <ele>496.18</ele>
        <time>2014-11-08T10:25:42Z</time>
      </trkpt>
      <trkpt lat="42.429443550" lon="-2.556881880">
        <ele>496.18</ele>
        <time>2014-11-08T10:25:43Z</time>
      </trkpt>
      <trkpt lat="42.429500550" lon="-2.556849940">
        <ele>495.70</ele>
        <time>2014-11-08T10:25:44Z</time>
      </trkpt>
      <trkpt lat="42.429539610" lon="-2.556800740">
        <ele>495.70</ele>
        <time>2014-11-08T10:25:45Z</time>
      </trkpt>
      <trkpt lat="42.429561820" lon="-2.556729750">
        <ele>494.74</ele>
        <time>2014-11-08T10:25:46Z</time>
      </trkpt>
      <trkpt lat="42.429571710" lon="-2.556646180">
        <ele>494.26</ele>
        <time>2014-11-08T10:25:47Z</time>
      </trkpt>
      <trkpt lat="42.429575310" lon="-2.556555490">
        <ele>493.77</ele>
        <time>2014-11-08T10:25:48Z</time>
      </trkpt>
      <trkpt lat="42.429577830" lon="-2.556458420">
        <ele>493.29</ele>
        <time>2014-11-08T10:25:49Z</time>
      </trkpt>
      <trkpt lat="42.429636670" lon="-2.555790300">
        <ele>489.45</ele>
        <time>2014-11-08T10:25:55Z</time>
      </trkpt>
      <trkpt lat="42.429760890" lon="-2.554916490">
        <ele>486.08</ele>
        <time>2014-11-08T10:26:02Z</time>
      </trkpt>
      <trkpt lat="42.429908080" lon="-2.553543620">
        <ele>483.20</ele>
        <time>2014-11-08T10:26:13Z</time>
      </trkpt>
      <trkpt lat="42.429804640" lon="-2.552700060">
        <ele>483.20</ele>
        <time>2014-11-08T10:26:23Z</time>
      </trkpt>
      <trkpt lat="42.429778580" lon="-2.552633010">
        <ele>483.20</ele>
        <time>2014-11-08T10:26:24Z</time>
      </trkpt>
      <trkpt lat="42.429747900" lon="-2.552569970">
        <ele>483.20</ele>
        <time>2014-11-08T10:26:25Z</time>
      </trkpt>
      <trkpt lat="42.429690570" lon="-2.552449020">
        <ele>483.20</ele>
        <time>2014-11-08T10:26:27Z</time>
      </trkpt>
      <trkpt lat="42.429669700" lon="-2.552386660">
        <ele>483.20</ele>
        <time>2014-11-08T10:26:28Z</time>
      </trkpt>
      <trkpt lat="42.429658880" lon="-2.552323970">
        <ele>483.20</ele>
        <time>2014-11-08T10:26:29Z</time>
      </trkpt>
      <trkpt lat="42.429658460" lon="-2.552261690">
        <ele>483.20</ele>
        <time>2014-11-08T10:26:30Z</time>
      </trkpt>
      <trkpt lat="42.429667930" lon="-2.552202180">
        <ele>483.20</ele>
        <time>2014-11-08T10:26:31Z</time>
      </trkpt>
      <trkpt lat="42.429690310" lon="-2.552149710">
        <ele>483.20</ele>
        <time>2014-11-08T10:26:32Z</time>
      </trkpt>
      <trkpt lat="42.429726440" lon="-2.552114000">
        <ele>483.20</ele>
        <time>2014-11-08T10:26:33Z</time>
      </trkpt>
      <trkpt lat="42.429768350" lon="-2.552088180">
        <ele>483.20</ele>
        <time>2014-11-08T10:26:34Z</time>
      </trkpt>
      <trkpt lat="42.429813190" lon="-2.552064040">
        <ele>483.20</ele>
        <time>2014-11-08T10:26:35Z</time>
      </trkpt>
      <trkpt lat="42.430036240" lon="-2.551904200">
        <ele>483.20</ele>
        <time>2014-11-08T10:26:40Z</time>
      </trkpt>
      <trkpt lat="42.430074790" lon="-2.551851390">
        <ele>483.20</ele>
        <time>2014-11-08T10:26:41Z</time>
      </trkpt>
      <trkpt lat="42.430108820" lon="-2.551790210">
        <ele>482.72</ele>
        <time>2014-11-08T10:26:42Z</time>
      </trkpt>
      <trkpt lat="42.430424150" lon="-2.550922930">
        <ele>482.72</ele>
        <time>2014-11-08T10:26:55Z</time>
      </trkpt>
      <trkpt lat="42.430653310" lon="-2.549763460">
        <ele>481.76</ele>
        <time>2014-11-08T10:27:11Z</time>
      </trkpt>
      <trkpt lat="42.431032840" lon="-2.548714470">
        <ele>481.76</ele>
        <time>2014-11-08T10:27:28Z</time>
      </trkpt>
      <trkpt lat="42.431426370" lon="-2.547669080">
        <ele>481.76</ele>
        <time>2014-11-08T10:27:45Z</time>
      </trkpt>
      <trkpt lat="42.431637430" lon="-2.547267500">
        <ele>481.76</ele>
        <time>2014-11-08T10:27:52Z</time>
      </trkpt>
      <trkpt lat="42.431664340" lon="-2.547217710">
        <ele>481.76</ele>
        <time>2014-11-08T10:27:53Z</time>
      </trkpt>
      <trkpt lat="42.431826690" lon="-2.546918140">
        <ele>481.76</ele>
        <time>2014-11-08T10:27:59Z</time>
      </trkpt>
      <trkpt lat="42.431849070" lon="-2.546862650">
        <ele>481.76</ele>
        <time>2014-11-08T10:28:00Z</time>
      </trkpt>
      <trkpt lat="42.432015870" lon="-2.546228230">
        <ele>485.12</ele>
        <time>2014-11-08T10:28:13Z</time>
      </trkpt>
      <trkpt lat="42.432317040" lon="-2.545838380">
        <ele>488.01</ele>
        <time>2014-11-08T10:28:28Z</time>
      </trkpt>
      <trkpt lat="42.432638820" lon="-2.545594220">
        <ele>491.37</ele>
        <time>2014-11-08T10:28:43Z</time>
      </trkpt>
      <trkpt lat="42.433030590" lon="-2.545318040">
        <ele>493.77</ele>
        <time>2014-11-08T10:29:01Z</time>
      </trkpt>
      <trkpt lat="42.433367370" lon="-2.545063310">
        <ele>493.77</ele>
        <time>2014-11-08T10:29:14Z</time>
      </trkpt>
      <trkpt lat="42.433395530" lon="-2.545018550">
        <ele>493.77</ele>
        <time>2014-11-08T10:29:15Z</time>
      </trkpt>
      <trkpt lat="42.433416150" lon="-2.544963060">
        <ele>492.81</ele>
        <time>2014-11-08T10:29:16Z</time>
      </trkpt>
      <trkpt lat="42.433426460" lon="-2.544902130">
        <ele>492.81</ele>
        <time>2014-11-08T10:29:17Z</time>
      </trkpt>
      <trkpt lat="42.433428810" lon="-2.544840180">
        <ele>492.81</ele>
        <time>2014-11-08T10:29:18Z</time>
      </trkpt>
      <trkpt lat="42.433427470" lon="-2.544779160">
        <ele>492.81</ele>
        <time>2014-11-08T10:29:19Z</time>
      </trkpt>
      <trkpt lat="42.433423530" lon="-2.544719230">
        <ele>492.33</ele>
        <time>2014-11-08T10:29:20Z</time>
      </trkpt>
      <trkpt lat="42.433399140" lon="-2.544458720">
        <ele>491.85</ele>
        <time>2014-11-08T10:29:24Z</time>
      </trkpt>
      <trkpt lat="42.433418170" lon="-2.544150180">
        <ele>489.93</ele>
        <time>2014-11-08T10:29:28Z</time>
      </trkpt>
      <trkpt lat="42.433437780" lon="-2.544069550">
        <ele>489.45</ele>
        <time>2014-11-08T10:29:29Z</time>
      </trkpt>
      <trkpt lat="42.433465780" lon="-2.543992350">
        <ele>489.45</ele>
        <time>2014-11-08T10:29:30Z</time>
      </trkpt>
      <trkpt lat="42.433502070" lon="-2.543916830">
        <ele>488.49</ele>
        <time>2014-11-08T10:29:31Z</time>
      </trkpt>
      <trkpt lat="42.433544310" lon="-2.543841650">
        <ele>488.49</ele>
        <time>2014-11-08T10:29:32Z</time>
      </trkpt>
      <trkpt lat="42.433684460" lon="-2.543623970">
        <ele>487.05</ele>
        <time>2014-11-08T10:29:35Z</time>
      </trkpt>
      <trkpt lat="42.433736430" lon="-2.543555740">
        <ele>487.05</ele>
        <time>2014-11-08T10:29:36Z</time>
      </trkpt>
      <trkpt lat="42.433835250" lon="-2.543436050">
        <ele>487.05</ele>
        <time>2014-11-08T10:29:38Z</time>
      </trkpt>
      <trkpt lat="42.434275130" lon="-2.542906480">
        <ele>487.53</ele>
        <time>2014-11-08T10:29:50Z</time>
      </trkpt>
      <trkpt lat="42.434755750" lon="-2.542265770">
        <ele>490.41</ele>
        <time>2014-11-08T10:30:08Z</time>
      </trkpt>
      <trkpt lat="42.434979800" lon="-2.541766200">
        <ele>493.29</ele>
        <time>2014-11-08T10:30:23Z</time>
      </trkpt>
      <trkpt lat="42.435119360" lon="-2.541381390">
        <ele>495.70</ele>
        <time>2014-11-08T10:30:37Z</time>
      </trkpt>
      <trkpt lat="42.435332680" lon="-2.541044440">
        <ele>498.10</ele>
        <time>2014-11-08T10:30:52Z</time>
      </trkpt>
      <trkpt lat="42.435648260" lon="-2.540591310">
        <ele>500.02</ele>
        <time>2014-11-08T10:31:09Z</time>
      </trkpt>
      <trkpt lat="42.435994090" lon="-2.540082530">
        <ele>502.43</ele>
        <time>2014-11-08T10:31:28Z</time>
      </trkpt>
      <trkpt lat="42.436318640" lon="-2.539664610">
        <ele>505.31</ele>
        <time>2014-11-08T10:31:45Z</time>
      </trkpt>
      <trkpt lat="42.436613850" lon="-2.539406950">
        <ele>508.67</ele>
        <time>2014-11-08T10:32:00Z</time>
      </trkpt>
      <trkpt lat="42.436930430" lon="-2.539185000">
        <ele>510.60</ele>
        <time>2014-11-08T10:32:14Z</time>
      </trkpt>
      <trkpt lat="42.437365040" lon="-2.538613020">
        <ele>510.60</ele>
        <time>2014-11-08T10:32:31Z</time>
      </trkpt>
      <trkpt lat="42.437668630" lon="-2.538206240">
        <ele>508.19</ele>
        <time>2014-11-08T10:32:41Z</time>
      </trkpt>
      <trkpt lat="42.437689420" lon="-2.538154860">
        <ele>508.19</ele>
        <time>2014-11-08T10:32:42Z</time>
      </trkpt>
      <trkpt lat="42.437943050" lon="-2.537362850">
        <ele>506.75</ele>
        <time>2014-11-08T10:32:55Z</time>
      </trkpt>
      <trkpt lat="42.437956460" lon="-2.537298310">
        <ele>506.75</ele>
        <time>2014-11-08T10:32:56Z</time>
      </trkpt>
      <trkpt lat="42.437961160" lon="-2.537230670">
        <ele>506.75</ele>
        <time>2014-11-08T10:32:57Z</time>
      </trkpt>
      <trkpt lat="42.437962000" lon="-2.537164040">
        <ele>506.75</ele>
        <time>2014-11-08T10:32:58Z</time>
      </trkpt>
      <trkpt lat="42.437966860" lon="-2.537102180">
        <ele>506.75</ele>
        <time>2014-11-08T10:32:59Z</time>
      </trkpt>
      <trkpt lat="42.437978840" lon="-2.537047700">
        <ele>506.75</ele>
        <time>2014-11-08T10:33:00Z</time>
      </trkpt>
      <trkpt lat="42.437991420" lon="-2.536996730">
        <ele>506.75</ele>
        <time>2014-11-08T10:33:01Z</time>
      </trkpt>
      <trkpt lat="42.438003650" lon="-2.536946360">
        <ele>506.75</ele>
        <time>2014-11-08T10:33:02Z</time>
      </trkpt>
      <trkpt lat="42.438017650" lon="-2.536897830">
        <ele>506.75</ele>
        <time>2014-11-08T10:33:03Z</time>
      </trkpt>
      <trkpt lat="42.438182520" lon="-2.536363730">
        <ele>506.75</ele>
        <time>2014-11-08T10:33:17Z</time>
      </trkpt>
      <trkpt lat="42.438303730" lon="-2.536013370">
        <ele>508.19</ele>
        <time>2014-11-08T10:33:27Z</time>
      </trkpt>
      <trkpt lat="42.438470690" lon="-2.535565020">
        <ele>509.16</ele>
        <time>2014-11-08T10:33:40Z</time>
      </trkpt>
      <trkpt lat="42.438563480" lon="-2.535054400">
        <ele>510.60</ele>
        <time>2014-11-08T10:33:54Z</time>
      </trkpt>
      <trkpt lat="42.438633390" lon="-2.534431030">
        <ele>512.52</ele>
        <time>2014-11-08T10:34:11Z</time>
      </trkpt>
      <trkpt lat="42.438701780" lon="-2.533951090">
        <ele>512.52</ele>
        <time>2014-11-08T10:34:21Z</time>
      </trkpt>
      <trkpt lat="42.438749980" lon="-2.533701470">
        <ele>511.56</ele>
        <time>2014-11-08T10:34:25Z</time>
      </trkpt>
      <trkpt lat="42.438824740" lon="-2.533183890">
        <ele>512.52</ele>
        <time>2014-11-08T10:34:36Z</time>
      </trkpt>
      <trkpt lat="42.438864310" lon="-2.532400850">
        <ele>513.96</ele>
        <time>2014-11-08T10:34:54Z</time>
      </trkpt>
      <trkpt lat="42.438997920" lon="-2.531672800">
        <ele>515.40</ele>
        <time>2014-11-08T10:35:10Z</time>
      </trkpt>
      <trkpt lat="42.439176700" lon="-2.531049610">
        <ele>515.40</ele>
        <time>2014-11-08T10:35:24Z</time>
      </trkpt>
      <trkpt lat="42.439309890" lon="-2.530373940">
        <ele>516.85</ele>
        <time>2014-11-08T10:35:38Z</time>
      </trkpt>
      <trkpt lat="42.439430510" lon="-2.529669530">
        <ele>519.25</ele>
        <time>2014-11-08T10:35:53Z</time>
      </trkpt>
      <trkpt lat="42.439567470" lon="-2.529006180">
        <ele>521.17</ele>
        <time>2014-11-08T10:36:10Z</time>
      </trkpt>
      <trkpt lat="42.439586580" lon="-2.528609720">
        <ele>524.06</ele>
        <time>2014-11-08T10:36:22Z</time>
      </trkpt>
      <trkpt lat="42.439681210" lon="-2.528059190">
        <ele>524.54</ele>
        <time>2014-11-08T10:36:36Z</time>
      </trkpt>
      <trkpt lat="42.439743570" lon="-2.527566760">
        <ele>525.02</ele>
        <time>2014-11-08T10:36:50Z</time>
      </trkpt>
      <trkpt lat="42.439772240" lon="-2.527173310">
        <ele>528.38</ele>
        <time>2014-11-08T10:37:04Z</time>
      </trkpt>
      <trkpt lat="42.439791010" lon="-2.526849270">
        <ele>530.30</ele>
        <time>2014-11-08T10:37:16Z</time>
      </trkpt>
      <trkpt lat="42.439785900" lon="-2.526791180">
        <ele>530.79</ele>
        <time>2014-11-08T10:37:19Z</time>
      </trkpt>
      <trkpt lat="42.439792690" lon="-2.526772490">
        <ele>530.79</ele>
        <time>2014-11-08T10:37:20Z</time>
      </trkpt>
      <trkpt lat="42.439818250" lon="-2.526502260">
        <ele>531.75</ele>
        <time>2014-11-08T10:37:32Z</time>
      </trkpt>
      <trkpt lat="42.439819090" lon="-2.526475940">
        <ele>531.75</ele>
        <time>2014-11-08T10:37:33Z</time>
      </trkpt>
      <trkpt lat="42.439813560" lon="-2.526450710">
        <ele>531.75</ele>
        <time>2014-11-08T10:37:34Z</time>
      </trkpt>
      <trkpt lat="42.439807940" lon="-2.526427570">
        <ele>531.75</ele>
        <time>2014-11-08T10:37:35Z</time>
      </trkpt>
      <trkpt lat="42.439805090" lon="-2.526402510">
        <ele>531.75</ele>
        <time>2014-11-08T10:37:36Z</time>
      </trkpt>
      <trkpt lat="42.439807690" lon="-2.526379710">
        <ele>531.75</ele>
        <time>2014-11-08T10:37:37Z</time>
      </trkpt>
      <trkpt lat="42.439810620" lon="-2.526357160">
        <ele>531.75</ele>
        <time>2014-11-08T10:37:38Z</time>
      </trkpt>
      <trkpt lat="42.439810960" lon="-2.526335370">
        <ele>531.75</ele>
        <time>2014-11-08T10:37:39Z</time>
      </trkpt>
      <trkpt lat="42.439813810" lon="-2.526315590">
        <ele>532.23</ele>
        <time>2014-11-08T10:37:40Z</time>
      </trkpt>
      <trkpt lat="42.439815230" lon="-2.526298320">
        <ele>532.23</ele>
        <time>2014-11-08T10:37:41Z</time>
      </trkpt>
      <trkpt lat="42.439818590" lon="-2.526255160">
        <ele>532.23</ele>
        <time>2014-11-08T10:37:44Z</time>
      </trkpt>
      <trkpt lat="42.439829400" lon="-2.526208130">
        <ele>531.75</ele>
        <time>2014-11-08T10:37:46Z</time>
      </trkpt>
      <trkpt lat="42.439832000" lon="-2.526182990">
        <ele>531.75</ele>
        <time>2014-11-08T10:37:47Z</time>
      </trkpt>
      <trkpt lat="42.439835940" lon="-2.526154570">
        <ele>531.75</ele>
        <time>2014-11-08T10:37:48Z</time>
      </trkpt>
      <trkpt lat="42.439839210" lon="-2.526124900">
        <ele>531.75</ele>
        <time>2014-11-08T10:37:49Z</time>
      </trkpt>
      <trkpt lat="42.439840970" lon="-2.526099920">
        <ele>531.75</ele>
        <time>2014-11-08T10:37:50Z</time>
      </trkpt>
      <trkpt lat="42.439841810" lon="-2.526078380">
        <ele>532.23</ele>
        <time>2014-11-08T10:37:51Z</time>
      </trkpt>
      <trkpt lat="42.439853960" lon="-2.525718300">
        <ele>532.71</ele>
        <time>2014-11-08T10:38:02Z</time>
      </trkpt>
      <trkpt lat="42.439871900" lon="-2.525395760">
        <ele>532.71</ele>
        <time>2014-11-08T10:38:13Z</time>
      </trkpt>
      <trkpt lat="42.439892180" lon="-2.525086130">
        <ele>533.19</ele>
        <time>2014-11-08T10:38:25Z</time>
      </trkpt>
      <trkpt lat="42.439888910" lon="-2.525076330">
        <ele>533.19</ele>
        <time>2014-11-08T10:38:36Z</time>
      </trkpt>
      <trkpt lat="42.439899220" lon="-2.525026540">
        <ele>533.19</ele>
        <time>2014-11-08T10:38:42Z</time>
      </trkpt>
      <trkpt lat="42.439903750" lon="-2.525012040">
        <ele>533.19</ele>
        <time>2014-11-08T10:38:43Z</time>
      </trkpt>
      <trkpt lat="42.439919510" lon="-2.524949170">
        <ele>533.19</ele>
        <time>2014-11-08T10:38:57Z</time>
      </trkpt>
      <trkpt lat="42.439956390" lon="-2.524701650">
        <ele>531.75</ele>
        <time>2014-11-08T10:39:06Z</time>
      </trkpt>
      <trkpt lat="42.439965520" lon="-2.524635520">
        <ele>531.75</ele>
        <time>2014-11-08T10:39:07Z</time>
      </trkpt>
      <trkpt lat="42.440029060" lon="-2.524254150">
        <ele>528.38</ele>
        <time>2014-11-08T10:39:11Z</time>
      </trkpt>
      <trkpt lat="42.440086640" lon="-2.523898580">
        <ele>526.94</ele>
        <time>2014-11-08T10:39:14Z</time>
      </trkpt>
      <trkpt lat="42.440084800" lon="-2.523777890">
        <ele>525.98</ele>
        <time>2014-11-08T10:39:15Z</time>
      </trkpt>
      <trkpt lat="42.440064090" lon="-2.523663300">
        <ele>525.98</ele>
        <time>2014-11-08T10:39:16Z</time>
      </trkpt>
      <trkpt lat="42.439887230" lon="-2.523167680">
        <ele>524.06</ele>
        <time>2014-11-08T10:39:21Z</time>
      </trkpt>
      <trkpt lat="42.439836940" lon="-2.523078160">
        <ele>524.06</ele>
        <time>2014-11-08T10:39:22Z</time>
      </trkpt>
      <trkpt lat="42.439780530" lon="-2.522993590">
        <ele>524.06</ele>
        <time>2014-11-08T10:39:23Z</time>
      </trkpt>
      <trkpt lat="42.439721520" lon="-2.522911450">
        <ele>522.61</ele>
        <time>2014-11-08T10:39:24Z</time>
      </trkpt>
      <trkpt lat="42.439665870" lon="-2.522820840">
        <ele>521.65</ele>
        <time>2014-11-08T10:39:25Z</time>
      </trkpt>
      <trkpt lat="42.439613150" lon="-2.522720510">
        <ele>520.69</ele>
        <time>2014-11-08T10:39:26Z</time>
      </trkpt>
      <trkpt lat="42.439564030" lon="-2.522615730">
        <ele>520.69</ele>
        <time>2014-11-08T10:39:27Z</time>
      </trkpt>
      <trkpt lat="42.439376940" lon="-2.522088350">
        <ele>518.29</ele>
        <time>2014-11-08T10:39:32Z</time>
      </trkpt>
      <trkpt lat="42.439331100" lon="-2.521825660">
        <ele>516.85</ele>
        <time>2014-11-08T10:39:37Z</time>
      </trkpt>
      <trkpt lat="42.439342660" lon="-2.521784420">
        <ele>516.85</ele>
        <time>2014-11-08T10:39:38Z</time>
      </trkpt>
      <trkpt lat="42.439368650" lon="-2.521747370">
        <ele>515.88</ele>
        <time>2014-11-08T10:39:39Z</time>
      </trkpt>
      <trkpt lat="42.439406450" lon="-2.521718620">
        <ele>515.88</ele>
        <time>2014-11-08T10:39:40Z</time>
      </trkpt>
      <trkpt lat="42.439449620" lon="-2.521691800">
        <ele>514.92</ele>
        <time>2014-11-08T10:39:41Z</time>
      </trkpt>
      <trkpt lat="42.439495210" lon="-2.521658860">
        <ele>514.44</ele>
        <time>2014-11-08T10:39:42Z</time>
      </trkpt>
      <trkpt lat="42.439595710" lon="-2.521564560">
        <ele>512.52</ele>
        <time>2014-11-08T10:39:44Z</time>
      </trkpt>
      <trkpt lat="42.439823870" lon="-2.521314860">
        <ele>510.12</ele>
        <time>2014-11-08T10:39:48Z</time>
      </trkpt>
      <trkpt lat="42.439897210" lon="-2.521259960">
        <ele>509.16</ele>
        <time>2014-11-08T10:39:49Z</time>
      </trkpt>
      <trkpt lat="42.439972980" lon="-2.521217130">
        <ele>507.71</ele>
        <time>2014-11-08T10:39:50Z</time>
      </trkpt>
      <trkpt lat="42.440093930" lon="-2.521141610">
        <ele>506.27</ele>
        <time>2014-11-08T10:39:52Z</time>
      </trkpt>
      <trkpt lat="42.440140450" lon="-2.521091230">
        <ele>505.79</ele>
        <time>2014-11-08T10:39:53Z</time>
      </trkpt>
      <trkpt lat="42.440178760" lon="-2.521029710">
        <ele>504.83</ele>
        <time>2014-11-08T10:39:54Z</time>
      </trkpt>
      <trkpt lat="42.440205830" lon="-2.520956870">
        <ele>503.87</ele>
        <time>2014-11-08T10:39:55Z</time>
      </trkpt>
      <trkpt lat="42.440225700" lon="-2.520871210">
        <ele>503.39</ele>
        <time>2014-11-08T10:39:56Z</time>
      </trkpt>
      <trkpt lat="42.440243380" lon="-2.520775400">
        <ele>502.43</ele>
        <time>2014-11-08T10:39:57Z</time>
      </trkpt>
      <trkpt lat="42.440279340" lon="-2.520558730">
        <ele>500.98</ele>
        <time>2014-11-08T10:39:59Z</time>
      </trkpt>
      <trkpt lat="42.440347740" lon="-2.520208370">
        <ele>497.62</ele>
        <time>2014-11-08T10:40:02Z</time>
      </trkpt>
      <trkpt lat="42.440385710" lon="-2.520108290">
        <ele>496.66</ele>
        <time>2014-11-08T10:40:03Z</time>
      </trkpt>
      <trkpt lat="42.440434660" lon="-2.520018690">
        <ele>496.18</ele>
        <time>2014-11-08T10:40:04Z</time>
      </trkpt>
      <trkpt lat="42.440687120" lon="-2.519548710">
        <ele>493.29</ele>
        <time>2014-11-08T10:40:12Z</time>
      </trkpt>
      <trkpt lat="42.440706990" lon="-2.519483330">
        <ele>493.29</ele>
        <time>2014-11-08T10:40:13Z</time>
      </trkpt>
      <trkpt lat="42.440729030" lon="-2.519409150">
        <ele>492.81</ele>
        <time>2014-11-08T10:40:14Z</time>
      </trkpt>
      <trkpt lat="42.440835730" lon="-2.519027270">
        <ele>488.49</ele>
        <time>2014-11-08T10:40:18Z</time>
      </trkpt>
      <trkpt lat="42.440908570" lon="-2.518599800">
        <ele>485.12</ele>
        <time>2014-11-08T10:40:22Z</time>
      </trkpt>
      <trkpt lat="42.440974370" lon="-2.518334340">
        <ele>482.24</ele>
        <time>2014-11-08T10:40:25Z</time>
      </trkpt>
      <trkpt lat="42.441012420" lon="-2.518262260">
        <ele>481.28</ele>
        <time>2014-11-08T10:40:26Z</time>
      </trkpt>
      <trkpt lat="42.441067740" lon="-2.518199980">
        <ele>480.80</ele>
        <time>2014-11-08T10:40:27Z</time>
      </trkpt>
      <trkpt lat="42.441138150" lon="-2.518151200">
        <ele>479.35</ele>
        <time>2014-11-08T10:40:28Z</time>
      </trkpt>
      <trkpt lat="42.441216690" lon="-2.518108950">
        <ele>477.91</ele>
        <time>2014-11-08T10:40:29Z</time>
      </trkpt>
      <trkpt lat="42.441488430" lon="-2.517927070">
        <ele>474.55</ele>
        <time>2014-11-08T10:40:33Z</time>
      </trkpt>
      <trkpt lat="42.441532770" lon="-2.517863280">
        <ele>473.59</ele>
        <time>2014-11-08T10:40:34Z</time>
      </trkpt>
      <trkpt lat="42.441566630" lon="-2.517790190">
        <ele>473.11</ele>
        <time>2014-11-08T10:40:35Z</time>
      </trkpt>
      <trkpt lat="42.441590190" lon="-2.517708380">
        <ele>472.63</ele>
        <time>2014-11-08T10:40:36Z</time>
      </trkpt>
      <trkpt lat="42.441698730" lon="-2.516962390">
        <ele>469.26</ele>
        <time>2014-11-08T10:40:43Z</time>
      </trkpt>
      <trkpt lat="42.441774920" lon="-2.516633650">
        <ele>466.86</ele>
        <time>2014-11-08T10:40:46Z</time>
      </trkpt>
      <trkpt lat="42.441843990" lon="-2.516457550">
        <ele>465.42</ele>
        <time>2014-11-08T10:40:48Z</time>
      </trkpt>
      <trkpt lat="42.441861170" lon="-2.515954640">
        <ele>463.01</ele>
        <time>2014-11-08T10:40:53Z</time>
      </trkpt>
      <trkpt lat="42.441713480" lon="-2.515125580">
        <ele>459.65</ele>
        <time>2014-11-08T10:41:01Z</time>
      </trkpt>
      <trkpt lat="42.441619270" lon="-2.514933220">
        <ele>459.17</ele>
        <time>2014-11-08T10:41:04Z</time>
      </trkpt>
      <trkpt lat="42.441583060" lon="-2.514900950">
        <ele>458.69</ele>
        <time>2014-11-08T10:41:05Z</time>
      </trkpt>
      <trkpt lat="42.441554980" lon="-2.514877810">
        <ele>458.69</ele>
        <time>2014-11-08T10:41:06Z</time>
      </trkpt>
      <trkpt lat="42.441537630" lon="-2.514852830">
        <ele>458.69</ele>
        <time>2014-11-08T10:41:07Z</time>
      </trkpt>
      <trkpt lat="42.441535370" lon="-2.514821740">
        <ele>458.69</ele>
        <time>2014-11-08T10:41:08Z</time>
      </trkpt>
      <trkpt lat="42.441543420" lon="-2.514790390">
        <ele>457.72</ele>
        <time>2014-11-08T10:41:09Z</time>
      </trkpt>
      <trkpt lat="42.441556830" lon="-2.514766170">
        <ele>457.72</ele>
        <time>2014-11-08T10:41:10Z</time>
      </trkpt>
      <trkpt lat="42.441573420" lon="-2.514746970">
        <ele>457.72</ele>
        <time>2014-11-08T10:41:11Z</time>
      </trkpt>
      <trkpt lat="42.441588010" lon="-2.514722330">
        <ele>457.24</ele>
        <time>2014-11-08T10:41:12Z</time>
      </trkpt>
      <trkpt lat="42.441592780" lon="-2.514689560">
        <ele>457.24</ele>
        <time>2014-11-08T10:41:13Z</time>
      </trkpt>
      <trkpt lat="42.441586920" lon="-2.514651920">
        <ele>457.24</ele>
        <time>2014-11-08T10:41:14Z</time>
      </trkpt>
      <trkpt lat="42.441576440" lon="-2.514614030">
        <ele>457.24</ele>
        <time>2014-11-08T10:41:15Z</time>
      </trkpt>
      <trkpt lat="42.441422630" lon="-2.513992010">
        <ele>455.80</ele>
        <time>2014-11-08T10:41:28Z</time>
      </trkpt>
      <trkpt lat="42.441325400" lon="-2.513716250">
        <ele>455.32</ele>
        <time>2014-11-08T10:41:35Z</time>
      </trkpt>
      <trkpt lat="42.441323390" lon="-2.513671740">
        <ele>455.32</ele>
        <time>2014-11-08T10:41:36Z</time>
      </trkpt>
      <trkpt lat="42.441325990" lon="-2.513622620">
        <ele>454.84</ele>
        <time>2014-11-08T10:41:37Z</time>
      </trkpt>
      <trkpt lat="42.441332280" lon="-2.513571330">
        <ele>454.84</ele>
        <time>2014-11-08T10:41:38Z</time>
      </trkpt>
      <trkpt lat="42.441338810" lon="-2.513521790">
        <ele>454.36</ele>
        <time>2014-11-08T10:41:39Z</time>
      </trkpt>
      <trkpt lat="42.441343420" lon="-2.513469400">
        <ele>453.88</ele>
        <time>2014-11-08T10:41:40Z</time>
      </trkpt>
      <trkpt lat="42.441352220" lon="-2.513417520">
        <ele>453.88</ele>
        <time>2014-11-08T10:41:41Z</time>
      </trkpt>
      <trkpt lat="42.441372420" lon="-2.513376870">
        <ele>453.88</ele>
        <time>2014-11-08T10:41:42Z</time>
      </trkpt>
      <trkpt lat="42.441401010" lon="-2.513357000">
        <ele>453.40</ele>
        <time>2014-11-08T10:41:43Z</time>
      </trkpt>
      <trkpt lat="42.441429670" lon="-2.513352220">
        <ele>453.40</ele>
        <time>2014-11-08T10:41:44Z</time>
      </trkpt>
      <trkpt lat="42.441451800" lon="-2.513354320">
        <ele>453.40</ele>
        <time>2014-11-08T10:41:45Z</time>
      </trkpt>
      <trkpt lat="42.441689260" lon="-2.513406120">
        <ele>453.40</ele>
        <time>2014-11-08T10:41:57Z</time>
      </trkpt>
      <trkpt lat="42.441993100" lon="-2.513305280">
        <ele>453.40</ele>
        <time>2014-11-08T10:42:08Z</time>
      </trkpt>
      <trkpt lat="42.442340030" lon="-2.513253650">
        <ele>454.84</ele>
        <time>2014-11-08T10:42:21Z</time>
      </trkpt>
      <trkpt lat="42.442628960" lon="-2.513235800">
        <ele>454.84</ele>
        <time>2014-11-08T10:42:30Z</time>
      </trkpt>
      <trkpt lat="42.442930790" lon="-2.513268320">
        <ele>455.80</ele>
        <time>2014-11-08T10:42:41Z</time>
      </trkpt>
      <trkpt lat="42.443047210" lon="-2.513235380">
        <ele>453.88</ele>
        <time>2014-11-08T10:42:44Z</time>
      </trkpt>
      <trkpt lat="42.443150810" lon="-2.513217360">
        <ele>452.44</ele>
        <time>2014-11-08T10:42:46Z</time>
      </trkpt>
      <trkpt lat="42.443205630" lon="-2.513208640">
        <ele>452.44</ele>
        <time>2014-11-08T10:42:47Z</time>
      </trkpt>
      <trkpt lat="42.443259020" lon="-2.513188940">
        <ele>451.96</ele>
        <time>2014-11-08T10:42:48Z</time>
      </trkpt>
      <trkpt lat="42.443308480" lon="-2.513153240">
        <ele>451.96</ele>
        <time>2014-11-08T10:42:49Z</time>
      </trkpt>
      <trkpt lat="42.443349460" lon="-2.513099010">
        <ele>451.96</ele>
        <time>2014-11-08T10:42:50Z</time>
      </trkpt>
      <trkpt lat="42.443386340" lon="-2.513034380">
        <ele>451.96</ele>
        <time>2014-11-08T10:42:51Z</time>
      </trkpt>
      <trkpt lat="42.443568060" lon="-2.512696930">
        <ele>451.48</ele>
        <time>2014-11-08T10:42:56Z</time>
      </trkpt>
      <trkpt lat="42.443605200" lon="-2.512636740">
        <ele>451.48</ele>
        <time>2014-11-08T10:42:57Z</time>
      </trkpt>
      <trkpt lat="42.443931170" lon="-2.512087310">
        <ele>451.48</ele>
        <time>2014-11-08T10:43:09Z</time>
      </trkpt>
      <trkpt lat="42.443956480" lon="-2.512080520">
        <ele>451.48</ele>
        <time>2014-11-08T10:43:10Z</time>
      </trkpt>
      <trkpt lat="42.443990090" lon="-2.512087900">
        <ele>451.48</ele>
        <time>2014-11-08T10:43:11Z</time>
      </trkpt>
      <trkpt lat="42.444029910" lon="-2.512108100">
        <ele>451.00</ele>
        <time>2014-11-08T10:43:12Z</time>
      </trkpt>
      <trkpt lat="42.444071650" lon="-2.512139450">
        <ele>451.00</ele>
        <time>2014-11-08T10:43:13Z</time>
      </trkpt>
      <trkpt lat="42.444112720" lon="-2.512182030">
        <ele>450.03</ele>
        <time>2014-11-08T10:43:14Z</time>
      </trkpt>
      <trkpt lat="42.444145330" lon="-2.512238100">
        <ele>450.03</ele>
        <time>2014-11-08T10:43:15Z</time>
      </trkpt>
      <trkpt lat="42.444167710" lon="-2.512303140">
        <ele>450.03</ele>
        <time>2014-11-08T10:43:16Z</time>
      </trkpt>
      <trkpt lat="42.444183800" lon="-2.512370700">
        <ele>450.03</ele>
        <time>2014-11-08T10:43:17Z</time>
      </trkpt>
      <trkpt lat="42.444304830" lon="-2.512781000">
        <ele>451.48</ele>
        <time>2014-11-08T10:43:25Z</time>
      </trkpt>
      <trkpt lat="42.444347080" lon="-2.512934300">
        <ele>451.48</ele>
        <time>2014-11-08T10:43:28Z</time>
      </trkpt>
      <trkpt lat="42.444428630" lon="-2.513252810">
        <ele>451.48</ele>
        <time>2014-11-08T10:43:34Z</time>
      </trkpt>
      <trkpt lat="42.444452520" lon="-2.513299750">
        <ele>451.96</ele>
        <time>2014-11-08T10:43:35Z</time>
      </trkpt>
      <trkpt lat="42.444482110" lon="-2.513338640">
        <ele>451.96</ele>
        <time>2014-11-08T10:43:36Z</time>
      </trkpt>
      <trkpt lat="42.444519410" lon="-2.513367060">
        <ele>451.96</ele>
        <time>2014-11-08T10:43:37Z</time>
      </trkpt>
      <trkpt lat="42.444564420" lon="-2.513379970">
        <ele>451.96</ele>
        <time>2014-11-08T10:43:38Z</time>
      </trkpt>
      <trkpt lat="42.444610350" lon="-2.513377450">
        <ele>451.96</ele>
        <time>2014-11-08T10:43:39Z</time>
      </trkpt>
      <trkpt lat="42.444658050" lon="-2.513363200">
        <ele>451.96</ele>
        <time>2014-11-08T10:43:40Z</time>
      </trkpt>
      <trkpt lat="42.444707250" lon="-2.513345600">
        <ele>451.96</ele>
        <time>2014-11-08T10:43:41Z</time>
      </trkpt>
      <trkpt lat="42.444753350" lon="-2.513319950">
        <ele>451.96</ele>
        <time>2014-11-08T10:43:42Z</time>
      </trkpt>
      <trkpt lat="42.444834150" lon="-2.513248370">
        <ele>451.96</ele>
        <time>2014-11-08T10:43:44Z</time>
      </trkpt>
      <trkpt lat="42.444870780" lon="-2.513205200">
        <ele>451.96</ele>
        <time>2014-11-08T10:43:45Z</time>
      </trkpt>
      <trkpt lat="42.444903470" lon="-2.513158350">
        <ele>451.96</ele>
        <time>2014-11-08T10:43:46Z</time>
      </trkpt>
      <trkpt lat="42.444929290" lon="-2.513105960">
        <ele>451.96</ele>
        <time>2014-11-08T10:43:47Z</time>
      </trkpt>
      <trkpt lat="42.444948980" lon="-2.513046700">
        <ele>451.96</ele>
        <time>2014-11-08T10:43:48Z</time>
      </trkpt>
      <trkpt lat="42.444964740" lon="-2.512984090">
        <ele>451.96</ele>
        <time>2014-11-08T10:43:49Z</time>
      </trkpt>
      <trkpt lat="42.444976390" lon="-2.512916620">
        <ele>451.96</ele>
        <time>2014-11-08T10:43:50Z</time>
      </trkpt>
      <trkpt lat="42.444985020" lon="-2.512845450">
        <ele>451.96</ele>
        <time>2014-11-08T10:43:51Z</time>
      </trkpt>
      <trkpt lat="42.444997010" lon="-2.512778900">
        <ele>451.96</ele>
        <time>2014-11-08T10:43:52Z</time>
      </trkpt>
      <trkpt lat="42.445017550" lon="-2.512718300">
        <ele>451.96</ele>
        <time>2014-11-08T10:43:53Z</time>
      </trkpt>
      <trkpt lat="42.445043950" lon="-2.512662060">
        <ele>451.96</ele>
        <time>2014-11-08T10:43:54Z</time>
      </trkpt>
      <trkpt lat="42.445427760" lon="-2.511885050">
        <ele>451.00</ele>
        <time>2014-11-08T10:44:08Z</time>
      </trkpt>
      <trkpt lat="42.445772000" lon="-2.511184750">
        <ele>451.00</ele>
        <time>2014-11-08T10:44:21Z</time>
      </trkpt>
      <trkpt lat="42.445838220" lon="-2.511093890">
        <ele>451.96</ele>
        <time>2014-11-08T10:44:23Z</time>
      </trkpt>
      <trkpt lat="42.446045500" lon="-2.510806140">
        <ele>452.44</ele>
        <time>2014-11-08T10:44:29Z</time>
      </trkpt>
      <trkpt lat="42.446070730" lon="-2.510749640">
        <ele>452.44</ele>
        <time>2014-11-08T10:44:30Z</time>
      </trkpt>
      <trkpt lat="42.446090770" lon="-2.510688790">
        <ele>452.44</ele>
        <time>2014-11-08T10:44:31Z</time>
      </trkpt>
      <trkpt lat="42.446176680" lon="-2.510379500">
        <ele>452.44</ele>
        <time>2014-11-08T10:44:36Z</time>
      </trkpt>
      <trkpt lat="42.446223950" lon="-2.510266680">
        <ele>452.92</ele>
        <time>2014-11-08T10:44:38Z</time>
      </trkpt>
      <trkpt lat="42.446354460" lon="-2.510012790">
        <ele>453.40</ele>
        <time>2014-11-08T10:44:43Z</time>
      </trkpt>
      <trkpt lat="42.446378680" lon="-2.509949670">
        <ele>453.40</ele>
        <time>2014-11-08T10:44:44Z</time>
      </trkpt>
      <trkpt lat="42.446406430" lon="-2.509882370">
        <ele>451.48</ele>
        <time>2014-11-08T10:44:45Z</time>
      </trkpt>
      <trkpt lat="42.446431660" lon="-2.509813970">
        <ele>451.48</ele>
        <time>2014-11-08T10:44:46Z</time>
      </trkpt>
      <trkpt lat="42.446588900" lon="-2.509374510">
        <ele>450.03</ele>
        <time>2014-11-08T10:44:52Z</time>
      </trkpt>
      <trkpt lat="42.446623600" lon="-2.509305440">
        <ele>450.03</ele>
        <time>2014-11-08T10:44:53Z</time>
      </trkpt>
      <trkpt lat="42.446662580" lon="-2.509241650">
        <ele>450.03</ele>
        <time>2014-11-08T10:44:54Z</time>
      </trkpt>
      <trkpt lat="42.446991400" lon="-2.508631030">
        <ele>450.03</ele>
        <time>2014-11-08T10:45:05Z</time>
      </trkpt>
      <trkpt lat="42.447046050" lon="-2.508436490">
        <ele>450.03</ele>
        <time>2014-11-08T10:45:08Z</time>
      </trkpt>
      <trkpt lat="42.447113780" lon="-2.508110520">
        <ele>450.03</ele>
        <time>2014-11-08T10:45:13Z</time>
      </trkpt>
      <trkpt lat="42.447121820" lon="-2.508038260">
        <ele>450.03</ele>
        <time>2014-11-08T10:45:14Z</time>
      </trkpt>
      <trkpt lat="42.447123750" lon="-2.507965170">
        <ele>450.03</ele>
        <time>2014-11-08T10:45:15Z</time>
      </trkpt>
      <trkpt lat="42.447119560" lon="-2.507893260">
        <ele>450.03</ele>
        <time>2014-11-08T10:45:16Z</time>
      </trkpt>
      <trkpt lat="42.447111090" lon="-2.507820250">
        <ele>450.03</ele>
        <time>2014-11-08T10:45:17Z</time>
      </trkpt>
      <trkpt lat="42.447098440" lon="-2.507746410">
        <ele>450.03</ele>
        <time>2014-11-08T10:45:18Z</time>
      </trkpt>
      <trkpt lat="42.446776820" lon="-2.506684750">
        <ele>448.59</ele>
        <time>2014-11-08T10:45:32Z</time>
      </trkpt>
      <trkpt lat="42.446741030" lon="-2.506520220">
        <ele>448.11</ele>
        <time>2014-11-08T10:45:34Z</time>
      </trkpt>
      <trkpt lat="42.446735000" lon="-2.506435900">
        <ele>448.11</ele>
        <time>2014-11-08T10:45:35Z</time>
      </trkpt>
      <trkpt lat="42.446732570" lon="-2.506196510">
        <ele>448.11</ele>
        <time>2014-11-08T10:45:38Z</time>
      </trkpt>
      <trkpt lat="42.446728040" lon="-2.505957710">
        <ele>448.11</ele>
        <time>2014-11-08T10:45:41Z</time>
      </trkpt>
      <trkpt lat="42.446721590" lon="-2.505580190">
        <ele>448.11</ele>
        <time>2014-11-08T10:45:45Z</time>
      </trkpt>
      <trkpt lat="42.446748830" lon="-2.505389830">
        <ele>450.52</ele>
        <time>2014-11-08T10:45:47Z</time>
      </trkpt>
      <trkpt lat="42.446767520" lon="-2.505316740">
        <ele>451.00</ele>
        <time>2014-11-08T10:45:48Z</time>
      </trkpt>
      <trkpt lat="42.446787470" lon="-2.505262180">
        <ele>451.96</ele>
        <time>2014-11-08T10:45:49Z</time>
      </trkpt>
      <trkpt lat="42.446806500" lon="-2.505222950">
        <ele>452.44</ele>
        <time>2014-11-08T10:45:50Z</time>
      </trkpt>
      <trkpt lat="42.446828540" lon="-2.505187830">
        <ele>452.44</ele>
        <time>2014-11-08T10:45:51Z</time>
      </trkpt>
      <trkpt lat="42.446858460" lon="-2.505157990">
        <ele>452.44</ele>
        <time>2014-11-08T10:45:52Z</time>
      </trkpt>
      <trkpt lat="42.446888890" lon="-2.505133350">
        <ele>452.44</ele>
        <time>2014-11-08T10:45:53Z</time>
      </trkpt>
      <trkpt lat="42.447029620" lon="-2.505045590">
        <ele>452.92</ele>
        <time>2014-11-08T10:45:58Z</time>
      </trkpt>
      <trkpt lat="42.447052590" lon="-2.505020860">
        <ele>452.92</ele>
        <time>2014-11-08T10:45:59Z</time>
      </trkpt>
      <trkpt lat="42.447070780" lon="-2.504986580">
        <ele>452.92</ele>
        <time>2014-11-08T10:46:00Z</time>
      </trkpt>
      <trkpt lat="42.447083180" lon="-2.504945010">
        <ele>452.92</ele>
        <time>2014-11-08T10:46:01Z</time>
      </trkpt>
      <trkpt lat="42.447096260" lon="-2.504898740">
        <ele>452.92</ele>
        <time>2014-11-08T10:46:02Z</time>
      </trkpt>
      <trkpt lat="42.447156520" lon="-2.504719870">
        <ele>452.92</ele>
        <time>2014-11-08T10:46:06Z</time>
      </trkpt>
      <trkpt lat="42.447176560" lon="-2.504599760">
        <ele>451.48</ele>
        <time>2014-11-08T10:46:08Z</time>
      </trkpt>
      <trkpt lat="42.447183260" lon="-2.504408480">
        <ele>450.03</ele>
        <time>2014-11-08T10:46:11Z</time>
      </trkpt>
      <trkpt lat="42.447265910" lon="-2.504198090">
        <ele>448.11</ele>
        <time>2014-11-08T10:46:15Z</time>
      </trkpt>
      <trkpt lat="42.447444950" lon="-2.503843210">
        <ele>446.19</ele>
        <time>2014-11-08T10:46:23Z</time>
      </trkpt>
      <trkpt lat="42.447609480" lon="-2.503784450">
        <ele>446.67</ele>
        <time>2014-11-08T10:46:30Z</time>
      </trkpt>
      <trkpt lat="42.447828750" lon="-2.503801710">
        <ele>446.67</ele>
        <time>2014-11-08T10:46:42Z</time>
      </trkpt>
      <trkpt lat="42.448108960" lon="-2.503515810">
        <ele>446.67</ele>
        <time>2014-11-08T10:46:53Z</time>
      </trkpt>
      <trkpt lat="42.448199820" lon="-2.503301060">
        <ele>445.23</ele>
        <time>2014-11-08T10:46:58Z</time>
      </trkpt>
      <trkpt lat="42.448283810" lon="-2.503165440">
        <ele>445.23</ele>
        <time>2014-11-08T10:47:01Z</time>
      </trkpt>
      <trkpt lat="42.448342980" lon="-2.502779120">
        <ele>444.27</ele>
        <time>2014-11-08T10:47:10Z</time>
      </trkpt>
      <trkpt lat="42.448362260" lon="-2.502728750">
        <ele>443.79</ele>
        <time>2014-11-08T10:47:11Z</time>
      </trkpt>
      <trkpt lat="42.448410210" lon="-2.502571500">
        <ele>442.82</ele>
        <time>2014-11-08T10:47:14Z</time>
      </trkpt>
      <trkpt lat="42.448419680" lon="-2.502510060">
        <ele>442.82</ele>
        <time>2014-11-08T10:47:15Z</time>
      </trkpt>
      <trkpt lat="42.448446920" lon="-2.502287440">
        <ele>442.34</ele>
        <time>2014-11-08T10:47:18Z</time>
      </trkpt>
      <trkpt lat="42.448442480" lon="-2.502201690">
        <ele>441.38</ele>
        <time>2014-11-08T10:47:19Z</time>
      </trkpt>
      <trkpt lat="42.448430660" lon="-2.502111920">
        <ele>440.90</ele>
        <time>2014-11-08T10:47:20Z</time>
      </trkpt>
      <trkpt lat="42.448343320" lon="-2.501747390">
        <ele>439.46</ele>
        <time>2014-11-08T10:47:24Z</time>
      </trkpt>
      <trkpt lat="42.448328150" lon="-2.501650580">
        <ele>438.98</ele>
        <time>2014-11-08T10:47:25Z</time>
      </trkpt>
      <trkpt lat="42.448313480" lon="-2.501552350">
        <ele>438.50</ele>
        <time>2014-11-08T10:47:26Z</time>
      </trkpt>
      <trkpt lat="42.448289420" lon="-2.501455960">
        <ele>438.50</ele>
        <time>2014-11-08T10:47:27Z</time>
      </trkpt>
      <trkpt lat="42.448251370" lon="-2.501364680">
        <ele>438.02</ele>
        <time>2014-11-08T10:47:28Z</time>
      </trkpt>
      <trkpt lat="42.448199900" lon="-2.501286140">
        <ele>437.06</ele>
        <time>2014-11-08T10:47:29Z</time>
      </trkpt>
      <trkpt lat="42.448135450" lon="-2.501231740">
        <ele>436.58</ele>
        <time>2014-11-08T10:47:30Z</time>
      </trkpt>
      <trkpt lat="42.448062110" lon="-2.501201230">
        <ele>436.58</ele>
        <time>2014-11-08T10:47:31Z</time>
      </trkpt>
      <trkpt lat="42.447988600" lon="-2.501181110">
        <ele>436.10</ele>
        <time>2014-11-08T10:47:32Z</time>
      </trkpt>
      <trkpt lat="42.447687940" lon="-2.500514750">
        <ele>436.58</ele>
        <time>2014-11-08T10:47:45Z</time>
      </trkpt>
      <trkpt lat="42.447715850" lon="-2.500463870">
        <ele>436.58</ele>
        <time>2014-11-08T10:47:46Z</time>
      </trkpt>
      <trkpt lat="42.447742750" lon="-2.500414170">
        <ele>437.54</ele>
        <time>2014-11-08T10:47:47Z</time>
      </trkpt>
      <trkpt lat="42.447767400" lon="-2.500362200">
        <ele>437.54</ele>
        <time>2014-11-08T10:47:48Z</time>
      </trkpt>
      <trkpt lat="42.447805200" lon="-2.500245610">
        <ele>437.54</ele>
        <time>2014-11-08T10:47:50Z</time>
      </trkpt>
      <trkpt lat="42.447839900" lon="-2.500067160">
        <ele>438.02</ele>
        <time>2014-11-08T10:47:53Z</time>
      </trkpt>
      <trkpt lat="42.447845010" lon="-2.500017200">
        <ele>438.50</ele>
        <time>2014-11-08T10:47:54Z</time>
      </trkpt>
      <trkpt lat="42.447849790" lon="-2.499974450">
        <ele>438.98</ele>
        <time>2014-11-08T10:47:55Z</time>
      </trkpt>
      <trkpt lat="42.447892960" lon="-2.499921230">
        <ele>438.98</ele>
        <time>2014-11-08T10:47:57Z</time>
      </trkpt>
      <trkpt lat="42.447923380" lon="-2.499900940">
        <ele>438.98</ele>
        <time>2014-11-08T10:47:58Z</time>
      </trkpt>
      <trkpt lat="42.447957160" lon="-2.499871690">
        <ele>438.98</ele>
        <time>2014-11-08T10:47:59Z</time>
      </trkpt>
      <trkpt lat="42.448084070" lon="-2.499772790">
        <ele>437.54</ele>
        <time>2014-11-08T10:48:02Z</time>
      </trkpt>
      <trkpt lat="42.448121620" lon="-2.499730120">
        <ele>437.54</ele>
        <time>2014-11-08T10:48:03Z</time>
      </trkpt>
      <trkpt lat="42.448149780" lon="-2.499682340">
        <ele>437.54</ele>
        <time>2014-11-08T10:48:04Z</time>
      </trkpt>
      <trkpt lat="42.448170480" lon="-2.499634400">
        <ele>437.54</ele>
        <time>2014-11-08T10:48:05Z</time>
      </trkpt>
      <trkpt lat="42.448187830" lon="-2.499589050">
        <ele>437.54</ele>
        <time>2014-11-08T10:48:06Z</time>
      </trkpt>
      <trkpt lat="42.448364690" lon="-2.499121850">
        <ele>439.46</ele>
        <time>2014-11-08T10:48:19Z</time>
      </trkpt>
      <trkpt lat="42.448684130" lon="-2.498767960">
        <ele>439.46</ele>
        <time>2014-11-08T10:48:31Z</time>
      </trkpt>
      <trkpt lat="42.448906920" lon="-2.498195230">
        <ele>440.90</ele>
        <time>2014-11-08T10:48:44Z</time>
      </trkpt>
      <trkpt lat="42.448993170" lon="-2.498194720">
        <ele>441.86</ele>
        <time>2014-11-08T10:48:46Z</time>
      </trkpt>
      <trkpt lat="42.449034410" lon="-2.498201850">
        <ele>441.86</ele>
        <time>2014-11-08T10:48:47Z</time>
      </trkpt>
      <trkpt lat="42.449076060" lon="-2.498210820">
        <ele>442.34</ele>
        <time>2014-11-08T10:48:48Z</time>
      </trkpt>
      <trkpt lat="42.449422660" lon="-2.498059360">
        <ele>443.79</ele>
        <time>2014-11-08T10:48:58Z</time>
      </trkpt>
      <trkpt lat="42.449773100" lon="-2.497772360">
        <ele>443.31</ele>
        <time>2014-11-08T10:49:11Z</time>
      </trkpt>
      <trkpt lat="42.449800930" lon="-2.497735060">
        <ele>442.34</ele>
        <time>2014-11-08T10:49:12Z</time>
      </trkpt>
      <trkpt lat="42.449849380" lon="-2.497635060">
        <ele>441.86</ele>
        <time>2014-11-08T10:49:14Z</time>
      </trkpt>
      <trkpt lat="42.449867650" lon="-2.497572120">
        <ele>441.38</ele>
        <time>2014-11-08T10:49:15Z</time>
      </trkpt>
      <trkpt lat="42.449881150" lon="-2.497500700">
        <ele>441.38</ele>
        <time>2014-11-08T10:49:16Z</time>
      </trkpt>
      <trkpt lat="42.449932360" lon="-2.496604760">
        <ele>437.54</ele>
        <time>2014-11-08T10:49:27Z</time>
      </trkpt>
      <trkpt lat="42.449970580" lon="-2.496250460">
        <ele>436.58</ele>
        <time>2014-11-08T10:49:31Z</time>
      </trkpt>
      <trkpt lat="42.449939230" lon="-2.495530030">
        <ele>434.65</ele>
        <time>2014-11-08T10:49:39Z</time>
      </trkpt>
      <trkpt lat="42.450261770" lon="-2.494995180">
        <ele>431.77</ele>
        <time>2014-11-08T10:49:53Z</time>
      </trkpt>
      <trkpt lat="42.450278200" lon="-2.495007920">
        <ele>431.77</ele>
        <time>2014-11-08T10:49:54Z</time>
      </trkpt>
      <trkpt lat="42.450301160" lon="-2.495017230">
        <ele>431.77</ele>
        <time>2014-11-08T10:49:55Z</time>
      </trkpt>
      <trkpt lat="42.450328990" lon="-2.495021080">
        <ele>431.77</ele>
        <time>2014-11-08T10:49:56Z</time>
      </trkpt>
      <trkpt lat="42.450362100" lon="-2.495006420">
        <ele>431.29</ele>
        <time>2014-11-08T10:49:57Z</time>
      </trkpt>
      <trkpt lat="42.450392360" lon="-2.494966180">
        <ele>431.29</ele>
        <time>2014-11-08T10:49:58Z</time>
      </trkpt>
      <trkpt lat="42.450413900" lon="-2.494909770">
        <ele>430.33</ele>
        <time>2014-11-08T10:49:59Z</time>
      </trkpt>
      <trkpt lat="42.450431840" lon="-2.494846320">
        <ele>430.81</ele>
        <time>2014-11-08T10:50:00Z</time>
      </trkpt>
      <trkpt lat="42.450510120" lon="-2.494584300">
        <ele>429.85</ele>
        <time>2014-11-08T10:50:04Z</time>
      </trkpt>
      <trkpt lat="42.450638030" lon="-2.494136960">
        <ele>429.37</ele>
        <time>2014-11-08T10:50:11Z</time>
      </trkpt>
      <trkpt lat="42.450931570" lon="-2.493146140">
        <ele>427.92</ele>
        <time>2014-11-08T10:50:26Z</time>
      </trkpt>
      <trkpt lat="42.451152600" lon="-2.492265700">
        <ele>426.96</ele>
        <time>2014-11-08T10:50:39Z</time>
      </trkpt>
      <trkpt lat="42.451441270" lon="-2.491253420">
        <ele>425.52</ele>
        <time>2014-11-08T10:50:53Z</time>
      </trkpt>
      <trkpt lat="42.451674540" lon="-2.490273830">
        <ele>424.08</ele>
        <time>2014-11-08T10:51:07Z</time>
      </trkpt>
      <trkpt lat="42.451846870" lon="-2.489805110">
        <ele>424.08</ele>
        <time>2014-11-08T10:51:14Z</time>
      </trkpt>
      <trkpt lat="42.452191280" lon="-2.488887460">
        <ele>422.16</ele>
        <time>2014-11-08T10:51:28Z</time>
      </trkpt>
      <trkpt lat="42.452364620" lon="-2.488427710">
        <ele>422.16</ele>
        <time>2014-11-08T10:51:35Z</time>
      </trkpt>
      <trkpt lat="42.452574670" lon="-2.487902330">
        <ele>422.16</ele>
        <time>2014-11-08T10:51:43Z</time>
      </trkpt>
      <trkpt lat="42.452747090" lon="-2.487448710">
        <ele>421.68</ele>
        <time>2014-11-08T10:51:50Z</time>
      </trkpt>
      <trkpt lat="42.453035760" lon="-2.486715210">
        <ele>420.71</ele>
        <time>2014-11-08T10:52:01Z</time>
      </trkpt>
      <trkpt lat="42.453045900" lon="-2.486639520">
        <ele>420.71</ele>
        <time>2014-11-08T10:52:02Z</time>
      </trkpt>
      <trkpt lat="42.453200130" lon="-2.485169670">
        <ele>420.23</ele>
        <time>2014-11-08T10:52:22Z</time>
      </trkpt>
      <trkpt lat="42.453376650" lon="-2.484061240">
        <ele>419.75</ele>
        <time>2014-11-08T10:52:39Z</time>
      </trkpt>
      <trkpt lat="42.453471700" lon="-2.483358000">
        <ele>419.27</ele>
        <time>2014-11-08T10:52:51Z</time>
      </trkpt>
      <trkpt lat="42.453755090" lon="-2.482369100">
        <ele>419.27</ele>
        <time>2014-11-08T10:53:08Z</time>
      </trkpt>
      <trkpt lat="42.454089870" lon="-2.481456480">
        <ele>419.27</ele>
        <time>2014-11-08T10:53:25Z</time>
      </trkpt>
      <trkpt lat="42.454329840" lon="-2.480966230">
        <ele>419.27</ele>
        <time>2014-11-08T10:53:38Z</time>
      </trkpt>
      <trkpt lat="42.454580120" lon="-2.480431210">
        <ele>419.27</ele>
        <time>2014-11-08T10:53:52Z</time>
      </trkpt>
      <trkpt lat="42.454714910" lon="-2.480130470">
        <ele>418.79</ele>
        <time>2014-11-08T10:54:02Z</time>
      </trkpt>
      <trkpt lat="42.454871560" lon="-2.479890660">
        <ele>418.79</ele>
        <time>2014-11-08T10:54:15Z</time>
      </trkpt>
      <trkpt lat="42.455031150" lon="-2.479471310">
        <ele>418.79</ele>
        <time>2014-11-08T10:54:28Z</time>
      </trkpt>
      <trkpt lat="42.455062670" lon="-2.479105280">
        <ele>418.79</ele>
        <time>2014-11-08T10:54:42Z</time>
      </trkpt>
      <trkpt lat="42.455150680" lon="-2.478596660">
        <ele>418.31</ele>
        <time>2014-11-08T10:54:56Z</time>
      </trkpt>
      <trkpt lat="42.455242550" lon="-2.478092910">
        <ele>418.31</ele>
        <time>2014-11-08T10:55:07Z</time>
      </trkpt>
      <trkpt lat="42.455317480" lon="-2.477444740">
        <ele>416.87</ele>
        <time>2014-11-08T10:55:21Z</time>
      </trkpt>
      <trkpt lat="42.455333320" lon="-2.477416740">
        <ele>416.87</ele>
        <time>2014-11-08T10:55:22Z</time>
      </trkpt>
      <trkpt lat="42.455355790" lon="-2.477401820">
        <ele>416.87</ele>
        <time>2014-11-08T10:55:23Z</time>
      </trkpt>
      <trkpt lat="42.455382940" lon="-2.477396290">
        <ele>415.91</ele>
        <time>2014-11-08T10:55:24Z</time>
      </trkpt>
      <trkpt lat="42.455438770" lon="-2.477390170">
        <ele>415.91</ele>
        <time>2014-11-08T10:55:26Z</time>
      </trkpt>
      <trkpt lat="42.455457710" lon="-2.477396880">
        <ele>415.91</ele>
        <time>2014-11-08T10:55:27Z</time>
      </trkpt>
      <trkpt lat="42.455643200" lon="-2.477480440">
        <ele>416.39</ele>
        <time>2014-11-08T10:55:34Z</time>
      </trkpt>
      <trkpt lat="42.455706400" lon="-2.477452620">
        <ele>416.39</ele>
        <time>2014-11-08T10:55:35Z</time>
      </trkpt>
      <trkpt lat="42.455745630" lon="-2.477421690">
        <ele>416.39</ele>
        <time>2014-11-08T10:55:36Z</time>
      </trkpt>
      <trkpt lat="42.455774040" lon="-2.477391340">
        <ele>416.39</ele>
        <time>2014-11-08T10:55:37Z</time>
      </trkpt>
      <trkpt lat="42.455791230" lon="-2.477350520">
        <ele>416.39</ele>
        <time>2014-11-08T10:55:38Z</time>
      </trkpt>
      <trkpt lat="42.455802370" lon="-2.477311630">
        <ele>416.39</ele>
        <time>2014-11-08T10:55:39Z</time>
      </trkpt>
      <trkpt lat="42.455810670" lon="-2.477275340">
        <ele>417.35</ele>
        <time>2014-11-08T10:55:40Z</time>
      </trkpt>
      <trkpt lat="42.455819720" lon="-2.477239710">
        <ele>417.35</ele>
        <time>2014-11-08T10:55:41Z</time>
      </trkpt>
      <trkpt lat="42.455938410" lon="-2.476786670">
        <ele>419.75</ele>
        <time>2014-11-08T10:55:54Z</time>
      </trkpt>
      <trkpt lat="42.456020050" lon="-2.476314270">
        <ele>423.60</ele>
        <time>2014-11-08T10:56:05Z</time>
      </trkpt>
      <trkpt lat="42.456092720" lon="-2.475840270">
        <ele>425.04</ele>
        <time>2014-11-08T10:56:22Z</time>
      </trkpt>
      <trkpt lat="42.456158190" lon="-2.475577080">
        <ele>425.04</ele>
        <time>2014-11-08T10:56:36Z</time>
      </trkpt>
      <trkpt lat="42.456189870" lon="-2.475512120">
        <ele>425.04</ele>
        <time>2014-11-08T10:56:40Z</time>
      </trkpt>
      <trkpt lat="42.456196410" lon="-2.475495360">
        <ele>425.04</ele>
        <time>2014-11-08T10:56:41Z</time>
      </trkpt>
      <trkpt lat="42.456208060" lon="-2.475478340">
        <ele>425.04</ele>
        <time>2014-11-08T10:56:42Z</time>
      </trkpt>
      <trkpt lat="42.456220210" lon="-2.475460990">
        <ele>425.04</ele>
        <time>2014-11-08T10:56:43Z</time>
      </trkpt>
      <trkpt lat="42.456231610" lon="-2.475442630">
        <ele>425.04</ele>
        <time>2014-11-08T10:56:44Z</time>
      </trkpt>
      <trkpt lat="42.456244940" lon="-2.475426790">
        <ele>425.04</ele>
        <time>2014-11-08T10:56:45Z</time>
      </trkpt>
      <trkpt lat="42.456258430" lon="-2.475411790">
        <ele>425.04</ele>
        <time>2014-11-08T10:56:46Z</time>
      </trkpt>
      <trkpt lat="42.456292040" lon="-2.475374410">
        <ele>425.04</ele>
        <time>2014-11-08T10:56:49Z</time>
      </trkpt>
      <trkpt lat="42.456305120" lon="-2.475365940">
        <ele>425.04</ele>
        <time>2014-11-08T10:56:50Z</time>
      </trkpt>
      <trkpt lat="42.456318030" lon="-2.475353790">
        <ele>425.04</ele>
        <time>2014-11-08T10:56:51Z</time>
      </trkpt>
      <trkpt lat="42.456328760" lon="-2.475344230">
        <ele>425.04</ele>
        <time>2014-11-08T10:56:52Z</time>
      </trkpt>
      <trkpt lat="42.456336970" lon="-2.475333920">
        <ele>425.04</ele>
        <time>2014-11-08T10:56:53Z</time>
      </trkpt>
      <trkpt lat="42.456346780" lon="-2.475324200">
        <ele>425.04</ele>
        <time>2014-11-08T10:56:54Z</time>
      </trkpt>
      <trkpt lat="42.456420710" lon="-2.475240130">
        <ele>425.52</ele>
        <time>2014-11-08T10:57:00Z</time>
      </trkpt>
      <trkpt lat="42.456529170" lon="-2.475037290">
        <ele>425.52</ele>
        <time>2014-11-08T10:57:08Z</time>
      </trkpt>
      <trkpt lat="42.456594880" lon="-2.474958500">
        <ele>425.52</ele>
        <time>2014-11-08T10:57:11Z</time>
      </trkpt>
      <trkpt lat="42.456703180" lon="-2.474448460">
        <ele>424.08</ele>
        <time>2014-11-08T10:57:23Z</time>
      </trkpt>
      <trkpt lat="42.456942820" lon="-2.473573720">
        <ele>421.68</ele>
        <time>2014-11-08T10:57:39Z</time>
      </trkpt>
      <trkpt lat="42.457135350" lon="-2.472853970">
        <ele>418.79</ele>
        <time>2014-11-08T10:57:51Z</time>
      </trkpt>
      <trkpt lat="42.457159820" lon="-2.472737210">
        <ele>418.31</ele>
        <time>2014-11-08T10:57:55Z</time>
      </trkpt>
      <trkpt lat="42.457352190" lon="-2.472771660">
        <ele>418.31</ele>
        <time>2014-11-08T10:58:03Z</time>
      </trkpt>
      <trkpt lat="42.457795000" lon="-2.473009200">
        <ele>418.31</ele>
        <time>2014-11-08T10:58:15Z</time>
      </trkpt>
      <trkpt lat="42.458213430" lon="-2.473274490">
        <ele>417.35</ele>
        <time>2014-11-08T10:58:26Z</time>
      </trkpt>
      <trkpt lat="42.458863440" lon="-2.473578670">
        <ele>414.95</ele>
        <time>2014-11-08T10:58:39Z</time>
      </trkpt>
      <trkpt lat="42.459844970" lon="-2.473976560">
        <ele>412.06</ele>
        <time>2014-11-08T10:58:57Z</time>
      </trkpt>
      <trkpt lat="42.460424570" lon="-2.474232710">
        <ele>410.14</ele>
        <time>2014-11-08T10:59:09Z</time>
      </trkpt>
      <trkpt lat="42.460455840" lon="-2.474230860">
        <ele>410.14</ele>
        <time>2014-11-08T10:59:10Z</time>
      </trkpt>
      <trkpt lat="42.460530690" lon="-2.474114350">
        <ele>409.66</ele>
        <time>2014-11-08T10:59:14Z</time>
      </trkpt>
      <trkpt lat="42.460775860" lon="-2.473173230">
        <ele>408.70</ele>
        <time>2014-11-08T10:59:31Z</time>
      </trkpt>
      <trkpt lat="42.460854900" lon="-2.472864360">
        <ele>408.70</ele>
        <time>2014-11-08T10:59:36Z</time>
      </trkpt>
      <trkpt lat="42.461162680" lon="-2.471553680">
        <ele>408.22</ele>
        <time>2014-11-08T10:59:56Z</time>
      </trkpt>
      <trkpt lat="42.461468290" lon="-2.470283490">
        <ele>406.77</ele>
        <time>2014-11-08T11:00:15Z</time>
      </trkpt>
      <trkpt lat="42.461787890" lon="-2.468917990">
        <ele>406.29</ele>
        <time>2014-11-08T11:00:35Z</time>
      </trkpt>
      <trkpt lat="42.461878160" lon="-2.468575090">
        <ele>406.29</ele>
        <time>2014-11-08T11:00:40Z</time>
      </trkpt>
      <trkpt lat="42.462099450" lon="-2.467521070">
        <ele>404.85</ele>
        <time>2014-11-08T11:00:55Z</time>
      </trkpt>
      <trkpt lat="42.462129960" lon="-2.467392660">
        <ele>404.85</ele>
        <time>2014-11-08T11:00:57Z</time>
      </trkpt>
      <trkpt lat="42.462219060" lon="-2.466895440">
        <ele>404.85</ele>
        <time>2014-11-08T11:01:05Z</time>
      </trkpt>
      <trkpt lat="42.462500770" lon="-2.465878050">
        <ele>404.37</ele>
        <time>2014-11-08T11:01:20Z</time>
      </trkpt>
      <trkpt lat="42.462782320" lon="-2.464707760">
        <ele>404.37</ele>
        <time>2014-11-08T11:01:37Z</time>
      </trkpt>
      <trkpt lat="42.463146180" lon="-2.463239930">
        <ele>403.89</ele>
        <time>2014-11-08T11:01:59Z</time>
      </trkpt>
      <trkpt lat="42.463343990" lon="-2.462451940">
        <ele>401.97</ele>
        <time>2014-11-08T11:02:12Z</time>
      </trkpt>
      <trkpt lat="42.463342570" lon="-2.462258820">
        <ele>401.49</ele>
        <time>2014-11-08T11:02:16Z</time>
      </trkpt>
      <trkpt lat="42.463524960" lon="-2.462029490">
        <ele>400.53</ele>
        <time>2014-11-08T11:02:22Z</time>
      </trkpt>
      <trkpt lat="42.463882360" lon="-2.462251030">
        <ele>400.05</ele>
        <time>2014-11-08T11:02:29Z</time>
      </trkpt>
      <trkpt lat="42.463937430" lon="-2.462278190">
        <ele>400.05</ele>
        <time>2014-11-08T11:02:30Z</time>
      </trkpt>
      <trkpt lat="42.464549220" lon="-2.462569370">
        <ele>398.12</ele>
        <time>2014-11-08T11:02:42Z</time>
      </trkpt>
      <trkpt lat="42.465157500" lon="-2.462726950">
        <ele>398.12</ele>
        <time>2014-11-08T11:02:55Z</time>
      </trkpt>
      <trkpt lat="42.465633840" lon="-2.462690320">
        <ele>398.12</ele>
        <time>2014-11-08T11:03:05Z</time>
      </trkpt>
      <trkpt lat="42.466143880" lon="-2.462590160">
        <ele>398.12</ele>
        <time>2014-11-08T11:03:15Z</time>
      </trkpt>
      <trkpt lat="42.466253940" lon="-2.462561330">
        <ele>398.12</ele>
        <time>2014-11-08T11:03:17Z</time>
      </trkpt>
      <trkpt lat="42.466996740" lon="-2.462173580">
        <ele>397.64</ele>
        <time>2014-11-08T11:03:33Z</time>
      </trkpt>
      <trkpt lat="42.467146110" lon="-2.461898490">
        <ele>397.64</ele>
        <time>2014-11-08T11:03:39Z</time>
      </trkpt>
      <trkpt lat="42.467129010" lon="-2.461383080">
        <ele>397.16</ele>
        <time>2014-11-08T11:03:51Z</time>
      </trkpt>
      <trkpt lat="42.467134370" lon="-2.461340840">
        <ele>396.68</ele>
        <time>2014-11-08T11:04:03Z</time>
      </trkpt>
      <trkpt lat="42.467136970" lon="-2.461325330">
        <ele>396.68</ele>
        <time>2014-11-08T11:04:16Z</time>
      </trkpt>
      <trkpt lat="42.467085090" lon="-2.461330190">
        <ele>396.68</ele>
        <time>2014-11-08T11:04:50Z</time>
      </trkpt>
      <trkpt lat="42.467018700" lon="-2.461349050">
        <ele>396.20</ele>
        <time>2014-11-08T11:05:25Z</time>
      </trkpt>
      <trkpt lat="42.467016520" lon="-2.461345110">
        <ele>396.20</ele>
        <time>2014-11-08T11:05:48Z</time>
      </trkpt>
      <trkpt lat="42.467006970" lon="-2.461342010">
        <ele>396.20</ele>
        <time>2014-11-08T11:06:14Z</time>
      </trkpt>
      <trkpt lat="42.466997160" lon="-2.461343690">
        <ele>396.20</ele>
        <time>2014-11-08T11:06:41Z</time>
      </trkpt>
      <trkpt lat="42.467016270" lon="-2.461320970">
        <ele>396.20</ele>
        <time>2014-11-08T11:07:08Z</time>
      </trkpt>
      <trkpt lat="42.467046360" lon="-2.461313930">
        <ele>395.72</ele>
        <time>2014-11-08T11:07:36Z</time>
      </trkpt>
      <trkpt lat="42.467063880" lon="-2.461297500">
        <ele>395.72</ele>
        <time>2014-11-08T11:07:58Z</time>
      </trkpt>
      <trkpt lat="42.467069750" lon="-2.461287610">
        <ele>395.72</ele>
        <time>2014-11-08T11:08:18Z</time>
      </trkpt>
      <trkpt lat="42.467061620" lon="-2.461290130">
        <ele>395.72</ele>
        <time>2014-11-08T11:08:40Z</time>
      </trkpt>
      <trkpt lat="42.467056760" lon="-2.461300100">
        <ele>395.72</ele>
        <time>2014-11-08T11:09:05Z</time>
      </trkpt>
      <trkpt lat="42.467054070" lon="-2.461313090">
        <ele>395.72</ele>
        <time>2014-11-08T11:09:23Z</time>
      </trkpt>
      <trkpt lat="42.467030100" lon="-2.461339410">
        <ele>395.72</ele>
        <time>2014-11-08T11:09:52Z</time>
      </trkpt>
      <trkpt lat="42.467015770" lon="-2.461348970">
        <ele>395.72</ele>
        <time>2014-11-08T11:10:14Z</time>
      </trkpt>
      <trkpt lat="42.467010400" lon="-2.461345360">
        <ele>395.72</ele>
        <time>2014-11-08T11:10:29Z</time>
      </trkpt>
      <trkpt lat="42.466996240" lon="-2.461338990">
        <ele>395.72</ele>
        <time>2014-11-08T11:10:47Z</time>
      </trkpt>
      <trkpt lat="42.466937560" lon="-2.461336390">
        <ele>396.20</ele>
        <time>2014-11-08T11:11:09Z</time>
      </trkpt>
      <trkpt lat="42.466908400" lon="-2.461341680">
        <ele>396.20</ele>
        <time>2014-11-08T11:11:32Z</time>
      </trkpt>
      <trkpt lat="42.466951390" lon="-2.461340170">
        <ele>396.20</ele>
        <time>2014-11-08T11:11:49Z</time>
      </trkpt>
      <trkpt lat="42.466943010" lon="-2.461324740">
        <ele>396.20</ele>
        <time>2014-11-08T11:12:14Z</time>
      </trkpt>
      <trkpt lat="42.466926840" lon="-2.461353240">
        <ele>396.68</ele>
        <time>2014-11-08T11:12:41Z</time>
      </trkpt>
      <trkpt lat="42.466978970" lon="-2.461360530">
        <ele>396.68</ele>
        <time>2014-11-08T11:12:44Z</time>
      </trkpt>
      <trkpt lat="42.467045520" lon="-2.461467910">
        <ele>396.68</ele>
        <time>2014-11-08T11:12:49Z</time>
      </trkpt>
      <trkpt lat="42.467162790" lon="-2.461715420">
        <ele>398.12</ele>
        <time>2014-11-08T11:12:55Z</time>
      </trkpt>
      <trkpt lat="42.467183320" lon="-2.461762780">
        <ele>398.12</ele>
        <time>2014-11-08T11:12:56Z</time>
      </trkpt>
      <trkpt lat="42.467328920" lon="-2.461891280">
        <ele>398.12</ele>
        <time>2014-11-08T11:13:00Z</time>
      </trkpt>
      <trkpt lat="42.467806520" lon="-2.462046930">
        <ele>398.60</ele>
        <time>2014-11-08T11:13:12Z</time>
      </trkpt>
      <trkpt lat="42.467994020" lon="-2.462045340">
        <ele>398.60</ele>
        <time>2014-11-08T11:13:16Z</time>
      </trkpt>
      <trkpt lat="42.468607410" lon="-2.461968890">
        <ele>396.68</ele>
        <time>2014-11-08T11:13:30Z</time>
      </trkpt>
      <trkpt lat="42.468655270" lon="-2.462040060">
        <ele>396.68</ele>
        <time>2014-11-08T11:13:34Z</time>
      </trkpt>
      <trkpt lat="42.468804970" lon="-2.462094370">
        <ele>396.68</ele>
        <time>2014-11-08T11:13:40Z</time>
      </trkpt>
      <trkpt lat="42.468988110" lon="-2.461979620">
        <ele>396.20</ele>
        <time>2014-11-08T11:13:46Z</time>
      </trkpt>
      <trkpt lat="42.469210990" lon="-2.462100410">
        <ele>396.20</ele>
        <time>2014-11-08T11:13:52Z</time>
      </trkpt>
      <trkpt lat="42.469293630" lon="-2.462176090">
        <ele>396.20</ele>
        <time>2014-11-08T11:13:54Z</time>
      </trkpt>
      <trkpt lat="42.469488930" lon="-2.462290420">
        <ele>397.64</ele>
        <time>2014-11-08T11:13:59Z</time>
      </trkpt>
      <trkpt lat="42.470118660" lon="-2.462560990">
        <ele>398.12</ele>
        <time>2014-11-08T11:14:15Z</time>
      </trkpt>
      <trkpt lat="42.470258640" lon="-2.462485640">
        <ele>396.68</ele>
        <time>2014-11-08T11:14:19Z</time>
      </trkpt>
      <trkpt lat="42.470760220" lon="-2.462113820">
        <ele>395.72</ele>
        <time>2014-11-08T11:14:33Z</time>
      </trkpt>
      <trkpt lat="42.471264300" lon="-2.461725320">
        <ele>395.72</ele>
        <time>2014-11-08T11:14:46Z</time>
      </trkpt>
      <trkpt lat="42.471405710" lon="-2.461555410">
        <ele>395.72</ele>
        <time>2014-11-08T11:14:51Z</time>
      </trkpt>
      <trkpt lat="42.471562870" lon="-2.461686170">
        <ele>395.72</ele>
        <time>2014-11-08T11:14:56Z</time>
      </trkpt>
      <trkpt lat="42.472055810" lon="-2.462355550">
        <ele>395.24</ele>
        <time>2014-11-08T11:15:11Z</time>
      </trkpt>
      <trkpt lat="42.472235930" lon="-2.462592090">
        <ele>395.24</ele>
        <time>2014-11-08T11:15:17Z</time>
      </trkpt>
      <trkpt lat="42.472391920" lon="-2.462630140">
        <ele>394.76</ele>
        <time>2014-11-08T11:15:21Z</time>
      </trkpt>
      <trkpt lat="42.472481690" lon="-2.462587900">
        <ele>394.28</ele>
        <time>2014-11-08T11:15:23Z</time>
      </trkpt>
      <trkpt lat="42.472652510" lon="-2.462642300">
        <ele>394.28</ele>
        <time>2014-11-08T11:15:27Z</time>
      </trkpt>
      <trkpt lat="42.473224580" lon="-2.463413010">
        <ele>390.43</ele>
        <time>2014-11-08T11:15:39Z</time>
      </trkpt>
      <trkpt lat="42.473327340" lon="-2.463557930">
        <ele>389.95</ele>
        <time>2014-11-08T11:15:41Z</time>
      </trkpt>
      <trkpt lat="42.473821200" lon="-2.463674190">
        <ele>388.51</ele>
        <time>2014-11-08T11:15:48Z</time>
      </trkpt>
      <trkpt lat="42.474004850" lon="-2.463516280">
        <ele>387.55</ele>
        <time>2014-11-08T11:15:51Z</time>
      </trkpt>
      <trkpt lat="42.474394690" lon="-2.463050580">
        <ele>387.07</ele>
        <time>2014-11-08T11:15:59Z</time>
      </trkpt>
      <trkpt lat="42.474574990" lon="-2.462740950">
        <ele>386.59</ele>
        <time>2014-11-08T11:16:05Z</time>
      </trkpt>
      <trkpt lat="42.474749000" lon="-2.462542550">
        <ele>386.59</ele>
        <time>2014-11-08T11:16:11Z</time>
      </trkpt>
      <trkpt lat="42.474745560" lon="-2.462513210">
        <ele>386.59</ele>
        <time>2014-11-08T11:16:23Z</time>
      </trkpt>
      <trkpt lat="42.474745220" lon="-2.462511290">
        <ele>385.63</ele>
        <time>2014-11-08T11:16:24Z</time>
      </trkpt>
    </trkseg>
  </trk>
</gpx>
